GFSNW_prec_cloud_003.txt.gz
Cloud_Cover
5 5 5 6 49 16 8 5 58 5 5 5 5 5 3 0 0 0 0 4 2 5 5 5 32 36 38 81 92 93 6 5 8 5 5 51 69 12 5 65 33 38 90 100
5 5 5 5 5 5 5 5 5 31 11 38 5 5 5 0 0 0 2 5 5 5 5 12 81 90 100 99 87 84 82 45 10 6 36 24 80 79 88 96 93 24 99 34
5 26 12 5 5 5 10 66 49 5 5 10 5 5 24 6 0 0 0 5 20 17 9 5 16 20 56 84 27 65 100 95 39 100 14 22 12 100 93 5 62 6 20 15
45 75 92 93 25 5 5 8 29 5 23 5 4 5 5 9 4 4 5 5 5 5 33 5 5 9 22 10 5 38 95 100 34 100 20 49 10 100 100 32 5 48 4 37
88 100 100 100 99 7 5 85 32 8 6 5 5 5 5 5 5 5 5 5 5 5 54 58 74 44 60 65 56 93 100 100 99 87 9 46 71 59 95 36 5 6 6 45
100 100 100 64 100 100 15 35 52 5 5 12 5 5 5 6 5 5 5 5 64 56 15 37 20 71 37 25 5 19 100 100 100 100 47 59 61 97 100 89 25 78 97 80
100 100 100 100 100 100 71 23 46 100 87 89 62 6 12 19 23 74 58 47 61 58 6 26 16 99 74 74 71 24 99 100 100 100 100 86 68 7 14 31 100 7 19 73
99 89 100 100 100 100 100 100 93 99 100 95 100 98 100 90 98 64 95 23 88 14 62 59 100 89 92 53 40 9 6 97 100 100 69 58 61 86 89 5 5 8 22 72
100 88 100 100 100 100 100 98 98 100 99 100 84 97 100 100 100 54 100 53 60 50 96 100 100 98 100 100 94 100 100 100 100 100 100 100 99 98 45 5 14 87 67 76
100 100 100 100 100 100 100 100 93 73 95 99 100 74 71 100 74 87 88 26 32 5 98 100 100 83 64 99 100 100 89 97 100 100 100 100 100 88 5 32 63 55 100 100
100 100 100 100 100 100 100 100 99 96 89 100 100 76 100 61 67 52 62 78 21 83 100 100 97 100 20 71 56 99 100 100 100 100 100 85 97 85 100 100 24 85 100 100
100 100 100 100 100 100 100 100 100 88 64 99 100 100 100 100 92 92 43 36 15 8 51 98 100 100 100 95 100 100 89 97 100 100 60 78 93 100 98 47 89 75 100 100
100 100 100 100 100 100 100 100 100 100 100 100 100 100 100 100 100 100 100 88 100 94 80 91 100 100 61 100 100 96 97 100 96 95 79 69 85 47 89 100 100 86 96 100
100 100 100 100 100 100 100 100 100 100 100 100 97 100 100 100 100 100 100 100 100 100 100 99 100 100 100 98 59 100 100 100 100 80 52 85 36 100 100 100 100 100 100 100
100 100 100 100 100 100 100 100 100 100 100 100 100 100 100 100 100 100 100 100 100 100 100 100 100 100 100 99 100 100 100 100 100 100 100 100 100 100 100 100 100 100 100 100
100 100 100 100 100 100 100 100 100 100 100 100 100 62 52 92 100 100 100 100 100 100 100 100 100 100 100 98 99 100 100 100 100 83 92 100 100 100 100 100 100 100 100 100
100 100 100 100 100 100 100 100 94 95 100 100 100 96 96 100 98 85 100 100 100 100 98 100 100 100 100 100 100 99 100 100 90 98 99 99 100 100 100 100 100 100 100 100
100 100 100 100 100 100 100 100 100 100 100 100 100 100 100 92 100 100 100 99 100 100 100 100 100 100 100 100 98 100 78 94 100 100 100 100 100 100 100 100 88 98 100 100
100 100 100 100 100 100 100 100 100 100 100 100 100 100 100 100 100 100 100 97 100 85 100 100 85 69 64 53 7 8 5 97 100 100 100 100 100 100 100 100 100 85 100 100
100 100 100 100 100 100 100 100 100 100 100 100 100 100 98 100 100 100 100 100 100 100 40 39 80 5 100 65 28 86 88 15 100 100 100 92 82 91 41 49 63 47 100 100
100 100 100 100 100 100 100 100 100 100 100 100 100 100 100 100 100 100 100 100 100 100 100 100 47 12 55 72 63 56 67 97 88 62 7 5 19 5 5 5 11 69 94 42
100 100 100 100 100 100 100 100 100 100 100 100 100 100 100 100 100 100 100 100 100 100 69 100 80 70 5 49 70 94 95 8 4 10 31 99 100 24 5 4 6 100 47 100
80 86 98 100 100 100 98 100 100 100 100 100 100 100 100 100 100 100 100 100 100 98 99 100 80 100 36 52 63 76 89 87 94 76 65 16 5 17 17 77 99 100 99 100
100 100 100 100 98 99 100 100 100 100 100 100 100 100 100 100 100 100 100 62 73 93 53 26 85 92 81 96 97 89 39 4 3 1 0 5 100 100 100 98 100 100 100 100
100 100 100 92 99 100 100 100 100 100 100 100 99 81 59 100 96 100 96 100 78 33 19 45 4 5 3 5 5 1 0 26 8 3 5 15 100 84 88 100 100 100 100 100
98 100 83 72 99 100 100 100 99 56 98 92 67 64 91 94 61 85 59 4 0 0 0 0 0 0 1 5 0 0 0 2 5 5 5 58 100 99 100 100 100 100 100 100
52 89 93 99 99 100 100 95 37 35 97 5 26 12 2 0 7 5 4 0 0 0 0 0 0 0 0 5 5 2 0 5 13 5 72 86 100 100 100 100 100 100 100 100

GFSNW_prec_cloud_006.txt.gz
Cloud_Cover
5 5 5 5 1 0 6 11 81 5 5 5 5 4 2 6 5 0 0 0 0 5 5 5 5 4 5 5 12 42 63 20 5 4 1 5 7 11 80 100 75 93 58 97
5 63 8 2 0 5 52 39 5 5 5 46 8 4 1 5 5 5 0 2 0 0 5 5 5 6 5 5 38 31 95 64 34 17 5 28 50 6 3 5 72 92 100 20
5 5 5 5 5 5 14 24 49 5 5 3 5 4 5 4 5 5 5 1 0 5 5 16 5 50 43 52 37 27 69 82 19 19 8 87 98 5 5 2 5 6 51 3
8 5 5 5 5 50 48 5 5 21 62 7 5 5 4 6 9 5 5 5 5 5 19 5 14 61 96 36 80 10 7 68 12 6 6 46 26 5 6 5 27 44 42 5
98 5 5 5 5 7 21 17 5 25 32 8 5 5 5 5 5 5 18 5 12 5 17 80 100 100 20 8 13 98 100 58 79 100 66 89 78 14 71 8 5 100 87 43
54 28 70 55 83 32 37 33 65 6 5 67 11 5 5 7 8 7 24 13 12 53 88 21 35 73 70 92 46 64 70 98 100 100 100 100 85 57 100 100 100 92 39 12
100 100 100 84 100 92 75 35 90 92 59 5 6 43 5 5 49 62 69 96 99 100 100 100 96 77 100 100 98 32 75 100 100 100 100 99 67 74 64 7 13 5 52 5
100 100 100 100 100 100 100 100 100 63 100 100 92 42 45 83 100 100 100 100 99 42 95 100 100 79 86 98 100 100 95 75 100 100 50 48 82 97 69 51 5 37 91 52
100 100 100 100 100 100 100 100 100 96 83 100 90 45 52 82 55 20 72 70 6 10 94 91 86 98 100 100 65 83 48 78 78 100 96 97 100 10 7 78 52 100 100 91
100 100 100 100 100 100 77 100 100 100 91 100 100 92 56 100 70 12 12 6 31 10 100 100 99 99 100 98 100 99 84 99 99 100 100 100 53 55 88 100 100 90 94 100
100 100 100 100 100 100 100 100 100 86 52 100 100 100 100 100 100 99 100 93 100 100 100 100 60 100 17 14 9 74 92 100 74 100 99 74 99 100 100 99 100 100 100 100
100 100 100 100 100 100 100 100 100 100 77 100 100 100 100 100 100 100 40 92 100 99 100 100 99 100 94 91 95 99 94 100 60 30 30 5 7 100 100 100 99 50 100 94
100 100 100 100 100 100 100 100 100 100 100 100 100 100 100 100 100 100 79 88 100 100 95 99 100 100 100 98 98 88 100 100 99 62 92 64 98 86 92 99 93 98 100 86
100 100 100 100 100 100 85 100 100 100 100 100 100 100 100 100 100 100 99 70 99 100 100 100 100 100 100 87 57 100 100 100 73 42 5 10 18 24 100 100 100 100 97 10
100 100 100 100 100 100 100 100 100 100 100 100 100 69 100 100 100 100 100 100 100 100 100 100 100 100 92 75 100 100 100 98 100 18 19 80 4 5 77 87 100 88 72 98
100 100 100 100 100 100 100 100 98 100 100 100 100 84 100 100 100 100 100 100 100 100 93 100 98 99 100 100 100 100 100 98 90 8 59 5 53 100 87 96 90 100 100 100
100 100 100 100 100 100 100 100 100 100 100 100 100 99 87 89 95 90 97 100 76 89 100 100 100 100 100 100 100 100 98 43 44 28 96 100 100 100 99 100 99 100 100 100
100 100 100 100 100 100 100 100 100 100 100 100 100 100 100 100 100 100 100 100 100 100 100 100 100 100 100 100 100 100 100 76 92 100 100 100 100 100 100 100 100 100 98 40
100 100 100 100 100 100 100 100 100 100 100 100 100 100 100 99 100 100 100 100 100 100 100 100 100 100 100 100 98 74 100 100 100 100 100 100 79 95 100 93 65 77 72 97
100 100 100 100 100 100 100 100 100 100 100 100 100 100 100 100 95 100 100 100 100 100 64 46 99 98 100 100 99 83 100 100 100 82 99 100 100 100 100 99 100 97 11 4
100 100 100 100 100 100 100 100 100 100 100 100 99 98 100 99 100 100 100 100 100 100 40 79 28 23 98 100 100 100 98 100 100 98 100 99 97 100 94 80 4 0 17 23
100 100 100 100 100 100 100 100 85 100 100 100 98 100 100 100 100 100 100 100 99 88 61 92 47 82 88 91 60 85 100 100 100 100 100 100 100 92 9 1 4 5 30 96
100 100 100 100 98 95 94 96 100 100 100 100 100 100 99 100 100 100 100 100 100 94 90 50 87 100 100 98 84 26 63 89 11 5 0 0 0 0 4 18 94 100 97 100
100 100 100 100 100 100 97 99 100 100 100 100 100 100 100 100 100 100 100 100 99 96 100 100 100 99 99 96 96 76 4 0 0 0 0 0 0 4 12 99 100 88 97 100
100 100 100 100 100 100 100 100 100 100 100 100 100 100 100 100 100 100 100 100 100 100 100 100 47 45 31 5 5 2 0 0 0 0 0 2 3 73 46 30 87 97 100 100
100 100 100 100 100 100 100 100 100 100 100 100 100 100 100 100 100 100 100 100 100 100 72 9 5 2 0 0 0 0 0 0 0 0 4 5 5 77 56 76 100 100 100 100
100 100 100 100 100 100 100 100 100 100 100 100 100 100 100 100 100 100 100 100 82 20 4 2 0 0 0 4 0 0 0 0 4 5 5 5 5 87 100 100 100 100 100 100

GFSNW_prec_cloud_012.txt.gz
Cloud_Cover
84 9 5 10 17 5 5 5 5 0 0 0 0 1 5 5 5 0 3 0 5 5 0 0 0 0 0 3 4 5 5 5 5 5 5 5 62 99 37 89 86 82 84 100
37 7 5 5 5 5 5 5 0 0 0 0 0 0 0 1 0 3 0 0 1 0 1 0 0 0 0 3 5 5 5 5 5 5 5 5 43 14 5 10 10 98 89 12
42 15 5 5 5 5 10 5 3 0 0 0 0 5 4 0 0 1 1 5 0 0 0 2 2 0 3 5 5 5 5 5 63 88 5 5 84 24 8 5 18 21 22 8
6 29 49 70 5 5 12 5 0 0 0 0 1 5 5 5 1 5 4 3 3 1 2 5 5 5 37 11 5 5 5 5 5 7 6 5 82 5 5 5 6 43 5 5
28 86 100 94 5 5 5 5 2 0 4 0 4 6 5 5 5 52 5 5 5 5 5 5 5 54 32 5 5 25 75 99 7 98 5 5 42 5 6 6 21 9 82 100
22 100 100 5 5 5 5 0 1 0 5 4 4 16 5 5 21 5 5 5 6 6 8 5 5 24 6 5 5 3 3 5 52 76 32 22 100 90 94 84 98 56 69 41
56 100 94 5 5 5 5 4 5 5 2 5 16 23 41 5 64 92 11 39 92 17 21 48 98 50 47 31 5 5 39 52 65 68 100 86 99 5 5 5 5 5 5 5
12 100 27 5 5 6 6 24 5 14 56 56 7 14 7 5 26 97 24 83 32 100 100 99 100 86 5 5 6 5 5 84 93 54 91 49 98 5 6 37 6 35 60 5
100 57 7 6 16 5 5 5 5 6 50 8 78 100 99 18 19 49 39 74 100 99 34 9 52 94 100 91 99 100 100 91 64 91 89 98 5 4 5 5 8 5 1 5
100 100 100 88 66 65 30 42 59 49 100 98 100 100 98 94 65 40 11 6 16 11 100 100 16 18 15 52 100 100 100 95 64 97 74 7 5 5 20 48 46 24 5 25
100 100 100 100 100 100 100 100 100 100 100 100 100 100 99 43 5 60 54 5 76 98 93 76 35 61 5 41 58 77 29 88 62 73 98 68 43 100 100 80 56 75 5 67
100 100 100 100 100 100 100 100 96 94 100 95 97 100 100 100 100 17 5 9 5 43 91 98 82 99 98 98 100 96 96 100 94 6 8 6 100 96 33 78 75 5 21 43
100 100 96 11 94 89 100 100 33 44 100 100 100 100 100 100 38 5 5 55 88 23 87 50 93 100 85 96 100 96 100 100 100 89 53 5 63 92 78 72 43 100 100 100
100 98 98 74 80 20 13 54 40 24 100 100 98 100 100 100 74 18 21 13 85 100 78 100 100 100 100 100 100 100 100 100 100 56 39 11 30 90 97 100 100 100 100 100
100 100 89 82 99 62 100 96 100 91 96 100 95 91 100 100 100 100 93 93 100 100 93 100 99 100 100 100 100 100 100 96 90 49 89 99 42 100 100 100 100 100 100 100
100 100 100 100 94 99 100 100 94 100 100 99 100 80 100 100 100 100 68 71 83 100 100 100 88 100 100 100 100 100 100 97 85 100 100 100 100 100 100 100 100 100 100 100
100 100 100 100 100 100 100 100 100 100 100 100 100 100 100 100 100 100 100 100 100 64 62 100 99 100 100 100 100 100 100 100 100 100 96 66 100 99 91 100 98 100 100 100
100 100 100 100 100 100 100 100 100 100 100 100 100 100 100 100 100 100 100 100 100 96 100 100 100 100 100 100 100 100 100 100 100 100 98 100 100 100 100 100 100 97 100 100
100 100 100 100 100 100 100 100 100 100 100 100 100 100 100 100 100 100 100 100 100 100 100 100 100 100 100 100 96 87 100 100 100 100 100 86 100 100 99 100 100 100 100 100
100 100 100 100 100 100 100 100 100 100 100 100 100 100 100 100 100 100 100 100 100 100 100 99 100 100 100 9 5 5 10 34 52 26 77 100 100 100 92 100 97 100 100 100
100 100 100 100 100 100 100 100 100 100 100 100 95 100 100 100 100 100 100 100 100 99 65 100 93 97 20 12 5 5 9 32 80 100 100 99 95 91 7 40 98 100 100 100
100 100 100 100 100 100 100 100 100 100 98 100 98 100 100 100 100 100 100 100 100 78 81 98 96 32 26 14 5 22 99 100 55 62 62 100 100 100 100 97 59 71 25 31
100 100 100 96 99 100 100 100 100 100 100 100 100 100 100 100 98 100 100 99 75 87 97 100 84 100 100 100 100 99 98 99 100 100 100 100 97 52 15 2 5 5 7 17
100 100 100 100 100 81 100 100 100 100 100 100 100 100 100 100 100 98 100 45 85 99 100 100 100 96 100 100 100 100 98 100 100 98 52 20 5 2 0 0 0 16 99 100
100 100 100 100 100 100 100 100 100 100 100 100 100 100 100 100 100 100 100 100 97 100 100 100 98 100 98 100 100 92 84 80 95 42 11 2 0 0 0 0 5 64 100 100
95 90 100 100 100 100 100 100 100 100 100 100 100 100 100 100 100 100 100 100 100 100 88 53 85 98 100 100 79 56 79 30 5 4 0 0 0 2 4 5 12 95 98 100
88 82 99 100 100 100 100 100 100 100 100 100 100 100 100 100 100 100 100 100 100 82 60 99 100 100 100 97 73 60 6 2 0 0 0 0 4 5 70 91 11 100 100 100

GFSNW_prec_cloud_015.txt.gz
Cloud_Cover
100 100 100 100 86 88 28 38 36 12 0 0 0 0 0 0 5 3 4 2 5 1 5 5 0 0 0 0 0 0 0 0 2 5 5 32 12 5 5 76 50 8 19 26
100 100 100 93 77 100 85 55 43 5 1 0 0 0 0 0 0 5 5 5 1 1 0 0 0 0 0 0 0 0 0 0 4 5 5 5 4 0 4 5 5 99 85 31
100 100 100 100 35 95 98 20 32 5 0 0 0 0 0 0 4 5 3 3 5 5 5 3 0 0 0 0 5 4 0 0 0 3 0 2 3 0 2 5 84 59 32 88
85 99 100 98 5 38 98 33 6 5 0 0 0 0 0 0 5 5 5 5 5 4 2 3 4 3 2 5 5 5 5 4 5 6 5 14 7 5 5 5 5 97 9 5
50 100 100 28 32 5 5 5 5 5 4 0 0 0 0 0 2 5 5 5 5 4 5 18 5 4 0 3 5 5 5 5 5 5 5 5 6 5 5 5 5 5 22 44
100 100 95 97 14 5 5 5 5 5 5 4 0 2 0 0 2 5 5 5 10 5 6 5 10 31 13 2 5 5 1 5 56 27 40 33 97 47 5 28 37 42 77 12
100 100 72 90 98 55 7 5 5 5 1 0 4 5 0 0 0 5 5 5 5 5 96 22 95 78 17 5 36 20 40 38 82 41 95 98 100 36 96 62 95 5 5 5
100 100 45 76 100 100 95 5 5 5 50 51 5 5 5 0 4 5 5 5 6 73 97 5 18 20 5 5 5 5 5 45 86 95 94 99 96 5 5 5 96 5 5 38
98 36 23 73 100 100 99 98 9 5 5 5 5 5 5 5 5 5 5 5 83 93 92 7 5 5 5 5 6 51 25 7 29 85 97 98 9 5 5 5 5 8 29 57
98 87 30 5 86 78 30 42 5 5 47 7 5 5 5 6 5 9 5 5 62 5 97 100 40 5 5 12 5 58 100 100 100 98 100 46 8 5 5 24 74 86 89 100
100 100 92 88 42 84 5 18 8 5 38 32 5 5 0 2 81 21 5 5 14 98 84 52 20 40 62 86 88 88 100 91 96 99 100 48 23 59 79 78 99 98 86 13
100 100 100 100 100 100 95 71 78 82 58 50 92 100 100 33 5 5 15 7 5 9 90 76 87 100 88 38 98 100 97 100 47 92 66 96 100 100 86 98 96 7 90 99
100 100 100 100 100 100 100 100 100 100 100 100 100 100 96 27 5 7 10 7 6 7 5 60 98 97 92 74 100 100 100 100 89 96 74 100 66 61 100 99 100 99 100 98
100 100 100 100 100 100 100 100 100 100 97 100 82 72 17 54 75 9 40 26 8 6 36 100 100 100 100 98 86 100 100 100 91 100 66 38 82 100 100 100 100 100 99 100
100 100 100 100 100 100 100 100 86 91 41 92 82 97 92 100 80 73 43 78 45 94 100 100 100 100 100 100 100 100 100 99 88 99 69 100 100 100 100 100 100 100 100 100
100 100 100 100 100 100 100 100 100 100 100 100 100 100 100 100 100 100 100 38 60 90 100 100 100 100 97 100 100 100 100 100 100 100 100 100 100 100 100 100 100 100 100 100
100 100 100 100 100 100 100 100 100 100 100 100 100 100 100 100 100 100 100 100 100 100 100 100 100 100 100 100 100 100 100 100 100 100 100 100 100 100 100 100 100 87 96 100
100 100 100 100 100 100 100 100 100 100 100 100 100 100 100 100 100 100 100 100 100 100 100 100 100 100 100 100 100 100 100 100 100 100 100 100 100 100 100 100 98 89 100 100
100 100 100 100 100 100 100 100 100 100 100 100 100 100 100 100 100 100 100 100 100 100 100 100 100 100 100 100 100 100 100 100 100 100 100 98 94 100 80 100 100 100 94 94
100 100 100 100 100 100 100 100 100 100 100 100 100 100 100 100 100 100 100 100 100 100 100 100 100 100 100 100 100 100 98 77 41 100 100 100 100 100 99 91 100 98 82 60
100 100 100 100 100 100 100 100 100 100 100 100 100 100 100 100 100 100 100 100 100 100 21 98 92 74 11 60 64 10 5 8 82 81 100 99 94 52 11 5 19 95 100 100
100 100 100 100 100 100 100 100 100 100 98 98 98 100 100 100 100 100 100 86 98 76 93 99 100 63 100 71 62 54 70 96 100 84 81 99 100 100 100 99 80 35 8 5
100 100 100 100 100 100 87 78 83 100 100 100 100 100 100 100 100 100 96 100 88 99 99 88 88 100 79 100 100 100 91 77 81 100 100 100 99 8 5 3 5 1 2 5
100 100 100 99 99 93 100 100 100 100 100 100 100 100 100 100 100 100 100 97 99 99 100 100 100 95 98 99 99 96 100 92 98 100 91 15 5 0 4 1 3 5 5 5
96 96 77 91 90 94 100 100 100 100 100 100 98 100 98 100 100 100 100 99 100 100 100 80 100 100 100 92 88 93 91 77 62 12 4 0 0 0 0 4 5 5 5 89
100 100 100 99 100 94 99 100 100 100 100 100 82 71 57 86 74 70 100 97 100 100 50 90 100 100 95 73 72 56 10 5 1 0 0 0 5 5 5 5 5 5 16 81
99 100 100 100 100 95 99 100 99 87 99 80 51 61 75 38 66 88 100 100 100 37 5 81 92 42 57 30 5 4 0 0 0 0 0 5 5 5 5 5 5 5 8 90

GFSNW_prec_cloud_018.txt.gz
Cloud_Cover
100 100 100 100 97 100 5 78 71 18 41 51 5 5 0 0 4 5 0 4 5 5 5 0 0 0 0 0 0 0 0 0 0 0 0 0 0 5 5 3 5 5 56 47
100 100 100 100 100 6 56 75 40 7 5 5 5 2 0 0 0 0 0 2 5 5 5 4 0 0 0 0 0 0 0 0 3 0 0 0 5 4 5 5 10 53 88 93
100 100 100 100 100 41 67 43 66 50 5 5 5 0 0 0 0 0 0 0 0 1 0 0 1 0 0 0 0 0 0 0 0 0 0 5 5 10 46 70 94 100 100 100
100 100 100 100 100 87 67 60 24 6 7 5 5 0 0 0 0 0 0 0 5 5 1 1 4 4 0 0 0 4 0 0 4 4 5 14 46 5 5 18 6 92 31 11
100 100 100 100 100 88 59 70 63 32 28 5 5 3 0 0 3 0 0 0 6 11 5 5 5 5 5 1 2 0 1 5 5 5 5 5 91 5 5 5 5 5 6 5
100 100 100 100 100 100 83 92 81 86 29 5 3 0 0 0 0 0 0 0 0 5 24 5 5 5 5 5 5 5 5 5 13 48 10 31 19 5 5 5 6 5 5 5
100 100 100 100 100 79 55 50 5 5 5 5 2 0 1 5 3 1 0 0 0 0 0 2 4 1 5 5 5 5 74 11 83 87 18 93 100 6 5 5 17 5 5 5
100 100 100 100 100 67 21 14 5 5 47 33 5 5 5 5 5 5 5 5 5 2 0 5 5 5 5 5 5 5 5 63 70 100 94 24 94 54 5 5 79 5 5 12
100 100 100 100 100 100 48 50 47 8 9 5 5 5 14 5 5 5 5 1 2 3 0 5 5 5 5 5 5 16 30 7 51 95 100 100 98 5 5 5 5 37 70 99
100 100 100 100 100 100 100 99 82 68 10 6 5 5 5 5 5 15 5 5 4 3 68 94 16 5 5 6 5 5 100 100 100 100 100 56 22 7 93 100 100 100 88 99
100 100 100 100 100 100 100 92 86 24 31 32 5 7 17 5 5 5 5 9 58 98 100 97 44 23 13 10 76 35 8 82 46 69 100 64 6 97 81 100 67 68 19 99
99 84 97 100 100 100 100 100 46 14 13 27 5 5 5 5 4 1 5 60 84 8 80 57 76 60 29 9 92 38 38 97 90 75 18 48 49 66 99 100 84 99 100 98
100 100 100 100 100 100 100 91 40 10 100 5 8 3 6 8 8 6 18 66 5 6 16 18 58 47 9 40 87 68 87 100 63 96 100 100 100 100 95 43 94 100 100 100
100 100 100 100 100 100 95 100 98 100 100 100 100 100 100 100 82 61 10 7 5 5 50 100 100 100 94 95 76 100 100 100 94 62 79 52 100 76 78 100 100 100 100 100
100 100 100 100 100 100 100 100 100 100 100 100 100 100 100 100 100 73 5 11 6 100 100 100 100 97 88 100 100 100 100 96 85 61 86 100 95 100 100 100 100 100 100 100
100 100 100 100 100 100 100 100 100 100 100 100 100 100 100 100 100 100 72 100 41 76 100 100 100 99 100 100 100 100 100 100 100 100 87 100 100 99 100 100 100 100 100 100
100 100 100 100 100 100 100 100 100 100 100 100 100 100 100 100 100 100 100 94 100 100 100 100 100 100 100 100 100 100 100 100 100 100 100 100 100 100 100 98 53 47 98 100
100 100 100 100 100 100 100 100 100 100 100 100 100 100 100 100 100 100 100 100 100 100 100 100 100 100 100 100 100 100 100 100 100 100 100 100 86 82 82 97 92 57 64 85
100 100 100 100 100 100 100 100 100 100 100 100 100 100 100 100 100 100 100 100 100 100 100 100 100 100 100 97 100 100 100 100 92 54 36 75 99 100 99 97 100 86 56 65
100 100 100 100 100 100 100 100 100 100 100 100 100 100 100 100 100 100 100 100 100 100 100 74 100 100 100 100 99 100 84 92 97 100 100 100 100 100 99 100 38 5 14 14
100 100 100 100 100 100 100 100 100 100 100 100 100 100 100 100 100 100 100 100 100 96 36 93 99 100 82 50 78 66 78 97 100 98 95 100 92 95 24 33 90 77 36 13
100 100 100 100 100 100 100 100 100 100 82 99 99 100 100 100 100 100 100 100 100 97 88 93 83 7 16 86 99 96 98 63 56 52 38 80 84 71 94 73 41 16 5 0
100 100 100 100 100 100 58 76 99 100 100 100 100 100 100 100 100 100 100 98 85 85 98 94 99 92 99 89 99 72 11 5 54 82 100 98 66 16 6 5 4 0 4 5
100 100 100 100 100 100 100 100 100 100 100 100 100 100 100 100 100 100 100 99 100 100 90 46 79 90 100 99 95 56 68 46 55 5 5 5 4 0 0 5 5 5 5 5
100 100 100 100 100 100 100 100 100 100 100 100 100 100 100 100 100 100 100 100 100 92 56 62 98 100 98 69 17 5 5 5 5 3 5 5 3 5 5 5 5 5 5 57
100 100 100 100 100 100 100 100 100 100 100 100 100 100 100 100 100 100 100 100 100 76 86 87 73 62 45 10 4 2 1 5 5 5 5 3 5 5 5 5 5 5 5 46
100 100 100 100 100 100 100 100 100 100 100 100 100 100 100 100 100 99 100 94 30 7 5 35 5 3 0 0 0 4 5 5 5 0 0 0 5 5 6 10 5 5 62 100

GFSNW_prec_cloud_021.txt.gz
Cloud_Cover
100 100 100 100 100 100 87 35 59 35 29 59 6 5 5 0 0 0 0 0 0 0 0 0 0 0 0 0 0 0 0 0 0 0 0 0 0 5 5 5 5 5 25 44
100 100 100 100 100 100 100 92 54 45 22 37 18 9 5 5 2 0 0 0 0 0 0 0 0 0 0 0 0 0 0 0 0 0 0 0 0 0 5 5 9 59 72 53
100 100 100 100 100 100 99 78 26 17 64 68 44 15 5 5 0 0 0 0 0 2 5 3 0 0 0 0 0 2 0 0 0 0 0 5 1 4 5 5 54 18 17 95
100 100 100 100 100 100 100 98 9 9 48 49 11 5 5 4 0 0 0 0 0 0 2 5 5 5 4 1 0 2 5 4 3 5 5 5 5 4 5 5 5 17 7 55
100 100 100 100 100 100 100 100 78 59 33 55 7 5 5 5 1 0 0 0 0 0 0 0 3 5 5 2 1 0 1 4 5 5 5 5 5 0 5 4 4 5 5 6
100 100 100 100 100 100 100 100 100 67 51 52 9 10 5 5 5 2 1 5 5 5 5 0 0 0 1 5 5 5 5 5 29 89 27 5 29 2 5 5 5 5 5 5
100 100 100 100 100 100 100 100 100 99 53 31 5 5 5 5 5 5 5 5 5 5 5 1 2 0 0 0 3 5 94 57 84 92 20 7 99 0 4 5 5 22 14 63
100 100 100 100 100 100 100 100 100 89 83 36 6 5 5 5 5 5 5 5 5 5 0 5 5 5 5 5 17 2 5 93 80 92 94 7 25 5 4 5 52 99 98 99
100 100 100 100 100 100 100 100 100 100 86 76 25 5 25 15 5 5 5 5 5 5 5 5 5 5 5 5 5 56 12 6 18 96 100 79 5 5 5 5 5 28 100 35
100 100 100 100 100 100 100 100 100 100 42 84 63 57 22 5 22 30 5 5 5 5 77 76 5 5 5 5 5 5 100 99 100 100 100 27 5 13 53 94 100 100 100 100
100 100 100 100 100 100 100 100 100 100 100 97 67 52 34 43 74 33 51 68 12 98 100 97 97 14 5 26 13 5 28 15 91 98 99 57 9 91 100 99 100 83 100 100
100 100 100 100 100 100 100 100 100 100 100 97 92 42 64 63 7 5 5 30 24 6 79 57 75 98 70 39 27 86 97 27 85 98 35 20 98 100 52 86 59 81 98 100
100 100 100 100 100 100 100 100 100 100 100 100 93 52 42 7 5 5 5 5 7 57 5 12 45 29 10 60 75 29 100 66 73 96 96 13 35 47 47 75 100 100 100 100
100 100 100 100 100 100 100 100 100 100 100 100 66 30 5 5 5 6 20 96 100 100 52 100 100 100 96 100 98 62 83 69 87 27 67 72 100 100 100 100 100 100 100 100
100 100 100 100 100 100 91 61 62 29 30 88 88 5 54 89 83 97 100 100 100 100 100 100 100 67 100 100 78 97 100 70 64 86 74 99 100 100 100 100 100 100 100 93
100 100 100 100 100 100 100 99 100 100 73 99 100 92 100 100 100 100 100 100 63 96 100 100 100 100 100 100 100 100 71 98 100 98 100 100 100 100 100 100 100 100 98 99
100 100 100 100 100 100 100 100 100 100 100 100 100 100 100 100 100 100 99 100 100 88 100 100 100 100 100 100 100 100 90 100 100 90 100 94 100 100 99 92 26 46 100 99
100 100 100 100 100 100 100 100 100 100 100 100 100 100 96 100 100 100 100 100 100 100 100 100 100 100 100 100 100 100 100 99 100 100 100 100 100 69 88 86 94 14 96 100
100 100 100 100 100 100 100 100 100 100 100 100 100 100 100 100 100 100 100 100 100 100 100 100 100 100 100 100 100 100 100 100 100 100 100 100 100 100 100 91 99 95 71 47
100 100 100 100 100 100 100 100 100 100 100 100 100 100 100 100 100 100 100 100 100 100 100 100 100 100 100 100 100 100 100 100 100 76 90 28 9 5 17 79 46 10 4 0
100 100 100 100 100 100 100 100 100 100 100 100 100 100 100 100 100 100 100 100 100 100 80 100 94 100 94 99 100 100 100 98 92 89 27 5 5 5 5 5 5 2 0 2
100 100 100 100 100 100 100 100 100 100 100 100 100 100 100 100 100 100 100 100 100 87 81 97 71 75 73 100 100 100 97 79 96 56 8 5 5 12 8 0 0 1 2 5
100 100 100 100 100 100 100 77 90 97 96 96 97 100 100 100 100 100 98 100 100 90 95 55 85 90 100 100 100 70 86 65 5 54 15 5 5 5 3 4 4 5 5 5
100 100 100 100 100 100 100 100 100 100 100 100 100 100 100 100 99 99 99 96 93 98 87 72 78 92 97 60 60 100 18 24 100 32 5 5 7 5 5 5 5 5 5 5
100 100 100 100 100 100 100 100 100 100 100 100 100 100 98 100 100 94 77 99 89 64 85 41 54 97 100 100 99 22 100 87 9 5 19 7 5 5 5 5 5 5 5 5
100 100 100 100 100 100 100 100 100 100 100 100 100 100 100 100 100 90 98 100 100 68 31 70 88 100 100 81 72 100 90 9 10 40 5 5 5 4 5 5 5 5 5 6
100 100 100 100 100 100 100 100 100 100 100 100 100 100 100 100 100 100 100 100 100 100 100 100 100 100 100 100 81 96 77 60 21 5 5 5 0 5 5 7 5 5 11 64

GFSNW_prec_cloud_024.txt.gz
Cloud_Cover
100 100 100 100 100 99 72 73 5 5 6 26 9 5 5 7 5 0 0 0 0 0 0 0 0 0 0 0 0 0 0 0 0 0 0 0 0 0 0 5 6 5 5 30
100 100 100 100 100 94 29 43 60 71 36 37 21 15 23 11 5 5 5 1 1 0 0 0 0 0 0 0 0 0 0 2 5 5 3 1 0 0 0 5 1 5 58 23
100 100 100 100 100 90 60 87 76 74 53 48 73 70 25 5 5 5 5 0 0 0 0 0 0 0 0 0 0 0 0 0 0 0 3 1 0 0 5 5 5 18 18 36
100 100 100 100 100 100 97 100 77 50 46 88 82 16 7 31 26 41 5 0 0 0 0 0 0 0 0 0 0 0 4 4 4 4 5 5 5 3 1 5 4 68 5 5
100 100 100 100 100 100 100 100 16 82 8 66 100 77 11 69 62 9 5 4 0 0 0 0 0 0 0 0 0 0 0 5 7 5 5 5 5 2 5 5 5 5 5 6
100 100 100 100 100 100 100 100 100 100 60 12 63 98 64 38 14 5 5 5 5 18 1 5 5 5 3 0 1 1 1 2 6 64 7 11 11 5 5 5 5 5 5 17
100 100 100 100 100 100 100 100 100 100 100 80 49 32 40 19 6 8 36 39 5 5 5 5 5 5 5 5 5 4 32 44 72 78 70 79 4 3 5 5 5 5 5 9
100 100 100 100 100 100 100 100 100 100 100 100 99 69 51 10 27 23 54 84 59 5 5 8 100 25 13 32 52 5 5 54 97 97 48 60 4 5 6 5 51 5 5 5
100 100 100 100 100 100 100 100 100 100 100 100 100 98 81 70 43 38 22 48 5 5 5 44 96 10 5 5 11 21 20 13 35 98 48 65 5 5 31 48 89 84 50 52
100 100 100 100 100 100 100 100 100 100 100 100 100 100 100 88 60 10 5 6 5 5 100 100 99 91 24 56 29 72 91 100 99 100 98 17 25 12 12 59 71 66 70 92
100 100 100 100 100 100 100 100 100 100 100 100 100 100 100 99 55 27 11 35 13 86 100 99 98 100 86 41 60 7 32 83 83 81 100 78 57 100 92 98 89 98 90 100
99 80 100 100 100 100 100 100 100 100 100 100 100 100 100 100 35 71 28 5 7 6 59 92 94 99 90 100 6 5 15 6 30 12 7 98 98 17 80 72 59 70 100 100
96 32 99 100 100 100 100 100 100 100 100 100 99 95 100 100 98 71 26 42 10 5 5 6 65 100 100 100 41 26 56 10 21 18 93 97 98 26 23 68 90 100 100 100
94 13 62 100 100 100 100 100 100 100 100 100 98 100 100 100 100 99 89 44 17 5 6 99 100 100 100 73 36 57 62 89 76 70 20 70 100 77 88 100 100 100 100 85
100 93 100 100 93 100 100 100 100 100 80 87 100 57 100 100 100 72 34 7 5 93 100 100 100 100 68 68 48 92 100 97 100 95 99 100 100 99 100 100 100 100 86 100
100 100 100 100 100 100 100 100 100 100 98 97 100 76 60 83 27 32 26 34 68 100 58 100 43 47 64 100 100 100 100 100 100 96 100 100 100 100 100 92 100 100 92 64
100 100 100 100 100 100 100 34 99 100 86 100 100 98 88 100 100 100 100 100 100 98 99 100 92 88 98 100 100 100 100 100 100 100 90 100 100 98 72 73 52 15 55 94
100 100 100 100 100 96 99 100 100 100 100 100 100 100 100 100 100 100 100 100 100 96 100 100 98 94 100 100 100 100 95 99 100 100 100 99 34 69 94 53 5 5 5 5
100 100 100 100 100 100 100 100 100 100 100 100 100 100 100 100 100 100 100 100 100 97 100 100 100 100 100 100 100 100 100 100 100 76 89 96 100 94 8 5 5 5 28 5
100 100 100 100 100 100 100 100 100 100 100 100 100 100 100 100 100 100 100 100 100 100 100 100 100 100 94 100 100 100 100 100 100 79 96 36 13 5 5 5 22 5 5 5
100 100 100 100 100 100 100 100 100 100 100 100 100 100 100 100 100 100 100 100 100 100 100 100 100 82 100 100 99 98 100 100 96 84 22 5 4 1 5 5 5 5 5 5
100 100 100 100 100 100 100 100 100 100 100 100 100 100 100 100 100 100 100 100 100 100 60 100 100 68 91 93 100 100 100 81 55 5 5 5 5 5 5 5 5 5 26 47
100 100 100 100 100 100 100 100 100 100 100 92 100 100 100 100 100 100 100 100 100 52 100 68 75 95 100 100 100 91 51 8 5 5 6 6 5 5 5 5 8 16 8 5
100 100 100 100 100 100 100 100 96 97 100 100 100 100 100 100 100 100 100 100 100 100 99 67 97 92 66 79 50 86 13 5 5 5 14 6 23 23 58 42 63 5 5 5
100 100 100 100 100 100 100 100 100 100 100 100 100 100 100 100 100 100 100 100 100 80 85 27 46 72 78 77 61 5 5 20 68 35 69 98 80 38 100 100 64 5 5 5
100 100 100 100 100 100 100 100 100 100 100 100 100 100 100 100 100 100 100 100 100 89 48 14 20 81 88 20 5 36 46 62 78 100 96 53 60 100 74 14 5 5 15 70
100 100 100 100 100 100 100 100 100 100 100 100 100 100 100 100 100 100 100 100 42 5 49 98 100 100 90 84 100 100 100 100 100 78 46 98 100 7 6 19 5 6 54 100

GFSNW_prec_cloud_027.txt.gz
Cloud_Cover
100 100 100 100 100 100 100 100 86 75 76 12 5 5 5 5 1 0 0 0 0 0 0 5 5 2 0 0 0 0 0 0 0 0 1 4 0 0 0 5 5 23 4 70
100 100 100 100 100 100 100 95 95 61 10 8 6 5 5 8 5 5 1 0 1 5 5 3 0 0 0 0 0 0 0 0 0 0 0 1 0 3 4 1 5 5 5 4
100 100 100 100 100 100 96 66 77 82 5 28 13 33 68 75 46 31 4 5 4 0 0 0 0 0 0 0 0 0 5 5 5 5 4 0 0 0 5 5 5 20 7 94
100 100 100 100 100 100 92 72 63 46 17 13 66 98 79 52 46 10 5 5 5 0 0 0 0 0 0 0 0 0 0 0 0 0 2 1 0 4 5 5 20 96 17 99
100 100 100 100 100 100 100 45 8 69 34 5 58 59 62 51 40 50 51 38 15 5 0 5 2 0 0 0 0 2 2 4 0 0 0 0 0 0 5 5 5 100 94 100
100 100 100 100 100 100 100 48 88 55 7 8 10 24 83 61 51 40 65 33 19 5 5 5 2 0 0 0 2 4 0 1 3 21 7 5 10 0 1 5 95 100 100 100
100 100 100 100 100 100 100 15 86 66 25 30 5 5 6 44 47 6 33 80 82 35 5 5 5 5 4 5 2 0 5 2 46 68 72 50 5 17 33 82 78 81 89 98
100 100 100 100 100 100 100 95 97 99 100 100 88 41 26 13 55 82 94 83 52 22 9 10 17 25 76 51 5 5 4 58 56 78 5 5 5 24 5 7 5 27 39 76
100 100 100 100 100 100 100 100 100 100 100 100 100 100 99 73 68 54 54 60 39 18 5 39 95 24 5 82 12 5 5 54 14 97 58 52 5 75 29 56 100 91 90 89
100 100 100 100 100 100 100 100 98 100 100 100 100 100 100 60 81 100 79 50 44 58 100 100 99 9 5 5 31 72 85 98 100 100 98 13 6 5 5 49 82 62 35 49
100 100 100 100 100 100 100 100 95 97 100 99 95 98 100 100 100 100 100 100 100 45 100 94 62 97 9 19 51 10 32 61 78 77 97 68 10 48 90 79 39 53 100 62
100 100 100 100 100 100 100 100 100 100 100 100 100 86 82 100 100 100 100 100 100 100 63 96 90 96 90 50 95 20 20 7 49 75 21 100 100 100 85 99 95 21 53 48
100 100 100 100 100 100 100 100 100 100 100 100 100 100 100 100 100 100 92 28 66 34 21 17 66 100 41 98 37 76 55 59 75 77 47 100 100 100 61 62 99 57 100 98
100 100 100 100 100 100 100 100 100 100 100 100 100 90 100 100 100 100 94 97 76 97 35 99 100 100 6 27 26 100 100 90 33 76 85 63 32 66 99 100 91 57 94 99
100 100 100 100 100 100 100 100 100 100 100 92 100 100 100 100 100 100 100 100 96 100 99 100 80 12 19 61 67 100 100 50 27 73 90 99 100 100 100 100 34 77 98 97
100 100 100 100 100 100 100 100 100 100 100 100 100 100 100 100 100 100 100 100 100 97 88 88 20 71 60 100 76 100 96 93 5 7 42 93 100 100 91 60 99 100 64 5
100 100 100 100 100 89 42 91 97 100 100 100 94 42 44 76 100 100 100 100 100 100 97 95 100 100 94 100 93 97 46 68 30 66 99 95 100 59 34 91 70 30 6 11
100 100 100 100 100 100 68 72 65 61 72 89 100 86 98 100 100 97 100 100 100 100 100 100 100 70 98 100 98 40 67 72 82 100 90 88 57 9 86 68 93 100 91 46
100 100 100 100 100 100 100 100 100 97 87 100 100 100 98 97 100 100 100 100 100 100 100 100 100 100 96 100 100 100 95 100 100 100 100 8 26 48 81 87 100 93 29 5
100 100 100 100 100 100 100 100 100 100 100 100 100 100 100 100 100 100 100 100 100 100 100 100 100 100 90 100 100 97 77 100 100 100 99 84 100 100 81 99 19 33 6 5
100 100 100 100 100 100 100 100 100 100 100 100 95 100 100 100 100 100 100 100 100 100 82 100 100 76 100 100 100 81 100 100 100 100 92 100 100 78 5 5 5 5 6 5
100 100 100 100 100 100 100 100 100 100 100 100 100 100 100 100 100 100 100 100 100 99 90 100 100 96 100 100 97 97 92 96 84 10 15 8 21 7 5 5 5 5 5 5
100 100 100 100 100 100 100 100 100 100 100 100 100 100 100 100 100 100 100 100 100 98 100 90 100 100 79 77 68 90 88 58 5 5 5 5 5 5 5 5 5 27 5 6
100 100 100 100 100 100 100 100 100 100 100 100 100 100 100 100 100 100 100 100 99 100 99 99 99 100 92 78 99 100 67 5 6 5 5 5 5 5 91 71 10 16 53 97
100 100 100 100 100 100 100 100 100 100 100 100 100 100 100 100 100 100 100 100 100 92 95 100 100 100 100 100 96 50 9 66 54 25 5 37 54 100 66 48 66 99 46 31
100 100 100 100 100 100 100 100 100 100 100 100 100 100 100 100 100 100 100 100 100 100 100 100 100 100 100 82 21 61 97 90 69 16 79 100 90 53 92 100 100 74 88 85
100 100 100 100 100 100 100 100 100 100 100 100 100 100 100 100 100 100 100 100 100 100 100 100 100 89 65 56 64 99 100 100 98 100 100 76 99 100 100 80 6 65 80 80

GFSNW_prec_cloud_030.txt.gz
Cloud_Cover
100 100 100 100 95 100 100 100 100 100 100 100 77 98 75 99 21 5 0 0 0 4 2 5 2 0 0 0 0 0 0 0 0 0 0 0 0 0 2 3 2 0 36 86
100 100 100 100 100 100 100 100 100 100 84 84 89 54 69 79 11 5 1 0 0 0 5 0 2 0 0 0 0 0 0 0 0 0 1 0 0 0 0 0 2 0 34 3
100 100 100 100 100 100 100 100 100 100 69 94 72 11 72 75 15 5 4 1 0 3 2 5 1 0 0 0 0 0 0 3 5 5 4 3 4 5 5 4 5 16 7 28
100 100 100 100 100 100 100 100 100 43 93 79 56 6 59 47 7 5 5 5 5 5 5 4 4 1 0 0 0 0 0 0 0 0 0 0 0 0 0 0 4 75 33 96
100 100 100 100 100 100 100 100 95 10 56 70 73 20 46 5 11 5 5 5 8 5 5 5 5 2 0 0 0 0 0 0 0 0 0 0 0 0 0 3 5 70 99 18
100 100 100 85 100 100 100 95 13 10 70 50 64 27 32 29 5 5 5 5 14 28 5 5 5 2 0 0 1 3 0 0 0 0 2 5 0 5 4 5 62 80 82 92
100 100 100 100 100 100 100 100 57 54 37 62 15 56 64 36 18 6 6 15 33 39 21 29 42 5 5 5 5 5 3 0 46 17 40 5 0 5 5 5 9 54 52 91
100 100 100 100 100 100 100 100 99 58 98 47 70 28 77 14 15 96 40 37 32 25 5 5 19 53 26 23 37 5 5 3 34 75 5 5 0 17 6 5 4 40 82 54
100 100 100 100 100 100 100 100 100 100 100 56 41 92 24 33 12 5 8 10 7 56 63 43 45 13 5 39 11 5 5 20 4 35 39 4 0 7 26 5 5 11 58 57
100 100 100 100 100 100 100 100 100 53 51 82 100 100 100 100 100 100 100 99 64 94 100 100 100 73 87 35 15 78 34 93 85 95 96 13 0 5 5 5 21 11 17 14
100 100 100 100 100 100 100 100 100 100 84 26 49 39 61 34 58 46 67 69 100 100 100 100 100 100 100 100 94 10 12 48 83 80 91 30 10 32 83 56 32 53 83 77
100 100 100 100 100 100 100 100 100 100 100 97 68 100 100 100 100 100 100 100 100 100 100 100 100 100 81 80 42 5 5 7 7 7 5 5 99 85 51 20 87 100 94 94
100 100 100 100 100 100 100 100 100 100 99 100 100 100 98 100 100 100 100 100 100 100 100 100 100 100 95 100 100 100 87 61 4 5 5 10 87 54 72 78 100 82 99 97
100 100 100 100 100 100 100 100 100 100 100 100 100 100 100 100 100 100 100 100 100 100 100 100 100 100 96 100 100 93 100 86 24 20 5 61 55 34 8 88 100 96 78 85
100 100 100 100 100 100 100 100 100 100 88 99 100 100 100 100 99 97 100 95 98 100 100 100 100 94 98 40 76 100 100 100 100 7 11 5 26 22 94 100 100 86 56 14
100 100 100 100 100 99 88 96 95 100 80 99 100 100 88 100 100 100 100 100 100 100 100 100 100 100 100 100 90 100 100 100 98 5 5 10 48 75 62 35 34 37 95 100
100 100 100 100 100 100 97 100 100 100 100 100 100 95 100 100 100 100 100 100 100 100 100 100 100 100 9 100 95 100 100 100 26 12 9 40 96 96 76 97 69 63 100 84
100 100 100 100 100 100 100 100 100 100 100 100 100 100 100 100 100 100 100 100 97 98 79 99 99 34 91 100 100 100 100 85 11 73 11 84 100 100 100 96 79 43 5 8
100 100 100 100 100 99 100 100 100 100 100 100 100 100 100 100 100 100 100 100 100 88 100 100 79 100 100 100 100 100 86 12 24 94 100 100 100 96 100 72 5 22 42 44
100 100 100 100 100 100 100 100 100 100 100 100 100 100 99 100 100 100 100 100 100 100 100 100 100 100 100 100 100 79 8 93 100 100 100 100 89 55 99 92 29 59 30 5
100 100 100 100 100 100 100 100 100 100 100 100 100 100 100 100 100 100 100 100 100 100 69 100 100 98 99 100 100 100 100 100 100 100 81 98 92 100 91 47 64 6 5 5
100 100 100 100 100 100 100 100 100 100 100 100 100 100 100 100 100 100 100 100 100 100 85 100 96 100 100 100 100 100 100 97 82 93 100 100 100 93 99 75 12 5 5 5
100 100 100 100 100 100 100 100 100 100 100 100 100 100 100 100 100 100 100 100 100 100 100 99 97 87 93 100 100 100 78 72 62 82 82 99 100 83 73 39 49 60 76 74
100 100 100 100 100 100 100 100 100 100 100 100 100 100 100 100 100 100 100 100 100 100 100 88 99 100 100 100 100 87 85 99 79 70 99 95 88 99 85 96 100 95 99 94
100 100 100 100 100 100 100 100 100 100 100 100 100 100 100 100 100 100 100 100 100 100 100 100 100 100 100 100 100 99 66 31 97 78 68 94 100 100 100 100 100 100 79 57
100 100 100 100 100 100 100 100 100 100 100 100 100 100 100 100 100 100 100 100 100 100 100 100 100 100 100 100 99 99 100 100 100 100 100 100 100 100 100 100 75 44 71 100
100 100 100 100 100 100 100 100 100 100 100 100 100 100 100 100 100 100 100 100 100 100 100 100 100 100 100 100 100 100 100 100 100 100 100 100 100 97 68 40 56 97 100 100

GFSNW_prec_cloud_033.txt.gz
Cloud_Cover
100 100 100 100 100 100 100 100 100 5 80 99 100 86 17 36 17 5 5 5 0 7 5 12 4 0 2 0 0 0 0 0 0 0 0 0 0 0 5 5 3 0 4 1
100 100 100 100 100 100 100 99 27 100 100 100 100 77 56 34 12 5 5 5 0 0 0 1 0 5 3 0 0 0 0 0 0 0 0 0 0 0 0 0 0 5 4 0
100 100 100 100 100 100 74 100 100 100 100 100 100 92 71 72 5 5 5 5 0 0 0 0 0 5 0 0 0 0 0 0 0 0 0 0 0 0 0 0 0 0 1 5
100 100 100 100 100 31 100 100 100 100 100 100 97 55 70 56 27 6 5 5 0 0 0 3 5 0 0 0 0 0 0 0 0 0 0 0 0 0 0 0 0 0 0 77
100 100 100 100 100 100 100 100 100 100 100 84 85 57 35 16 48 6 5 5 2 2 5 5 4 2 0 0 0 0 0 0 0 0 0 0 0 0 0 0 0 0 4 68
100 100 100 100 100 100 100 100 100 100 100 100 100 35 6 37 15 18 5 5 5 5 6 6 5 5 5 5 5 1 2 5 8 5 6 1 0 5 4 3 0 1 5 5
100 100 100 100 100 100 100 100 100 100 87 100 100 6 5 41 45 72 74 21 5 5 10 5 5 5 5 5 8 10 5 5 72 9 29 5 0 5 5 5 1 2 4 5
100 100 100 100 100 100 88 100 100 46 97 11 17 11 5 68 33 100 6 5 31 97 42 15 14 5 6 42 6 16 5 12 35 32 10 5 5 5 43 15 5 0 0 1
100 100 100 100 100 100 84 100 100 60 71 34 69 6 56 21 36 6 16 42 49 83 27 15 28 85 99 100 100 100 100 99 41 7 6 5 1 6 5 5 4 5 5 5
100 100 100 100 100 100 100 100 100 79 52 19 24 26 21 5 29 61 56 39 83 42 93 100 33 100 94 84 100 100 98 64 9 26 6 5 0 1 4 3 3 5 5 5
100 100 100 100 100 100 100 100 100 100 100 100 100 100 5 6 55 84 93 96 100 94 42 45 100 91 92 100 100 100 100 99 100 50 41 52 5 5 5 5 5 5 5 35
100 100 100 100 100 100 100 100 100 100 100 100 100 89 32 53 99 96 13 40 34 89 100 92 93 97 100 100 100 100 100 100 100 100 96 8 5 5 32 33 5 19 8 73
100 100 100 100 100 100 100 100 100 100 100 100 100 100 96 33 98 100 100 100 100 100 100 100 100 100 100 100 100 100 100 100 100 57 71 6 4 5 5 5 9 84 19 80
100 100 100 100 100 100 100 100 100 100 100 100 100 100 100 41 58 100 100 100 100 100 100 100 100 100 99 100 100 100 100 100 97 13 62 5 5 5 5 5 52 24 5 10
100 100 100 100 85 100 100 100 100 100 100 100 100 100 100 100 100 100 100 100 100 100 100 100 100 92 100 100 100 100 100 100 97 100 100 9 32 77 83 18 82 45 16 35
100 100 100 100 100 79 90 100 99 100 100 100 100 100 100 100 100 100 100 100 100 100 100 95 100 100 100 100 100 100 100 100 100 100 6 65 100 100 37 59 100 78 99 80
100 100 100 100 100 100 100 89 80 82 65 87 100 99 100 100 100 100 100 100 100 100 100 100 100 100 99 100 100 100 100 100 100 100 100 100 100 96 66 98 81 82 92 86
100 100 100 100 100 100 100 100 100 100 71 81 98 100 100 100 100 100 100 100 100 100 99 100 100 100 100 100 100 100 100 100 100 100 100 97 100 98 76 88 100 100 97 95
100 100 100 100 100 92 100 100 100 100 47 100 95 100 100 100 100 100 100 100 100 100 100 100 61 100 100 100 100 100 100 100 100 94 99 100 100 98 100 100 100 100 99 54
100 100 100 100 100 100 100 100 100 100 100 100 100 100 100 100 100 100 100 100 100 100 100 97 100 100 98 100 100 100 99 93 100 100 100 100 100 98 100 100 100 83 50 7
100 100 100 100 100 100 100 100 100 100 100 100 100 100 100 100 100 100 100 100 100 100 100 100 86 99 100 100 100 100 96 100 100 100 100 100 100 100 100 100 88 37 53 92
100 100 100 100 100 100 100 100 100 100 99 100 100 100 100 100 100 100 100 100 100 100 81 100 100 99 100 100 100 100 100 100 100 100 100 100 80 63 59 40 40 66 62 52
100 100 100 100 100 100 100 100 100 100 100 100 100 100 100 100 100 100 100 100 100 100 100 81 78 100 97 95 100 100 100 96 98 100 100 100 100 94 81 83 99 98 67 61
100 100 100 100 100 100 100 100 100 100 100 100 100 100 100 100 100 100 100 100 100 100 100 88 100 100 100 100 100 100 100 100 100 100 100 100 100 100 100 100 86 44 81 100
100 100 100 100 100 100 100 100 100 100 100 100 100 100 100 100 100 100 100 100 100 100 100 100 100 100 100 100 100 100 100 100 100 100 98 100 97 84 96 100 100 99 100 96
100 100 100 100 100 100 100 100 100 100 100 100 100 100 100 100 100 100 100 100 100 100 100 100 100 100 100 100 100 100 95 89 75 74 79 94 92 93 100 100 100 100 100 100
100 100 100 100 100 100 100 100 100 100 100 100 100 100 100 100 100 100 100 100 100 100 100 100 100 100 100 100 100 100 100 100 99 100 100 100 100 100 100 100 100 100 100 100

GFSNW_prec_cloud_036.txt.gz
Cloud_Cover
100 100 100 100 100 100 100 100 100 100 46 100 100 100 67 58 61 10 6 5 5 5 5 2 0 0 0 0 0 0 0 0 0 0 0 0 0 0 0 0 0 0 0 1
100 100 100 100 100 70 100 100 100 100 100 100 100 99 41 78 5 5 5 5 5 5 5 0 0 0 0 3 5 4 0 0 0 0 0 0 0 0 0 0 0 0 2 0
100 100 100 100 100 100 99 100 100 100 100 46 61 72 49 55 43 5 5 5 5 5 0 0 0 0 0 0 1 4 5 1 0 0 0 0 0 0 0 0 0 0 0 0
100 100 100 100 100 100 90 100 100 97 59 100 100 100 69 64 11 5 5 5 15 5 2 0 0 0 0 0 0 0 0 0 0 0 0 5 5 0 0 0 0 0 0 0
100 100 100 100 100 100 100 100 100 81 90 57 84 67 43 44 40 5 5 38 90 6 2 0 0 1 5 5 5 5 5 2 2 0 0 4 0 0 0 0 0 0 0 0
100 100 100 100 100 100 100 100 100 78 62 100 84 69 5 72 31 78 100 93 5 5 5 5 5 5 5 10 7 24 7 22 6 5 6 5 5 5 0 0 0 0 0 0
100 100 100 100 100 100 100 100 100 100 100 100 100 70 19 52 93 73 95 20 5 35 73 5 5 6 22 61 81 42 13 45 57 47 14 5 6 24 5 5 5 5 2 0
100 100 90 97 100 99 100 100 100 100 100 96 92 31 100 69 73 32 5 6 62 78 6 5 64 64 84 26 72 54 86 99 99 95 8 33 57 43 8 5 15 5 5 5
100 100 81 84 100 100 100 100 100 100 43 74 91 100 100 74 5 35 5 83 99 70 14 93 90 61 58 73 100 98 76 38 35 90 5 35 98 99 9 5 62 54 82 5
100 100 100 100 100 100 100 100 100 100 90 99 79 69 100 14 11 49 5 42 75 45 82 100 54 5 20 72 100 76 87 98 100 100 93 100 11 5 5 25 66 94 8 5
100 100 100 100 99 100 100 100 100 100 99 66 78 94 89 55 12 8 5 40 88 73 91 53 86 60 9 100 61 97 100 100 100 98 97 18 29 8 6 50 100 99 39 96
100 100 100 100 100 100 100 100 100 100 100 86 83 92 99 100 100 80 5 30 6 6 42 82 82 97 90 52 83 100 100 100 100 100 100 100 100 60 46 15 100 97 100 75
100 100 100 100 100 100 100 100 100 100 100 100 93 99 100 100 100 68 11 49 28 82 65 78 92 92 100 100 100 100 100 100 100 36 78 100 17 15 39 100 59 92 99 100
100 100 100 100 100 100 100 100 100 100 100 100 100 100 100 100 100 100 79 62 79 100 100 100 100 100 100 100 100 100 100 49 10 5 18 5 5 5 10 44 88 100 100 86
100 100 100 100 100 100 100 100 100 100 100 100 100 100 100 100 100 100 100 100 99 100 100 100 100 100 100 100 100 100 100 79 6 39 85 5 15 37 98 99 100 100 99 94
100 100 100 100 100 100 100 100 100 100 100 100 100 100 100 100 100 100 100 100 100 100 100 100 100 100 100 100 100 100 100 71 100 100 100 100 100 100 100 100 100 100 78 83
100 100 100 100 99 57 52 99 100 100 100 100 100 100 100 100 100 100 100 100 100 100 100 100 100 100 89 100 100 100 100 100 100 100 100 100 100 100 100 100 91 90 96 58
100 100 100 100 100 97 46 99 77 63 44 48 87 93 100 100 100 100 100 100 100 100 99 99 100 99 98 100 100 100 100 100 100 100 96 87 78 100 100 99 100 97 64 56
100 100 100 100 100 100 100 100 100 47 5 100 100 100 100 100 100 100 100 100 100 95 100 100 43 99 79 100 100 100 100 100 100 100 98 77 100 100 100 100 100 100 96 91
100 100 100 100 100 100 100 100 100 100 100 100 100 100 100 100 100 100 100 100 100 94 19 93 100 100 100 100 100 100 100 89 68 100 100 100 100 100 100 100 99 100 100 76
90 100 100 100 100 100 100 98 96 97 100 100 100 100 100 100 100 100 100 100 99 99 21 75 79 100 100 100 100 79 98 100 100 100 100 100 100 100 100 100 100 90 66 36
100 100 100 100 99 100 100 100 100 100 100 100 100 100 100 100 100 100 100 100 100 100 100 100 100 100 100 100 100 100 100 100 100 100 100 100 100 100 100 95 79 81 79 61
100 100 100 100 100 100 100 100 100 100 100 100 100 100 100 100 100 100 100 100 100 100 100 100 100 100 100 100 100 100 100 100 100 98 99 100 98 100 100 100 100 100 88 86
100 100 100 100 100 100 100 100 100 100 100 100 100 100 100 100 100 100 100 100 100 100 100 98 100 100 100 100 100 100 100 100 100 100 100 100 100 100 100 94 100 100 100 100
100 100 100 100 100 100 100 100 100 100 100 100 100 100 100 100 100 100 100 100 100 100 100 100 100 100 100 100 100 100 100 100 100 100 100 100 100 100 100 100 100 100 100 100
100 100 100 100 100 100 100 100 100 100 100 100 100 100 100 100 100 100 100 100 100 100 100 100 100 100 100 100 100 100 100 100 100 100 90 91 99 100 100 100 100 100 97 100
100 100 100 100 100 100 100 100 100 100 100 100 100 100 100 100 100 100 100 100 100 100 100 100 100 100 100 100 100 100 100 100 100 99 90 96 99 100 100 100 100 100 100 100

GFSNW_prec_cloud_039.txt.gz
Cloud_Cover
100 100 100 100 100 100 52 37 71 100 100 100 100 100 100 42 5 9 74 54 72 52 87 60 6 2 0 0 0 0 5 2 0 0 0 0 0 0 0 0 0 0 4 1
100 100 100 100 100 100 82 100 100 100 100 100 100 88 13 20 8 76 60 85 65 90 61 5 2 0 0 1 5 0 0 0 0 0 0 0 0 0 0 0 0 0 1 0
100 100 100 100 100 100 100 100 100 100 100 100 100 100 79 8 73 73 100 85 53 66 27 5 0 0 0 1 4 2 0 1 5 0 2 0 0 0 0 0 0 0 0 0
100 100 100 100 100 100 96 100 100 100 100 100 100 100 100 42 87 100 98 49 68 58 35 5 0 0 0 0 0 0 1 5 2 0 0 0 0 0 0 0 0 0 4 2
100 100 100 100 100 100 100 100 100 100 100 100 100 100 100 57 62 100 95 74 49 14 5 16 6 5 4 0 0 0 4 5 5 5 5 5 5 0 3 5 5 5 5 5
100 100 100 100 100 100 100 100 100 100 100 100 100 71 7 76 71 100 90 16 5 5 22 81 33 5 5 5 5 9 18 28 23 10 8 63 79 7 5 5 5 5 5 5
100 100 100 100 100 100 100 100 64 72 100 92 92 41 86 91 75 100 94 6 5 72 86 51 15 74 19 5 5 68 39 32 44 63 25 98 83 36 5 22 82 5 5 10
100 100 100 100 100 100 100 100 100 100 100 94 7 11 69 26 91 65 31 5 45 67 76 39 58 72 60 32 82 37 10 28 40 100 82 7 100 70 20 11 100 45 76 98
100 100 100 100 100 100 100 100 100 100 100 55 26 71 100 97 38 72 67 32 38 68 37 12 39 56 85 98 92 23 32 99 77 84 6 87 100 6 72 36 98 100 100 100
100 100 100 100 100 100 100 100 100 100 100 98 99 100 100 90 8 29 40 73 19 68 58 97 89 73 73 91 6 54 10 28 70 93 54 100 99 9 6 5 5 50 100 100
100 100 100 100 100 100 100 97 100 100 96 26 96 100 100 100 21 82 21 55 98 26 75 90 79 58 100 100 99 98 46 50 76 95 100 100 100 83 43 10 5 63 81 46
100 100 100 100 100 100 100 100 100 100 100 96 91 100 100 100 58 71 79 90 6 6 5 40 23 97 100 76 94 80 5 78 100 100 100 100 98 9 23 5 27 100 100 99
100 100 100 100 100 100 100 100 100 100 100 97 89 100 100 100 96 68 100 100 94 92 55 44 45 35 38 68 96 86 69 100 100 78 100 100 7 23 5 14 50 93 100 100
100 100 100 100 100 100 100 100 100 100 100 100 100 100 100 100 100 100 100 100 100 100 89 74 88 38 98 100 96 100 98 100 95 75 88 10 27 8 55 75 98 100 100 75
100 100 100 100 100 100 100 100 100 100 100 100 100 100 100 100 100 100 100 100 100 100 100 100 100 100 100 93 98 100 100 90 5 58 91 12 26 79 76 48 46 63 69 93
100 100 100 100 100 100 100 100 100 100 100 100 100 100 100 100 100 100 100 100 100 100 100 100 100 100 100 100 100 100 100 72 51 15 5 19 100 72 93 77 100 100 100 100
100 100 100 100 100 100 100 100 100 100 100 100 100 100 100 100 100 100 100 100 100 100 100 100 100 100 97 100 100 100 100 100 100 100 99 100 100 100 100 100 100 100 100 100
100 100 100 100 100 100 100 100 100 100 100 80 99 100 100 100 100 100 100 100 100 100 100 100 100 99 100 100 100 100 100 100 100 71 100 100 100 100 100 100 100 100 100 100
100 100 100 100 100 100 100 100 100 100 73 60 95 100 100 100 100 100 100 100 100 98 100 100 56 100 100 100 100 69 71 99 100 100 100 100 100 100 100 100 100 100 100 100
100 100 100 100 100 100 100 59 52 100 98 100 100 100 100 100 100 100 100 100 68 61 23 98 100 100 100 93 79 100 100 89 97 100 100 100 100 100 100 100 100 100 100 100
100 100 100 100 100 100 82 88 63 90 75 100 97 100 100 100 100 100 89 98 87 94 11 80 66 100 100 100 100 100 100 100 100 100 100 100 100 100 100 99 100 100 100 100
100 100 100 100 89 98 94 100 100 100 100 100 100 100 100 100 100 100 100 100 98 83 92 100 100 98 100 100 100 100 100 100 100 100 100 100 100 100 100 100 100 100 100 100
100 100 99 66 71 92 98 100 100 100 100 100 100 100 100 86 100 100 100 100 100 95 100 100 100 100 100 100 100 100 100 100 100 100 100 100 100 100 100 100 100 100 100 100
100 100 100 100 100 100 100 100 100 100 100 100 100 100 100 100 100 100 100 100 100 100 100 100 100 100 100 100 100 100 100 100 100 100 100 100 100 100 100 100 100 100 100 100
100 100 100 100 100 100 100 100 100 100 100 100 100 100 100 100 100 100 100 100 100 100 100 100 100 100 100 100 98 100 100 99 100 100 100 100 100 100 100 100 100 100 100 100
100 100 100 100 100 100 100 100 100 100 100 100 100 100 100 100 100 100 100 100 100 100 100 100 100 100 76 92 99 100 100 100 100 100 100 100 100 100 100 100 100 100 100 100
100 100 100 100 100 100 100 100 100 100 100 100 100 89 100 90 100 99 100 95 86 99 100 100 100 100 100 100 100 100 99 100 100 100 100 100 100 100 100 100 100 100 100 100

GFSNW_prec_cloud_045.txt.gz
Cloud_Cover
100 100 100 100 100 100 92 0 0 0 0 10 5 13 100 100 100 100 77 35 5 66 5 5 5 44 5 5 4 0 0 0 0 0 0 0 0 0 0 0 0 1 0 0
100 100 97 100 100 64 4 0 3 8 1 1 40 87 100 100 100 79 64 14 29 11 5 12 13 5 5 5 5 0 0 0 0 0 0 0 0 0 0 0 0 0 1 1
100 100 100 100 100 32 0 0 2 59 61 5 100 100 100 100 100 73 5 9 27 5 5 5 5 5 5 5 2 0 0 0 0 0 0 0 0 0 0 0 0 0 4 5
100 100 100 100 100 86 12 0 7 92 14 5 100 100 100 100 100 29 2 84 5 8 5 5 5 5 5 3 0 0 0 0 0 0 3 2 0 0 0 0 0 5 5 5
100 100 100 100 100 82 5 10 100 99 100 99 100 100 100 100 32 73 47 31 5 5 5 5 5 5 5 5 4 0 3 5 0 1 5 5 6 1 3 5 5 5 79 65
100 100 100 100 100 1 14 100 100 100 100 100 100 100 100 100 100 100 39 5 58 5 45 21 34 23 5 5 5 5 5 0 5 5 5 25 100 2 5 5 5 19 76 5
100 100 100 100 64 4 100 100 100 100 100 100 100 100 100 100 100 100 16 5 14 56 76 69 25 26 5 5 5 5 5 5 5 28 5 82 100 64 3 5 5 73 8 5
100 100 100 100 38 100 100 100 100 100 100 100 100 100 100 100 87 95 31 6 69 80 98 94 26 22 5 5 5 5 5 5 10 82 19 53 100 99 5 0 22 5 5 27
100 100 100 100 100 100 100 100 100 100 100 100 100 100 100 100 100 100 55 76 15 95 100 80 59 13 5 5 5 5 5 5 5 65 36 83 100 98 5 5 41 76 100 100
100 100 100 100 100 100 100 100 100 100 100 100 100 100 100 100 100 100 12 14 74 96 95 100 54 8 7 13 5 39 14 41 22 45 81 89 22 9 5 26 63 100 100 100
100 100 100 100 100 100 100 100 100 100 100 100 100 100 100 100 100 100 22 5 13 80 100 99 25 61 62 48 5 5 5 27 60 98 75 15 15 25 89 71 83 100 100 100
100 100 100 100 100 100 100 100 100 100 100 100 100 100 100 100 100 48 24 45 86 91 42 60 76 69 65 53 97 5 17 6 81 28 27 5 21 61 54 20 97 100 100 100
100 100 100 100 100 100 100 100 100 100 100 100 100 100 100 100 100 7 49 100 100 47 42 36 65 95 84 49 59 21 17 43 24 5 5 5 5 5 51 100 100 100 100 73
100 100 100 100 100 100 100 100 100 100 100 100 100 100 100 100 97 24 87 100 100 80 62 94 96 79 99 92 5 29 86 33 5 42 84 98 100 100 100 100 100 100 94 62
100 100 100 100 100 100 100 100 100 100 100 100 100 100 100 100 100 98 100 100 100 100 100 100 99 100 100 100 100 100 100 100 100 100 100 100 100 100 100 100 83 37 44 58
100 100 100 100 100 100 100 100 100 100 100 100 100 100 100 100 100 100 100 100 100 100 100 100 100 100 100 100 100 100 100 100 100 100 86 59 45 36 68 38 21 40 72 100
100 100 100 100 100 100 100 100 100 100 100 100 100 100 100 100 100 100 100 84 80 90 100 100 100 100 98 100 100 100 100 86 52 30 42 66 36 13 59 35 26 92 100 84
100 100 100 100 100 100 100 100 100 100 100 100 100 100 100 100 100 100 100 100 100 100 100 100 96 100 100 100 100 100 100 100 95 74 40 24 21 53 89 100 100 100 100 100
100 100 100 100 100 100 100 100 100 100 100 100 100 100 100 100 100 100 100 100 100 100 100 100 100 100 100 100 100 100 100 100 100 66 68 93 93 100 100 100 100 100 100 100
100 100 100 100 100 100 100 100 100 100 100 100 100 100 100 100 100 100 100 100 100 64 82 100 100 100 100 100 100 100 77 52 59 100 98 100 100 100 100 100 100 100 100 100
100 100 100 100 100 100 100 100 100 100 100 100 100 100 100 100 100 100 100 100 89 43 45 97 95 99 100 100 100 100 99 96 100 100 100 100 100 100 100 100 100 100 100 100
100 100 100 96 100 89 94 99 100 100 100 100 100 100 100 100 100 100 88 81 83 52 98 100 99 100 100 100 100 100 100 100 100 100 100 100 100 100 100 100 100 100 100 100
100 100 100 84 86 99 90 64 100 100 100 100 100 100 100 98 98 99 100 97 82 92 94 86 100 100 100 100 100 100 100 100 100 100 100 100 100 100 100 100 100 100 100 85
100 100 100 94 98 84 100 100 100 100 100 100 100 100 100 100 100 100 100 100 100 100 100 100 100 100 100 100 100 100 100 100 100 100 100 100 100 99 85 80 87 100 100 100
100 94 82 87 100 100 100 100 100 100 100 100 100 100 100 100 100 100 100 100 92 98 100 99 100 100 100 100 100 100 100 100 100 100 100 100 100 94 75 77 88 100 100 100
100 94 100 100 100 100 100 100 100 100 100 100 100 100 100 100 100 100 100 100 100 74 92 100 100 100 100 98 96 94 100 100 99 100 85 74 60 86 100 100 100 100 100 99
100 100 100 100 100 100 100 100 100 100 100 100 100 100 100 100 100 100 100 100 100 100 100 100 100 100 100 96 86 100 98 99 98 99 99 99 100 100 100 100 65 58 8 55

GFSNW_prec_cloud_048.txt.gz
Cloud_Cover
100 100 100 100 99 96 100 30 94 100 99 67 73 5 0 0 2 99 100 100 100 100 93 2 1 4 5 4 5 4 5 2 0 0 0 0 0 0 0 0 0 0 0 0
100 100 100 100 100 100 100 100 100 100 100 100 18 89 0 0 50 100 100 100 100 76 7 6 17 5 4 4 2 4 0 0 0 0 0 0 0 0 0 0 0 0 25 0
100 100 100 100 100 100 100 100 100 100 11 43 7 6 0 0 85 100 100 100 45 79 7 24 43 5 5 5 5 5 3 0 0 0 3 1 0 0 0 0 0 0 0 3
100 100 100 100 100 100 100 97 80 97 65 0 4 10 0 20 100 100 100 87 72 5 5 9 45 6 58 6 5 5 0 0 0 5 5 2 5 0 0 0 0 2 2 5
100 100 100 100 100 100 89 4 4 0 1 5 86 19 0 87 100 100 100 49 27 5 5 58 83 68 19 5 5 0 0 0 5 5 5 5 5 5 0 0 0 0 4 4
100 100 100 100 100 65 60 4 72 0 64 90 84 20 46 100 100 100 89 23 13 5 63 52 47 11 5 5 5 0 0 2 5 5 5 5 55 1 0 0 0 0 3 5
100 100 100 100 100 67 100 99 12 4 3 100 100 88 100 100 100 100 58 98 10 63 58 58 20 5 5 5 5 2 3 5 5 5 5 41 22 4 0 4 5 0 5 5
100 100 100 100 100 100 100 96 89 11 98 100 100 100 100 100 100 100 28 5 5 83 26 36 30 12 10 5 5 5 5 5 7 62 5 85 76 10 5 5 5 5 5 5
100 100 100 100 100 100 100 95 42 6 99 100 100 100 100 100 100 100 78 6 47 76 64 47 10 5 5 5 5 5 5 5 6 7 67 23 46 5 5 5 6 56 8 5
100 100 100 100 100 100 94 29 81 100 100 100 100 100 92 92 99 92 100 72 15 62 97 100 79 7 5 5 5 72 34 44 41 46 81 5 5 5 7 23 64 48 32 74
100 100 100 100 100 94 73 85 100 100 100 100 100 100 83 98 57 93 100 81 95 99 75 100 35 65 8 12 5 7 21 17 72 38 96 35 5 5 52 46 38 10 16 29
100 100 100 100 100 8 100 100 100 100 100 100 100 100 100 100 36 66 98 93 22 98 100 94 29 99 76 10 50 15 5 14 7 5 5 5 8 82 57 47 53 62 91 99
100 100 100 100 73 100 100 100 100 100 100 100 100 95 100 100 93 71 100 100 93 100 77 34 92 100 54 87 82 12 33 19 6 5 16 5 5 5 5 5 5 100 100 100
100 100 100 85 97 100 100 100 100 100 100 100 100 100 100 100 100 100 100 100 100 99 19 88 92 100 100 87 47 82 9 10 5 78 22 5 5 5 7 31 96 100 62 5
98 60 40 93 100 100 100 100 100 100 100 100 100 100 100 100 100 100 100 100 100 85 58 100 99 100 100 86 82 100 94 100 96 99 100 98 100 100 100 100 55 6 13 26
100 88 80 100 100 100 100 100 100 100 100 100 100 100 100 100 100 100 100 100 100 64 73 100 100 100 100 100 100 100 100 100 100 100 100 95 66 11 36 49 71 71 42 87
64 74 100 100 100 100 100 100 100 100 100 100 100 100 100 87 100 100 100 100 97 64 94 100 100 100 100 100 100 100 100 100 84 17 6 30 98 95 70 77 17 71 85 100
100 100 100 100 100 100 100 100 100 100 100 100 100 100 100 96 97 94 100 100 100 100 100 100 100 100 96 100 100 100 100 99 84 84 100 59 12 47 82 98 100 100 100 100
100 100 100 100 100 100 100 100 100 100 100 86 100 100 100 100 100 93 87 100 100 100 100 100 98 100 100 100 100 100 100 100 99 68 18 89 100 88 100 100 100 100 100 100
100 100 100 100 100 100 100 100 100 100 99 100 100 100 100 100 100 97 64 100 100 100 98 100 100 100 100 100 100 100 67 72 86 100 100 100 100 98 100 100 100 100 100 100
100 100 100 100 100 100 100 100 100 100 100 100 100 100 100 100 100 100 100 100 94 100 100 100 100 100 100 100 100 100 90 95 100 100 100 100 100 100 96 99 100 100 100 100
100 100 100 100 100 100 100 100 100 100 100 100 100 100 100 100 100 100 100 100 80 98 100 100 100 100 100 100 100 100 100 100 99 100 100 99 88 97 100 100 100 100 100 100
100 100 100 100 100 100 100 100 100 100 100 100 100 100 100 100 100 100 100 100 100 99 95 100 100 100 100 100 100 97 100 100 100 100 100 100 100 100 100 100 100 100 100 100
100 100 100 100 100 100 100 100 100 100 100 100 100 100 100 100 90 100 100 100 100 100 97 100 100 100 100 100 100 100 100 100 100 100 100 100 100 100 100 100 100 84 77 58
100 100 100 100 100 100 100 100 100 100 100 100 100 100 94 100 100 100 100 100 100 100 100 100 100 100 100 100 100 100 100 100 100 100 100 100 100 99 85 30 5 17 56 53
100 98 100 100 100 100 100 100 100 100 100 100 100 100 100 100 98 93 99 88 87 100 98 100 100 100 100 100 100 100 100 100 100 100 100 95 56 61 64 42 22 5 5 5
100 100 100 100 100 100 100 100 100 100 100 100 100 100 99 89 99 100 100 100 89 100 100 100 100 100 100 100 100 100 100 100 100 80 82 99 99 59 5 5 5 4 5 5

GFSNW_prec_cloud_051.txt.gz
Cloud_Cover
8 11 100 100 100 100 100 100 100 100 100 100 77 74 99 58 5 0 0 0 26 15 10 100 100 100 86 6 3 0 1 5 5 5 5 5 5 1 0 0 0 0 0 0
100 44 29 100 100 100 100 100 100 100 100 76 89 100 73 72 5 0 0 0 14 99 79 100 100 100 43 5 4 5 5 4 5 5 1 0 0 0 0 0 0 0 19 0
100 100 100 100 100 100 100 100 100 100 96 100 100 99 100 79 1 1 5 2 42 63 100 100 100 35 5 5 41 5 5 5 5 5 60 39 2 1 0 0 0 0 0 0
76 100 100 100 100 100 100 99 100 45 69 100 100 100 82 31 5 4 0 5 86 100 100 100 50 13 37 39 7 56 5 5 5 1 1 1 1 2 0 0 0 5 0 0
20 69 100 100 100 100 100 100 100 81 99 100 100 96 100 44 3 1 1 39 100 100 100 97 22 14 5 31 25 69 18 5 5 0 0 5 0 5 0 0 0 5 0 0
4 56 98 100 100 100 100 100 100 95 100 100 97 76 94 38 5 2 26 68 100 100 75 75 39 55 9 60 59 65 5 5 5 0 0 5 5 0 0 1 5 5 5 5
3 81 100 100 100 100 100 100 100 100 88 100 100 100 95 5 5 64 13 100 99 100 100 71 33 62 56 44 68 8 5 5 3 1 1 47 7 1 1 5 5 5 5 5
51 100 100 100 100 100 72 68 100 100 100 100 100 57 8 6 6 88 58 100 100 100 97 87 53 64 79 44 65 10 5 5 4 69 5 33 6 5 5 14 6 10 5 5
37 100 100 100 100 100 98 84 57 100 100 100 100 69 94 13 5 55 100 100 100 100 74 61 33 62 72 72 14 5 5 5 5 6 67 76 6 5 5 5 5 16 5 5
100 100 100 100 100 100 100 100 60 100 17 82 53 68 16 100 76 100 100 100 100 100 97 100 76 45 92 59 45 72 25 43 39 6 78 5 6 7 5 5 5 5 5 5
100 100 100 100 100 100 61 98 100 100 93 3 65 100 100 100 100 98 100 100 100 100 100 100 48 67 97 45 26 7 12 8 72 37 96 63 17 27 76 37 5 5 5 5
100 100 100 100 100 100 99 95 100 100 100 54 5 96 94 100 100 100 100 100 100 97 33 94 28 99 68 63 46 5 5 7 5 11 5 7 51 33 40 14 5 12 9 21
100 100 100 100 100 100 76 100 100 100 100 9 43 93 100 100 100 100 100 100 100 95 98 88 16 100 9 79 61 5 5 5 5 5 5 15 71 64 61 77 94 86 100 98
100 100 100 100 100 100 100 100 100 100 70 83 99 100 100 100 100 100 100 100 100 100 100 94 68 88 6 5 10 13 10 5 5 47 17 13 38 87 42 85 100 100 100 100
100 100 100 100 100 100 100 100 100 100 86 100 100 100 100 100 100 100 98 70 42 100 100 100 78 14 47 52 25 56 26 25 27 92 100 97 100 100 100 100 93 27 54 87
100 100 100 100 100 100 100 100 100 100 100 100 100 97 100 100 100 100 100 99 99 100 100 100 87 100 62 84 100 100 98 94 100 100 100 100 100 100 35 8 36 98 100 96
100 100 100 100 100 100 100 100 100 100 100 100 100 100 100 100 100 100 100 100 100 100 100 100 100 100 64 98 100 100 100 100 100 100 93 35 36 56 99 98 100 89 40 40
100 100 100 100 100 100 100 100 100 100 100 100 100 100 100 100 100 100 100 100 79 97 100 100 100 100 92 48 100 100 100 100 99 29 17 47 98 80 78 93 88 93 100 100
100 100 100 100 100 100 100 96 100 100 100 100 100 100 100 100 100 100 100 100 100 74 98 100 100 100 100 100 100 100 100 100 34 58 99 100 83 88 99 84 98 91 86 96
68 48 96 100 100 100 100 100 100 100 100 100 100 100 100 100 100 100 91 100 95 99 100 100 100 100 100 100 100 100 100 99 97 100 100 100 100 99 90 87 97 96 83 98
96 99 100 100 100 100 100 100 100 96 100 100 96 100 100 100 100 100 98 100 99 100 100 97 96 100 100 100 100 100 98 96 100 100 100 96 93 100 92 66 92 98 97 97
100 100 100 100 100 100 100 100 100 100 98 100 100 100 100 100 100 100 100 100 100 100 100 100 100 100 100 99 100 100 100 100 100 99 100 91 82 90 100 99 94 96 100 100
100 100 100 100 100 100 100 100 100 100 100 100 100 100 100 100 100 100 100 100 100 94 100 99 100 100 100 100 100 100 100 100 100 100 100 100 100 100 100 100 100 100 100 100
100 100 100 100 100 100 100 100 100 100 100 100 100 100 100 100 100 100 100 100 100 100 100 100 100 100 100 100 100 100 100 100 100 100 100 100 100 100 100 100 100 100 100 99
100 100 100 100 100 100 100 100 100 100 100 100 100 100 100 100 100 100 100 100 100 94 97 100 100 100 100 100 92 99 100 100 100 100 100 100 100 100 100 100 100 100 100 97
100 100 100 100 100 100 100 100 100 100 100 100 100 100 100 100 100 98 100 100 100 98 99 100 100 100 100 100 100 93 98 100 100 100 100 100 100 100 100 86 81 67 17 5
100 100 100 100 100 100 100 100 100 100 100 100 100 100 100 100 100 100 100 100 100 100 100 100 100 100 100 99 98 99 100 100 100 100 100 100 90 35 5 5 5 2 2 2

GFSNW_prec_cloud_054.txt.gz
Cloud_Cover
100 100 98 100 100 100 100 100 100 100 100 100 100 100 100 100 100 100 100 98 7 21 100 44 5 5 9 40 19 61 8 10 4 2 4 0 0 31 30 7 0 3 0 0
100 100 94 100 100 100 100 100 100 100 100 100 94 100 100 100 100 100 100 100 35 5 68 94 5 48 93 100 100 19 8 5 3 3 49 5 5 5 2 1 47 0 17 0
100 100 93 70 100 100 100 100 100 100 94 76 67 98 100 100 100 100 100 99 36 5 20 90 100 53 100 100 85 44 86 5 53 50 10 75 90 6 1 5 2 0 0 0
100 100 96 6 100 100 100 100 100 100 100 92 99 100 100 100 100 100 100 100 97 4 4 24 100 100 100 99 5 5 5 31 23 27 6 81 2 62 79 5 5 3 0 0
100 100 100 5 100 100 100 100 100 100 100 100 100 100 100 100 100 100 100 61 68 5 5 3 84 94 100 98 5 5 16 54 5 5 5 4 5 1 0 0 0 3 0 0
100 100 69 5 100 100 100 100 100 100 100 100 100 100 100 100 100 100 100 53 86 4 35 92 83 100 100 99 6 65 80 16 30 11 5 5 5 0 0 0 0 0 0 2
100 99 31 5 100 100 100 100 100 100 100 100 100 100 100 100 100 100 100 30 4 14 55 80 86 100 100 22 21 12 64 34 62 8 6 38 5 0 0 0 0 1 5 5
100 97 25 8 100 100 98 100 100 100 100 100 100 100 100 100 100 100 99 5 7 97 4 65 100 100 100 14 35 67 10 70 14 76 52 22 5 4 1 5 4 5 5 5
99 65 13 3 100 100 100 100 100 92 100 100 100 100 100 100 100 100 100 8 5 90 83 21 100 100 48 24 77 62 5 73 92 9 67 35 5 5 4 5 5 5 5 5
78 28 0 87 100 100 98 100 100 100 100 100 100 100 100 100 80 44 29 54 57 5 35 100 100 100 99 46 19 71 8 79 83 5 68 53 5 5 3 1 5 5 5 5
8 70 2 95 100 100 100 100 100 100 100 100 81 100 100 95 44 60 96 65 5 2 59 100 100 100 100 20 5 52 40 72 74 33 98 86 5 5 5 5 5 5 5 6
3 43 9 100 100 100 100 100 100 100 100 100 78 23 7 90 71 79 85 92 100 96 100 100 100 100 100 6 5 61 51 55 29 53 9 33 21 5 5 5 5 16 65 10
22 8 100 100 100 100 100 100 100 100 100 100 100 22 56 76 100 78 100 100 83 42 100 100 100 100 100 80 6 48 56 78 49 24 5 33 21 26 11 12 56 67 91 100
68 96 100 100 100 100 98 100 100 100 100 100 95 14 14 100 100 65 100 100 100 100 100 100 100 100 100 40 5 59 54 70 5 65 5 5 35 19 5 28 69 100 100 100
100 100 90 100 100 100 100 100 66 96 80 90 100 100 100 82 65 100 100 100 100 100 100 100 100 100 100 45 7 79 58 43 5 18 98 5 26 40 85 94 100 100 100 100
100 100 100 100 100 100 100 100 100 100 100 100 100 100 100 100 100 100 100 100 99 94 100 100 100 100 100 98 38 52 100 10 6 10 9 46 69 99 100 100 100 100 100 100
100 100 100 100 100 100 100 99 29 68 100 100 100 100 100 100 100 100 100 100 100 100 100 100 100 100 100 100 100 100 96 28 5 5 20 81 100 100 100 100 88 81 96 100
100 100 100 100 100 100 100 100 100 100 100 100 100 100 100 99 96 100 100 100 100 100 100 100 100 100 100 98 100 100 100 75 61 75 45 11 75 99 60 96 75 100 100 80
100 100 100 100 100 100 100 100 100 100 100 100 100 100 100 100 100 100 100 100 100 100 100 100 100 100 94 100 100 100 100 100 100 100 100 94 82 74 84 92 100 32 33 86
100 100 100 100 100 100 100 100 100 100 100 100 100 100 100 100 100 100 100 100 100 100 100 100 100 100 100 100 100 100 100 100 100 100 100 100 100 77 98 74 85 100 97 10
100 100 100 100 100 100 100 96 100 94 100 100 100 100 100 100 100 100 100 100 100 100 100 92 98 100 100 100 100 100 100 100 100 100 100 100 100 100 98 100 100 93 85 89
100 100 100 100 100 100 100 100 100 98 100 100 100 100 100 100 100 100 100 100 100 100 100 98 100 100 100 100 100 100 100 100 100 100 100 100 100 100 97 100 94 96 100 100
100 100 100 100 100 100 100 99 97 100 100 100 100 100 100 100 100 100 100 100 99 75 100 100 100 100 100 100 100 100 100 100 100 100 100 100 94 99 99 100 100 100 100 100
100 100 100 100 100 100 100 100 100 100 100 100 100 100 100 100 100 100 100 97 100 100 100 100 100 100 100 100 100 100 100 100 100 100 100 100 100 100 100 100 100 100 100 100
100 100 100 100 100 100 100 100 100 100 100 100 100 100 100 100 100 100 100 100 100 100 100 100 100 100 100 100 100 100 100 100 100 100 100 100 100 100 100 100 100 100 100 100
100 100 100 100 100 100 100 100 100 100 100 100 100 100 100 100 100 100 100 100 100 100 100 100 100 100 100 100 100 100 100 100 100 100 100 100 100 100 100 100 100 100 85 8
100 100 100 100 100 100 100 100 100 100 100 100 100 100 100 100 100 100 100 100 100 100 100 100 100 100 100 100 100 100 100 100 100 100 100 100 100 100 100 92 11 5 3 5

GFSNW_prec_cloud_057.txt.gz
Cloud_Cover
100 100 76 100 39 40 100 100 100 100 100 35 88 100 100 100 100 100 14 92 100 100 6 10 11 28 4 22 100 89 18 80 62 100 81 27 5 3 67 5 3 5 5 2
100 100 100 100 40 69 92 100 100 100 100 72 22 100 100 100 100 100 100 79 100 60 100 55 1 93 12 4 89 6 41 100 100 80 87 4 6 2 0 5 7 5 5 0
100 100 100 100 86 91 100 100 100 100 100 61 51 100 100 100 100 100 100 100 100 100 100 67 16 100 10 5 5 10 53 100 100 32 10 0 89 8 5 5 5 0 3 0
100 100 100 100 89 88 100 100 96 96 100 96 100 100 100 100 100 100 100 100 100 100 97 53 100 100 4 44 16 5 50 100 92 5 5 6 19 37 31 36 88 48 4 0
96 100 100 100 96 100 100 100 89 14 100 100 100 100 100 100 100 100 100 100 100 100 100 86 11 97 4 3 46 98 100 86 5 55 5 41 37 5 0 5 5 5 0 2
14 98 100 100 97 67 100 100 82 93 100 100 100 100 100 100 100 100 100 100 100 100 98 97 5 5 3 0 14 100 100 99 5 47 5 5 21 0 5 5 5 1 0 0
65 100 100 100 61 10 61 99 100 100 71 100 100 100 100 100 100 100 100 100 100 100 100 100 83 5 20 14 71 15 100 100 42 8 5 87 3 5 5 5 5 5 4 4
53 100 100 100 49 23 100 100 100 86 100 69 100 100 100 100 100 100 100 100 100 100 100 100 100 99 89 11 99 51 89 100 7 46 5 54 5 7 5 5 5 5 5 4
100 100 100 98 79 57 100 100 100 100 31 15 100 100 100 100 100 100 100 100 100 100 100 100 80 16 6 5 5 95 38 100 20 61 40 69 7 29 5 5 83 5 5 5
100 100 100 74 40 100 100 100 100 100 99 94 84 100 100 100 100 100 100 100 100 100 100 100 65 23 70 0 61 50 14 99 47 15 81 62 25 22 5 5 5 5 5 5
100 100 91 30 86 100 100 100 100 100 100 100 100 100 100 100 100 100 100 100 100 100 100 100 100 90 4 0 98 64 36 73 76 78 67 95 5 89 6 5 5 5 5 5
90 17 80 37 54 100 86 100 100 100 100 82 100 100 100 100 100 100 100 100 100 100 100 99 86 100 96 7 90 100 83 100 59 74 31 45 70 79 61 5 5 25 5 5
5 22 39 0 2 98 100 100 100 100 100 100 100 100 100 100 89 79 100 97 49 100 86 91 98 100 100 96 100 100 100 100 99 16 5 28 88 97 5 5 5 5 5 6
10 41 0 0 84 100 100 100 100 100 100 100 96 87 100 81 96 69 85 93 100 100 100 99 97 88 66 100 100 66 100 100 36 36 5 5 29 50 29 8 5 23 54 40
38 75 0 8 90 100 99 100 100 100 100 100 100 93 100 42 88 8 14 71 100 100 100 100 78 100 100 100 100 77 83 100 86 6 33 5 5 27 84 68 40 43 33 90
53 40 5 100 97 100 100 100 100 100 100 100 100 100 100 87 98 60 5 100 100 100 100 86 78 99 100 100 100 83 100 100 61 44 5 24 51 6 8 83 100 100 100 100
50 13 62 100 100 73 100 100 100 100 100 100 100 100 75 45 74 99 82 44 100 100 100 100 100 100 100 100 100 100 100 100 67 16 44 85 98 42 46 55 36 45 97 98
100 100 100 100 100 100 100 100 100 100 100 100 100 100 91 79 89 94 100 44 99 100 100 100 100 100 100 100 100 100 100 100 95 98 100 100 100 100 99 95 100 100 100 100
100 100 100 100 100 100 100 100 100 56 100 100 100 100 100 99 92 76 100 100 100 100 100 100 100 100 100 100 100 100 100 100 100 100 100 100 99 100 100 100 100 100 100 96
100 100 100 100 100 100 100 100 97 100 100 100 100 100 100 100 91 100 100 100 100 100 100 100 100 100 100 100 100 100 100 100 100 100 100 100 100 100 100 100 100 100 96 93
100 100 100 100 100 100 100 100 100 99 100 100 100 100 100 95 98 100 100 100 100 100 100 100 100 100 100 100 100 100 100 100 100 100 100 100 100 100 100 100 100 100 100 100
100 97 100 100 100 100 100 100 98 97 94 87 100 100 100 100 100 100 100 100 100 85 86 100 94 99 100 100 100 100 100 100 100 100 100 100 100 100 100 100 100 100 100 100
100 100 100 100 100 100 99 99 90 91 100 100 100 100 100 100 100 100 100 96 100 60 100 96 100 100 100 100 100 100 100 100 100 100 100 100 100 100 100 100 100 100 100 100
100 100 100 100 100 100 100 100 100 100 100 100 100 100 100 100 100 100 100 100 100 100 100 100 100 100 100 100 100 100 100 100 100 100 100 100 100 100 100 100 100 100 100 100
100 100 100 100 100 100 100 100 100 100 100 100 100 100 95 100 100 100 100 100 100 100 100 100 100 100 100 100 100 100 100 100 100 100 100 100 100 100 100 100 100 100 100 100
100 100 100 100 100 100 100 100 100 100 100 100 100 100 100 100 100 100 100 100 100 100 100 100 100 100 100 100 100 100 100 100 100 100 100 100 100 100 100 100 100 100 100 100
100 100 100 100 100 100 100 100 100 100 100 100 100 100 100 100 100 100 100 100 100 100 100 100 100 100 100 100 100 100 100 100 100 100 100 100 100 100 100 100 100 100 100 100

GFSNW_prec_cloud_060.txt.gz
Cloud_Cover
100 90 100 100 100 100 36 100 99 84 100 100 10 98 100 100 100 31 26 7 36 66 68 64 9 5 5 0 5 4 100 98 5 28 95 38 87 30 5 5 100 96 0 0
100 99 8 100 100 100 47 100 100 62 100 100 29 4 100 100 100 71 41 12 78 100 48 78 98 5 2 0 5 1 22 78 86 91 71 90 21 4 89 91 6 5 2 0
89 47 97 100 100 100 10 100 100 100 94 19 60 5 48 100 100 100 93 100 100 45 90 100 96 23 5 4 0 5 33 86 49 100 100 6 17 7 14 80 5 5 2 4
5 20 100 100 100 100 51 100 100 7 100 97 95 86 58 100 100 5 72 82 100 100 100 100 74 6 10 5 2 4 62 18 88 100 76 90 97 5 5 4 5 5 1 0
5 95 99 100 100 100 96 100 100 94 9 83 18 60 5 96 100 91 100 100 100 100 100 100 18 5 92 5 5 5 3 2 5 82 100 78 82 91 2 0 5 5 6 4
5 99 100 100 100 100 100 100 98 97 5 53 91 16 66 97 100 100 100 100 100 100 100 100 100 100 38 8 13 3 3 2 4 54 100 29 98 1 5 0 0 1 5 22
12 91 100 100 100 100 56 100 89 97 41 82 77 3 53 100 100 100 100 100 100 100 100 100 62 98 100 68 100 4 0 1 5 12 31 68 42 5 2 0 0 5 5 2
11 87 100 100 100 100 53 100 100 98 46 5 47 10 4 100 100 100 100 100 100 100 97 100 95 100 100 100 52 5 30 99 95 17 26 60 8 5 5 4 1 5 5 5
5 5 17 100 100 100 100 100 100 100 100 37 5 5 5 100 100 95 93 100 100 69 100 100 97 100 100 41 89 100 72 100 100 100 55 84 82 5 6 5 44 5 5 5
5 5 34 100 100 100 68 100 100 100 99 73 3 1 20 100 100 100 100 100 100 100 100 100 100 100 100 69 6 51 28 92 71 100 98 100 98 6 66 64 6 5 5 10
4 5 96 100 100 100 54 100 100 100 100 88 37 64 96 100 100 100 100 100 100 100 100 100 100 100 100 9 5 6 5 4 73 100 100 100 100 100 6 7 6 32 81 9
0 6 100 100 100 100 5 94 100 100 100 95 53 82 100 95 100 100 100 100 100 100 100 100 100 100 100 81 18 45 4 1 12 100 100 99 100 99 5 13 51 9 5 5
39 94 100 100 100 64 21 66 100 81 100 40 74 100 100 100 100 100 100 100 100 100 100 100 100 100 88 100 100 87 5 10 10 100 100 100 100 70 12 100 97 21 18 53
100 100 100 100 72 58 6 14 100 100 100 100 100 100 100 100 100 100 100 100 100 100 100 100 100 100 100 100 100 100 21 36 62 100 100 100 100 100 79 22 42 28 62 36
100 100 100 32 8 33 55 95 100 80 100 100 100 78 98 100 100 100 100 100 100 100 100 100 100 100 100 100 88 87 5 79 100 100 100 100 100 100 100 92 82 90 58 30
100 86 8 5 5 8 99 100 100 100 100 100 100 99 100 100 100 100 100 100 100 100 92 98 99 100 100 100 100 75 5 70 100 100 100 100 100 91 65 57 99 100 100 100
53 23 5 71 50 12 99 100 100 100 100 100 100 100 100 100 100 100 100 100 100 100 100 100 100 100 100 99 97 98 48 100 100 100 100 100 100 100 91 96 97 100 100 100
5 0 5 71 99 100 100 100 100 100 100 100 100 100 100 100 100 100 99 100 100 100 100 100 100 100 100 23 21 74 74 100 100 100 100 100 100 100 100 100 100 100 100 100
12 9 92 100 100 100 100 100 100 100 100 100 100 100 100 100 100 100 100 100 100 100 100 100 100 100 100 100 100 100 100 100 100 100 100 100 100 100 100 100 100 100 100 100
59 100 100 100 100 100 100 100 100 100 100 100 100 100 100 100 100 100 91 100 100 98 90 98 99 100 100 100 100 100 100 100 100 100 100 100 100 100 100 100 100 100 100 100
100 100 100 100 100 100 100 100 100 100 100 100 100 100 100 97 90 100 97 99 100 100 98 79 100 100 80 100 97 100 100 100 100 100 100 100 100 100 100 100 100 100 100 100
100 100 100 100 100 100 100 100 100 100 100 100 100 100 93 100 100 92 100 85 94 80 99 100 99 64 34 82 93 100 100 100 100 100 100 100 100 100 100 100 100 100 100 100
100 100 100 100 100 100 100 100 98 100 100 100 100 100 100 100 100 100 100 100 84 87 100 90 60 100 100 100 100 100 100 100 100 100 100 100 100 100 100 100 100 100 100 100
100 100 100 100 100 100 100 100 100 100 100 100 100 100 91 100 100 100 100 100 100 79 96 100 100 100 100 100 100 100 100 100 100 100 100 100 100 100 100 100 100 100 100 100
100 99 100 100 100 100 100 100 100 100 100 90 100 98 32 99 100 100 100 97 100 100 100 100 100 100 100 100 100 100 100 100 100 100 100 100 100 100 100 100 100 100 100 100
78 100 100 100 100 100 100 100 100 100 100 94 84 100 100 100 100 100 100 100 100 100 100 100 100 100 100 100 100 100 100 100 100 100 100 100 100 100 100 100 100 100 100 100
100 100 100 100 100 100 100 100 100 100 100 100 100 100 100 100 100 100 100 100 100 100 100 100 100 100 100 100 100 100 100 100 100 100 100 100 100 100 100 100 100 100 100 100

GFSNW_prec_cloud_063.txt.gz
Cloud_Cover
5 2 99 100 100 100 100 100 92 100 100 100 100 98 100 100 100 99 94 78 21 100 64 5 5 100 5 5 5 5 5 3 0 0 4 35 53 67 66 24 9 15 5 70
32 7 52 100 100 100 100 100 95 95 91 89 100 98 100 100 100 76 17 24 5 5 72 6 100 100 5 66 5 5 5 4 0 0 1 11 100 30 86 10 0 1 4 0
92 58 24 71 100 100 100 100 96 100 100 34 34 100 100 100 100 100 22 77 90 64 100 78 70 100 62 100 7 5 5 4 4 0 2 87 42 99 17 6 5 5 0 0
100 99 94 60 98 100 100 100 92 69 100 95 90 89 95 100 100 28 41 5 42 100 92 98 100 100 100 93 5 5 5 5 5 5 8 22 5 5 14 5 5 2 0 2
100 100 100 8 47 100 100 100 98 92 5 65 97 100 85 100 100 100 6 100 100 100 100 100 100 100 100 48 13 5 19 5 5 5 2 5 5 20 20 5 5 0 4 2
100 100 100 5 7 100 100 100 55 46 70 89 77 52 29 74 100 43 95 100 100 100 100 100 100 91 87 41 100 100 100 54 5 5 0 54 37 100 4 0 0 0 4 0
100 100 100 5 15 90 100 98 33 100 15 77 67 57 100 100 87 91 100 100 100 97 100 100 100 28 84 100 100 77 100 88 4 5 1 1 84 97 32 11 5 0 3 1
100 100 100 1 5 100 100 89 98 100 99 5 69 54 18 99 100 58 79 11 99 100 100 100 23 18 78 100 100 100 100 93 5 5 3 1 75 100 100 66 14 12 1 2
100 100 67 12 100 100 100 100 25 100 100 25 4 68 5 1 6 100 14 47 98 100 94 98 31 27 100 100 100 100 67 17 3 39 1 5 100 98 89 5 64 5 5 5
100 83 15 6 74 100 100 100 21 100 100 98 11 5 5 2 73 100 98 64 81 100 100 100 100 100 100 100 100 100 47 75 6 25 6 25 100 100 37 99 86 5 5 21
100 73 91 79 78 100 100 100 100 100 100 23 41 4 2 0 37 50 39 100 30 92 100 100 100 100 100 100 100 100 100 71 24 12 5 37 100 100 100 82 35 20 67 8
100 81 95 80 96 100 100 100 100 100 100 60 63 5 0 0 56 100 100 87 66 100 100 100 100 100 100 100 100 100 55 28 5 3 5 4 21 88 100 100 71 23 67 38
90 62 40 90 53 100 76 100 99 100 100 47 86 8 65 2 73 94 40 6 58 100 100 100 100 100 100 100 100 100 95 83 5 49 100 72 5 59 100 100 100 84 87 100
7 5 6 5 82 100 100 100 100 100 100 100 28 20 5 3 30 86 5 22 99 100 100 100 100 100 100 100 100 100 100 60 44 100 100 55 11 27 100 100 100 100 100 100
5 5 4 20 81 100 100 100 100 98 97 100 99 94 68 63 65 51 100 100 100 100 100 100 100 100 100 100 100 100 100 95 100 100 100 100 40 12 100 100 100 100 100 100
5 9 100 100 100 100 93 100 100 93 71 100 100 67 100 100 100 100 100 100 100 100 100 100 100 100 100 100 100 100 100 100 100 100 100 67 100 100 100 100 100 100 100 100
87 100 100 100 99 58 52 58 57 86 100 100 100 75 100 100 100 100 100 100 100 100 100 100 100 100 100 100 100 100 100 100 100 100 94 44 100 21 93 100 100 100 100 100
100 100 100 100 100 85 90 100 68 95 100 100 100 100 100 100 100 100 100 100 100 100 100 100 100 100 100 100 100 100 100 100 100 98 60 83 36 37 6 17 71 99 100 100
100 100 85 86 94 80 83 100 69 96 100 100 100 100 100 100 100 100 100 100 100 100 100 100 100 100 87 100 100 100 100 100 100 91 99 100 69 8 81 100 78 5 77 100
26 10 11 90 100 50 100 100 100 100 100 100 100 100 100 100 100 100 100 100 100 100 100 100 100 100 100 100 100 100 100 100 100 100 100 100 100 100 93 97 100 100 100 100
80 100 100 100 100 100 100 100 100 100 100 100 100 100 100 100 100 100 100 100 100 100 100 100 97 93 100 100 100 100 100 100 100 100 100 100 100 100 100 100 100 100 100 100
98 100 100 100 100 100 100 100 100 100 100 100 100 100 100 100 100 100 100 100 100 100 90 100 100 100 100 100 100 100 100 100 100 100 100 100 100 100 100 100 100 100 100 100
100 100 100 100 100 100 100 100 100 100 100 100 100 100 100 100 100 100 100 100 100 99 100 100 100 100 89 93 55 59 96 100 100 100 100 100 100 100 100 100 100 100 100 98
100 100 100 100 100 100 100 100 100 100 100 100 100 100 100 100 100 100 100 100 100 99 100 59 94 100 100 100 100 100 100 100 100 100 100 100 100 100 100 100 100 100 100 100
100 100 100 100 100 100 100 100 100 100 100 100 100 100 72 100 100 100 100 98 63 84 74 88 100 100 100 100 100 100 100 100 100 100 100 100 100 100 100 100 100 100 100 100
100 100 100 100 100 100 100 100 100 100 100 100 100 100 100 100 100 100 99 77 99 98 100 100 100 100 100 100 100 100 100 100 100 100 100 100 100 100 100 100 100 100 100 100
100 100 100 100 100 100 100 100 100 100 100 100 100 100 100 100 100 100 100 99 100 100 100 100 100 100 100 100 100 100 100 100 100 100 100 100 100 100 100 98 100 100 100 100

GFSNW_prec_cloud_066.txt.gz
Cloud_Cover
100 100 79 5 14 100 100 100 100 8 95 100 100 100 99 100 100 100 100 100 100 100 54 11 6 43 5 4 5 5 3 5 0 5 5 0 0 0 5 5 5 100 60 74
100 100 100 5 61 49 100 100 100 64 5 99 100 100 100 100 100 40 97 100 100 100 51 6 6 32 21 5 5 5 5 5 4 5 5 4 0 0 3 5 5 32 100 15
100 100 100 24 27 12 99 100 100 89 90 0 74 100 100 100 100 100 100 69 100 100 100 100 100 79 63 18 13 31 5 5 3 3 2 5 1 0 5 16 66 44 18 5
100 100 100 97 5 5 100 100 100 92 100 87 5 100 100 100 100 100 100 99 89 100 100 100 100 100 98 91 27 28 4 6 7 0 0 4 4 2 5 5 92 80 66 27
100 100 100 100 46 91 100 100 99 97 32 96 55 100 100 100 100 100 99 90 100 100 100 100 100 100 100 100 64 68 5 22 5 5 4 1 5 0 3 61 100 100 52 100
100 100 100 100 100 94 100 100 64 93 52 94 90 24 100 100 100 100 100 100 100 100 100 100 100 100 100 88 33 89 9 16 99 7 5 4 5 0 6 85 25 52 72 46
100 100 100 100 60 5 23 28 98 25 77 79 44 44 100 100 100 100 100 100 100 100 100 100 100 100 60 15 36 12 45 91 100 98 72 81 5 0 0 0 8 2 51 9
100 100 100 100 60 5 5 57 99 81 100 48 85 96 100 100 100 100 100 100 100 100 100 100 97 77 95 75 5 86 100 100 100 94 100 79 100 1 0 0 0 4 17 5
100 100 100 100 94 7 32 63 100 100 100 12 16 95 100 100 100 100 100 100 100 90 59 34 90 100 97 67 84 100 100 100 67 100 84 63 100 14 0 0 3 3 5 5
100 100 100 100 100 30 81 18 100 100 100 98 6 31 93 100 100 95 100 100 100 99 100 34 38 43 86 88 63 100 100 100 100 97 10 69 100 57 0 0 0 5 29 58
100 100 100 100 100 96 60 24 100 100 100 100 89 9 5 98 100 72 88 100 70 14 11 11 50 8 100 100 56 100 100 100 100 97 10 100 47 91 4 0 0 3 5 50
100 100 100 95 100 98 64 100 100 100 100 96 94 23 5 6 16 30 96 100 95 46 38 68 100 100 100 100 100 100 100 100 100 30 17 100 100 91 5 5 1 0 0 5
100 100 100 100 91 96 34 100 100 100 100 100 100 32 5 0 1 0 5 6 77 43 7 89 95 100 100 100 100 100 100 100 100 100 63 97 96 100 7 14 6 5 0 5
100 100 100 100 94 94 100 100 100 100 100 100 90 54 6 5 5 0 3 29 91 80 90 100 97 77 100 100 100 97 100 100 100 56 99 100 100 100 23 94 38 5 5 37
100 100 100 100 100 100 100 100 100 100 98 100 100 100 90 5 12 1 0 0 81 77 95 100 100 98 100 100 100 90 100 100 100 100 100 100 100 100 100 99 47 17 5 49
100 100 100 100 100 100 100 100 94 69 100 100 100 96 100 94 63 85 14 8 6 82 100 100 100 100 100 99 90 100 100 100 100 100 100 100 100 100 100 100 100 99 22 54
100 100 100 76 47 84 100 85 39 96 100 100 100 97 100 100 100 83 58 5 64 41 92 99 80 100 100 100 100 100 100 100 100 100 100 100 100 100 78 57 100 100 95 37
89 42 90 51 46 100 100 100 100 100 100 100 100 100 100 100 100 100 100 81 25 66 98 85 70 100 100 100 100 100 100 100 100 100 100 100 100 100 61 40 100 100 98 80
16 49 82 100 100 100 98 69 100 99 100 100 100 100 100 100 100 100 100 100 100 93 100 100 100 100 100 100 100 100 100 100 99 100 100 100 100 100 89 100 100 100 98 61
76 97 98 100 99 100 52 100 100 100 100 100 100 100 100 100 100 100 100 100 100 100 100 100 99 84 100 100 100 100 100 100 100 100 100 100 100 100 88 97 100 99 100 100
99 94 100 82 96 100 97 100 100 100 100 98 63 97 100 98 100 100 100 100 100 99 99 100 100 100 100 100 100 100 100 100 56 100 100 100 100 100 100 100 100 100 100 100
73 67 23 46 67 100 81 100 100 100 90 100 100 96 100 100 100 100 100 91 100 100 100 100 100 100 100 100 100 100 100 100 100 100 100 100 100 100 100 100 100 100 100 100
89 100 98 100 100 99 33 100 100 100 100 100 100 100 100 100 100 100 100 100 100 100 100 100 100 100 100 100 100 100 100 100 100 100 100 100 100 100 100 100 100 100 100 100
100 100 100 98 100 100 100 100 100 100 100 100 100 100 100 100 100 100 100 100 100 100 100 100 100 100 100 100 100 100 100 100 100 100 100 100 100 100 100 100 100 100 100 100
100 100 100 100 100 100 100 100 100 100 100 100 100 100 100 100 100 100 100 100 100 100 97 99 100 100 100 100 100 100 100 100 100 100 100 100 100 100 100 100 100 100 100 100
100 100 100 100 100 100 100 100 100 100 100 100 100 100 100 100 100 100 100 100 100 100 100 100 100 100 100 100 100 100 100 100 100 100 100 100 100 100 100 100 100 100 100 100
100 100 100 100 100 100 100 100 100 100 100 100 100 100 97 97 100 100 100 100 100 100 100 100 100 100 100 100 100 100 100 100 100 100 100 100 100 100 100 100 100 100 100 100

GFSNW_prec_cloud_069.txt.gz
Cloud_Cover
100 100 100 100 100 100 98 100 100 98 100 100 100 100 80 100 100 100 100 100 100 100 100 100 100 100 95 5 98 100 5 5 5 0 2 2 1 4 1 0 3 70 99 100
100 100 100 100 100 100 41 100 100 82 56 100 100 13 19 100 100 100 100 100 100 100 100 100 100 100 99 66 99 91 5 8 5 4 0 12 7 5 5 0 0 4 54 100
100 100 100 100 100 100 100 100 100 100 100 9 8 63 10 70 100 100 100 98 100 100 100 100 100 100 100 100 100 54 5 32 62 5 4 6 42 2 4 5 0 0 8 95
100 100 100 100 100 100 100 100 100 32 100 100 5 5 5 19 100 100 100 100 100 100 100 100 100 100 100 100 100 30 5 72 6 5 1 0 28 7 5 5 1 0 5 56
100 100 100 100 100 100 100 100 100 5 98 90 100 95 53 15 79 100 100 100 100 100 100 100 100 100 100 100 14 5 13 27 6 5 3 2 21 6 5 5 5 0 2 92
100 100 100 100 100 68 100 74 25 34 7 99 100 52 11 100 77 100 100 100 100 100 100 100 100 100 100 99 44 14 99 84 5 34 5 3 98 5 5 5 5 5 0 51
100 100 100 100 100 24 75 94 57 100 24 49 53 71 77 23 38 100 100 100 100 100 100 100 100 100 100 97 27 82 93 5 5 6 6 56 100 55 4 3 5 3 5 5
100 100 100 100 100 71 65 62 6 97 100 37 12 100 27 77 30 100 100 100 100 100 100 100 100 90 100 91 94 54 20 7 44 38 24 69 100 92 4 5 82 2 4 5
100 100 100 100 100 100 99 96 5 94 98 54 5 98 100 29 95 100 100 100 100 100 100 100 100 100 88 96 100 100 100 100 75 98 50 100 100 100 79 5 95 12 0 0
100 100 100 100 100 100 100 79 46 78 99 10 99 93 32 62 40 100 100 100 100 100 100 100 97 10 100 100 87 100 100 100 81 100 7 100 100 100 74 33 34 100 14 0
100 100 100 100 100 100 99 79 63 41 100 77 77 95 94 65 64 100 100 100 100 100 100 100 100 100 100 100 100 100 100 100 100 61 57 82 100 100 100 99 100 100 87 27
100 100 100 100 100 100 100 96 90 76 99 45 100 85 73 66 69 100 100 100 100 100 100 100 100 100 100 99 100 100 100 100 100 92 12 8 98 100 100 81 100 100 100 100
100 100 100 100 100 100 100 100 100 44 66 14 100 100 76 88 39 100 100 100 100 100 100 100 100 100 100 100 100 100 100 100 100 67 21 29 100 100 100 16 43 100 100 100
100 100 100 100 100 100 100 100 85 43 79 100 85 100 100 47 45 100 100 100 100 93 100 97 99 50 7 30 83 82 100 100 100 56 97 100 100 100 100 84 86 88 100 100
100 100 100 100 100 100 100 100 86 4 85 100 100 100 100 61 86 100 100 76 14 20 96 100 41 5 76 86 90 100 100 100 100 95 100 100 100 100 100 100 81 68 100 98
100 100 100 100 100 99 71 100 92 96 100 100 100 100 100 100 98 100 100 18 5 6 20 100 65 5 9 54 64 99 100 100 100 100 100 100 100 100 100 100 100 93 98 100
100 100 100 100 99 92 100 80 6 56 100 100 100 100 76 100 100 99 29 5 63 16 46 99 51 72 27 13 5 59 100 100 100 100 100 100 100 100 90 100 100 100 100 100
100 100 100 100 100 100 100 92 97 100 100 100 100 100 100 100 100 100 49 88 85 65 34 94 37 100 53 24 5 69 100 100 100 100 100 100 100 100 100 100 100 98 100 100
100 100 100 100 100 100 100 100 100 100 100 100 100 100 100 100 100 100 100 58 100 98 100 86 43 100 78 75 92 100 100 100 100 100 100 100 96 100 100 94 100 100 100 100
100 86 100 100 99 99 100 100 100 100 98 100 100 100 100 100 100 100 100 100 100 100 90 86 91 91 11 99 100 71 86 100 100 100 100 100 100 100 100 99 100 100 100 100
100 100 100 72 55 69 100 100 100 100 100 100 100 98 100 100 100 100 100 100 100 100 100 78 100 100 95 100 82 98 100 100 100 100 100 100 100 100 100 100 100 100 100 100
94 74 100 100 97 99 100 100 100 100 75 100 100 97 100 100 100 100 100 100 100 100 100 100 100 56 100 100 98 100 100 100 100 100 100 100 100 100 100 100 100 100 100 100
100 100 100 95 100 100 100 100 100 100 100 100 100 100 100 100 100 98 100 100 100 100 100 100 86 100 100 100 100 100 93 100 100 100 100 100 100 100 100 100 100 100 100 100
86 100 99 82 100 100 99 42 100 100 100 100 100 100 99 100 100 100 100 100 100 100 100 100 100 100 100 100 100 100 100 100 100 100 100 100 100 100 99 100 100 100 100 100
100 100 100 100 100 100 100 100 100 100 100 100 100 100 100 100 100 100 100 100 100 100 100 100 100 100 100 100 100 100 100 100 100 100 100 100 100 100 100 100 100 100 100 100
100 100 100 100 100 100 100 100 100 100 100 100 100 100 100 100 100 100 100 100 100 100 100 100 100 100 100 100 100 100 100 100 100 100 100 100 100 100 100 100 100 100 100 100
100 100 100 100 100 100 100 100 100 100 100 100 100 100 100 100 100 100 100 100 100 100 100 100 100 100 100 100 100 100 100 100 100 100 100 100 100 100 100 100 100 100 100 100

GFSNW_prec_cloud_072.txt.gz
Cloud_Cover
100 100 100 100 100 100 100 100 100 33 5 92 100 100 0 2 54 100 100 100 100 100 100 100 100 100 100 100 98 100 55 44 90 5 5 56 82 93 70 33 87 1 35 100
100 100 100 100 100 100 100 100 100 70 9 96 100 72 11 4 51 100 100 100 100 100 100 100 100 100 100 100 100 100 99 40 10 5 5 17 93 30 5 64 6 5 1 35
100 100 100 100 100 100 100 100 100 96 89 6 4 89 51 28 5 62 100 100 100 100 100 100 100 100 100 100 100 100 100 100 86 22 5 5 10 20 5 29 34 16 5 2
100 100 100 100 100 100 100 100 77 4 97 98 42 61 58 93 61 36 100 100 100 100 100 100 100 100 100 100 100 100 100 100 100 38 5 5 83 5 5 5 33 52 5 4
100 100 100 100 100 100 100 80 31 78 5 17 52 97 100 64 27 100 100 100 100 100 100 100 100 100 100 100 100 100 100 100 100 100 88 5 96 25 5 5 14 45 6 5
100 100 100 100 100 100 100 83 10 92 8 86 100 69 14 96 96 98 100 100 100 100 100 100 100 100 100 100 100 100 100 100 100 100 91 28 100 31 11 4 5 5 9 5
100 100 100 100 100 100 100 97 74 52 43 88 56 78 79 100 100 100 100 100 100 100 100 100 100 100 100 100 100 100 100 100 100 100 36 97 100 74 70 56 100 5 5 5
26 100 100 100 100 100 100 92 95 73 85 9 13 97 92 90 100 100 100 100 100 100 100 100 100 100 100 100 100 100 100 97 88 100 100 100 100 100 22 25 100 7 5 5
94 100 100 100 100 100 100 100 100 60 19 17 4 100 100 100 40 100 100 100 100 100 100 100 100 100 100 100 87 100 100 100 47 73 99 100 100 100 55 9 100 5 81 8
100 92 100 100 100 100 100 100 99 36 26 86 100 95 77 52 79 100 100 100 100 100 95 100 100 100 100 100 82 100 99 96 71 88 100 100 100 100 70 20 100 47 85 80
99 100 100 100 100 100 100 100 97 66 26 75 6 26 98 100 72 99 100 100 100 100 96 84 97 100 100 100 100 100 100 100 93 79 96 100 100 99 26 63 62 98 100 100
99 54 100 100 100 100 100 100 95 100 54 16 94 46 99 100 94 94 100 100 100 77 71 10 5 97 100 99 100 100 100 96 100 100 100 100 100 100 96 95 13 7 90 100
100 52 100 100 100 100 100 97 100 100 100 77 94 4 98 97 94 37 83 100 100 93 97 100 100 93 100 100 100 100 100 100 100 86 98 100 100 100 92 28 80 75 63 100
53 100 100 100 100 100 100 93 99 100 100 100 61 28 10 70 100 61 78 100 100 73 99 8 54 32 100 100 100 100 100 100 100 100 99 100 100 100 71 93 84 43 84 87
100 100 100 100 100 100 100 100 100 100 76 85 51 93 100 20 10 79 52 100 100 13 18 65 19 66 100 100 100 100 100 100 100 100 100 100 96 96 92 100 100 100 100 100
100 100 100 100 100 100 100 100 89 83 90 97 100 100 60 100 49 24 24 100 96 34 5 5 84 100 100 100 100 100 100 100 100 100 100 100 100 100 100 100 100 99 13 88
100 100 100 100 100 100 85 100 100 97 61 88 100 100 100 88 66 40 8 100 99 25 24 5 55 100 100 100 100 100 100 100 95 98 86 89 100 100 100 100 100 77 100 95
100 100 100 100 100 100 100 89 98 20 25 100 100 100 100 100 100 90 26 50 33 6 95 87 94 100 100 100 100 100 100 100 94 56 36 23 94 100 100 100 98 100 100 99
100 100 100 100 100 100 100 78 82 94 97 100 100 79 100 100 100 100 100 58 100 90 100 94 96 100 100 100 100 100 100 73 17 6 34 87 91 100 100 92 76 100 100 94
100 100 98 100 100 52 100 100 100 100 100 100 100 100 100 100 100 100 97 100 100 100 99 70 83 98 92 87 100 100 71 64 39 5 7 36 91 96 54 51 34 55 100 100
100 100 100 100 100 100 100 100 100 100 100 100 100 100 100 100 100 100 100 100 100 100 99 77 100 98 70 45 92 71 36 43 43 29 41 80 94 98 60 100 95 95 100 100
100 100 100 100 100 100 100 100 100 100 100 100 100 100 100 100 100 100 99 100 99 100 100 99 100 96 100 100 85 45 54 56 27 50 83 96 100 100 100 100 100 100 100 100
95 49 92 97 94 70 96 100 100 100 100 100 100 100 100 100 100 100 100 100 100 100 100 100 100 100 100 100 100 93 62 33 65 100 63 100 100 100 100 100 100 100 100 100
100 99 91 100 99 83 84 100 100 100 100 100 100 100 100 100 100 100 100 100 100 100 100 100 100 100 100 100 100 100 100 100 94 100 100 100 100 100 100 100 100 100 100 100
94 94 100 100 100 100 100 100 100 100 100 100 100 100 100 100 100 100 100 100 100 100 100 100 100 100 100 100 100 100 100 100 100 100 100 100 100 100 100 100 100 100 100 100
91 71 100 100 100 100 100 100 100 100 100 100 100 100 100 100 100 100 100 100 100 100 100 100 100 100 100 100 100 100 100 100 100 100 100 100 100 98 100 100 100 100 100 100
99 98 100 100 100 100 100 100 100 100 100 100 100 100 100 100 100 100 100 100 100 100 100 100 100 100 100 100 100 100 100 100 100 100 100 100 100 85 88 100 100 100 99 100

GFSNW_prec_cloud_075.txt.gz
Cloud_Cover
100 100 100 100 100 100 100 100 100 57 39 100 100 100 4 24 1 4 5 6 77 2 94 100 100 100 100 100 100 100 100 100 41 100 93 12 95 80 83 100 100 97 70 9
100 100 100 100 100 100 100 100 100 93 5 93 92 2 0 72 96 4 82 89 87 81 100 100 100 100 100 100 100 98 84 50 100 100 96 25 44 11 98 100 98 79 83 10
100 100 100 100 100 100 100 100 100 100 92 50 5 0 5 5 3 80 96 100 100 70 100 100 100 100 100 100 100 100 98 100 100 100 100 35 100 11 8 87 98 49 11 54
100 100 100 100 100 100 100 100 47 35 100 95 9 74 20 5 5 5 100 100 100 71 100 100 100 100 100 100 100 100 100 93 99 100 100 100 100 75 16 77 98 88 18 37
40 100 100 100 100 100 100 100 57 100 98 66 65 84 84 97 5 5 8 100 100 100 100 100 100 100 100 100 100 100 100 97 100 100 100 100 100 100 81 24 47 5 5 21
63 58 100 100 100 100 100 100 42 100 94 100 76 36 5 11 34 23 80 100 100 100 100 100 100 100 100 100 100 100 100 100 100 100 100 100 100 100 100 42 47 5 6 13
86 7 86 100 100 100 100 96 100 99 100 71 33 50 68 9 32 66 100 100 100 100 100 100 100 100 100 100 100 100 100 100 100 100 100 76 100 100 100 100 100 20 100 99
100 51 5 100 100 100 100 100 76 96 60 100 100 97 74 98 93 100 92 100 100 100 100 100 100 100 100 100 100 100 100 100 86 100 100 100 100 100 100 100 100 98 53 100
100 100 62 100 100 100 100 100 100 100 68 100 100 100 100 98 8 100 100 100 100 100 100 100 100 100 100 100 100 100 100 100 100 100 100 100 100 100 100 100 100 5 12 91
100 100 100 100 100 100 100 100 100 100 99 100 100 100 99 38 83 5 100 100 100 100 100 100 100 100 100 100 100 100 100 100 97 99 92 100 100 100 100 87 100 76 16 7
100 100 100 100 100 100 100 100 100 100 100 100 98 30 100 99 44 62 100 100 100 100 100 56 100 100 100 100 100 100 100 100 84 100 100 100 100 100 100 100 100 18 5 5
100 100 100 100 100 100 100 100 100 100 100 100 79 13 25 95 39 96 100 100 100 100 96 41 99 100 100 100 56 100 98 100 100 100 100 100 100 100 100 100 53 5 5 10
84 100 95 100 100 100 100 100 100 100 100 100 44 7 5 5 68 80 100 100 100 100 100 100 74 100 100 100 100 100 100 100 100 100 99 100 100 100 100 100 35 10 56 77
100 100 100 100 100 100 100 100 100 100 100 100 100 19 47 17 90 69 68 100 100 100 100 62 8 72 100 100 100 86 96 100 100 100 100 100 90 100 100 100 84 100 97 22
100 100 100 100 100 100 100 100 100 100 100 100 87 72 39 26 100 100 44 100 100 100 87 64 19 6 49 100 100 100 100 100 83 100 100 100 100 100 94 100 100 100 79 47
100 100 100 100 100 100 100 100 100 100 100 100 100 100 7 69 100 100 100 100 100 100 83 42 5 5 2 44 24 100 100 100 100 100 100 100 100 100 100 100 99 88 64 49
100 100 100 100 100 100 100 100 100 100 100 100 98 79 62 16 100 100 95 99 100 100 98 33 55 40 8 5 56 100 100 100 100 100 100 100 100 100 100 100 100 91 57 90
100 100 100 100 100 100 100 100 100 100 100 97 94 100 100 74 92 40 7 100 100 100 97 19 40 20 10 26 98 100 100 100 100 100 100 100 100 100 100 100 58 62 27 10
100 100 100 100 100 100 100 100 76 93 88 52 100 100 100 100 99 44 32 96 83 98 81 46 22 13 44 9 100 100 100 100 100 100 100 100 100 100 99 68 16 5 53 50
100 100 100 100 100 100 76 89 100 84 72 100 100 100 100 100 100 100 100 100 97 99 94 28 96 100 16 60 100 100 100 100 100 100 100 100 100 100 100 15 5 74 86 62
100 100 100 100 100 100 100 100 100 100 100 72 100 100 100 100 100 100 100 100 100 100 16 31 14 51 86 97 100 100 100 100 100 100 100 100 100 100 57 62 47 88 62 80
100 100 100 100 96 100 100 100 100 89 56 100 100 100 100 100 100 100 100 100 100 100 26 86 54 93 94 63 99 100 100 100 100 100 100 100 62 21 35 97 100 100 100 100
87 37 97 100 99 98 100 100 94 92 100 100 100 100 100 100 100 100 100 100 100 100 100 100 100 100 100 100 100 100 100 100 100 100 77 98 99 100 100 100 100 100 100 100
100 100 100 99 100 91 95 100 100 100 100 100 100 100 100 100 100 100 100 100 100 100 100 100 100 100 100 100 100 100 100 100 100 100 100 100 100 100 100 100 100 100 100 100
100 100 99 100 100 100 100 100 100 100 100 100 100 100 100 100 100 100 100 100 100 100 100 100 100 100 100 100 100 100 100 100 100 100 100 100 100 100 100 100 100 100 100 100
96 89 100 100 100 100 100 100 100 100 100 100 100 100 100 100 100 100 100 100 100 100 100 100 100 100 100 100 100 100 100 100 100 100 100 100 100 100 100 100 100 100 100 100
100 100 100 100 100 100 100 100 100 100 100 100 100 100 100 100 100 100 100 100 100 100 100 100 100 100 100 100 100 100 100 100 100 100 100 100 100 100 100 100 100 100 98 94

GFSNW_prec_cloud_078.txt.gz
Cloud_Cover
100 100 100 100 100 100 100 100 100 100 98 100 100 100 5 0 0 0 1 100 88 72 100 46 100 0 3 100 100 100 100 100 100 100 100 100 58 78 91 7 99 100 21 100
100 100 100 100 100 100 100 100 100 100 100 99 100 27 5 5 5 90 0 56 99 100 100 97 85 100 35 100 100 100 100 100 100 100 100 78 100 100 99 34 14 2 73 8
100 100 100 100 100 100 100 100 100 100 100 43 90 98 43 5 5 2 3 9 91 96 72 85 100 100 44 100 100 100 100 100 100 42 100 100 44 62 100 100 96 38 6 34
100 100 100 100 100 100 100 100 85 36 99 100 100 99 100 5 5 2 4 5 7 43 40 100 100 100 67 100 100 100 100 100 97 100 100 100 89 100 100 100 64 54 4 9
100 100 100 100 100 100 100 100 96 100 100 99 97 88 55 13 12 5 0 9 0 71 100 94 92 100 100 100 100 100 100 100 100 100 49 100 100 100 100 100 100 100 57 5
100 100 100 100 100 100 100 100 93 100 92 98 69 13 64 11 72 6 5 0 0 54 19 77 100 100 68 100 100 100 100 100 100 46 100 99 66 100 100 100 100 100 96 73
99 54 53 99 98 100 100 100 100 100 100 73 55 86 18 50 7 10 98 24 0 5 100 100 81 97 100 100 100 100 100 100 100 100 100 30 96 100 100 100 100 100 100 100
70 100 100 92 5 98 100 100 98 98 80 99 100 100 100 100 34 31 18 36 1 0 100 100 100 100 98 100 100 100 100 100 100 100 100 85 97 100 100 100 100 100 100 100
94 96 100 99 11 96 100 100 97 100 100 90 100 100 100 100 10 10 0 5 100 6 0 100 100 100 81 100 100 100 100 100 100 100 100 42 100 100 100 100 100 100 100 100
100 100 100 96 86 61 100 100 100 100 100 100 100 100 100 100 89 2 3 87 74 58 1 61 100 100 100 100 100 100 100 100 100 100 100 100 100 100 100 100 100 100 100 88
100 100 100 100 100 100 100 100 100 100 100 100 100 100 100 85 84 8 2 38 99 46 30 44 72 99 100 100 100 100 100 100 100 100 100 54 100 100 100 100 100 100 100 90
100 100 100 100 100 100 91 100 100 100 100 100 100 100 100 99 82 37 36 0 0 86 29 32 10 94 100 100 100 100 100 100 100 100 97 82 100 100 100 100 100 100 89 37
100 98 100 100 100 100 100 100 100 100 100 100 100 100 100 100 65 10 93 3 61 22 11 100 68 77 100 100 100 100 100 100 100 100 100 100 100 100 100 100 100 100 70 6
100 100 100 100 100 100 100 100 100 100 100 100 100 100 100 38 5 5 5 11 61 49 70 100 96 16 100 100 100 100 100 100 100 100 100 100 100 100 100 100 80 90 90 65
100 100 100 100 100 100 100 100 100 100 100 100 100 100 100 91 44 2 4 0 4 98 97 82 7 8 100 100 100 100 100 99 70 84 100 100 100 100 100 100 100 100 71 80
100 100 100 100 100 100 100 100 100 100 100 100 100 100 100 84 5 14 0 5 39 93 100 72 99 8 100 100 100 100 100 100 100 100 100 100 100 100 99 100 100 100 100 100
100 100 100 100 100 100 100 100 100 100 100 100 100 100 82 14 8 5 38 100 100 100 100 100 39 28 14 100 100 100 100 100 100 100 96 100 100 100 100 100 100 100 100 82
100 100 100 100 100 100 100 100 100 100 100 100 100 98 66 14 100 35 89 44 100 100 100 80 59 98 5 60 100 100 100 100 100 100 100 100 100 100 100 98 57 100 100 100
100 100 100 100 100 100 100 100 100 100 100 97 92 100 100 100 83 65 100 100 100 23 94 96 51 79 5 8 96 100 100 100 100 100 100 100 100 100 100 100 100 100 100 100
100 100 100 100 100 100 100 100 100 100 97 94 47 86 100 100 100 100 100 88 100 100 100 100 100 10 8 94 70 77 100 100 100 100 99 92 98 100 100 100 100 100 100 100
100 100 100 100 100 100 100 100 98 85 98 72 90 100 100 100 96 100 96 96 94 100 81 100 100 70 93 100 54 60 15 80 69 69 62 55 43 72 99 100 100 100 100 100
93 100 100 100 100 100 97 100 100 99 99 100 100 100 100 100 100 100 100 88 100 81 71 86 100 100 100 99 100 100 93 91 30 17 52 68 80 90 100 100 100 100 100 100
100 100 100 100 100 100 99 100 100 95 100 100 100 100 100 100 100 100 100 100 100 94 91 48 96 100 100 100 100 100 100 100 99 86 97 98 100 100 100 100 100 100 100 100
100 100 100 100 99 100 100 62 28 98 100 100 100 100 100 100 100 100 100 100 100 100 100 100 100 100 100 100 100 100 100 100 100 100 100 100 100 100 100 100 100 100 100 100
100 90 98 100 100 100 100 100 100 100 100 100 100 100 100 100 100 100 100 100 98 100 100 100 100 100 100 100 100 100 100 100 100 100 100 100 100 100 100 100 100 100 100 100
65 96 100 100 100 100 100 100 100 100 100 100 100 100 100 100 100 100 100 96 100 100 100 100 100 100 100 100 100 100 100 100 100 100 100 100 100 100 100 100 100 100 100 100
100 100 97 100 100 100 100 100 100 100 100 100 100 100 100 100 100 100 100 100 100 100 100 100 100 100 100 100 100 100 100 100 100 100 100 100 100 100 100 100 100 100 99 100

GFSNW_prec_cloud_081.txt.gz
Cloud_Cover
92 100 100 100 100 100 100 100 100 100 100 100 100 100 86 5 1 0 0 0 0 99 100 100 100 83 83 15 30 12 84 100 96 100 93 100 100 100 76 100 72 95 77 18
100 100 100 100 100 100 100 100 100 100 99 100 100 100 100 80 11 3 0 0 85 12 100 94 84 76 100 99 5 90 100 56 100 100 20 97 100 57 100 100 15 100 30 35
100 100 100 100 100 100 100 100 100 100 100 94 48 100 100 63 11 1 5 0 50 93 7 100 100 46 69 99 100 53 89 6 6 82 51 99 100 100 100 100 100 99 5 14
100 100 100 100 100 100 100 100 100 61 98 100 76 46 17 41 5 10 4 0 0 10 63 9 46 93 100 100 100 96 10 5 89 100 100 100 100 100 100 29 100 99 92 87
100 100 100 100 100 100 100 100 97 94 67 91 100 65 95 88 29 32 5 6 2 38 88 77 77 81 100 92 100 86 6 5 92 100 100 100 100 79 97 86 100 100 100 100
100 100 100 100 100 100 100 100 100 100 87 97 97 94 84 79 83 5 32 1 0 3 0 52 94 100 100 100 100 58 40 18 95 91 100 100 100 82 97 100 100 100 100 100
100 100 100 100 100 100 100 100 100 100 85 91 56 99 92 64 72 5 5 5 2 0 39 48 5 74 100 100 100 90 100 100 100 99 100 82 100 100 100 100 100 100 100 100
72 12 60 100 100 100 100 100 100 100 100 76 100 100 98 100 93 48 75 6 1 20 100 100 97 100 100 100 90 100 100 100 100 100 100 25 95 100 100 100 100 100 100 100
72 67 99 99 100 100 100 100 100 100 94 45 99 100 100 100 100 82 8 27 6 47 84 64 100 100 100 100 100 55 100 100 100 100 100 24 100 100 100 100 100 100 100 100
52 5 10 41 100 100 77 100 100 100 100 48 99 100 100 100 100 18 24 5 3 4 5 7 100 99 100 100 92 100 54 100 100 100 100 94 100 100 100 100 100 100 100 100
100 100 97 100 59 100 100 60 61 100 100 84 100 92 92 100 100 26 76 6 13 65 9 9 100 100 100 96 100 35 100 100 100 100 100 99 100 100 100 100 100 100 100 100
100 100 100 100 100 100 100 100 78 95 100 100 100 66 100 95 100 46 55 15 20 5 5 5 98 100 95 74 72 17 79 99 100 100 100 100 100 100 100 100 100 98 26 5
93 100 100 100 100 100 100 100 100 100 100 100 100 100 100 100 100 100 100 99 98 5 92 9 100 100 93 74 11 62 100 100 100 100 100 100 100 100 100 100 100 100 27 91
98 100 100 100 100 100 100 100 100 100 100 100 100 100 100 100 100 100 100 90 73 5 95 100 74 6 0 1 59 66 100 100 100 100 100 100 100 100 100 100 100 98 98 96
32 92 100 100 100 100 100 100 100 100 100 100 100 100 100 100 100 93 100 92 83 6 24 89 99 15 4 0 2 100 100 100 100 99 100 100 100 100 100 100 100 100 100 100
81 100 100 100 100 100 100 100 100 100 100 100 100 100 100 100 100 78 72 70 94 10 5 12 22 21 39 46 2 100 100 100 100 100 100 100 100 100 100 100 100 100 100 75
100 100 100 100 100 100 100 95 100 100 100 100 100 100 55 100 72 94 74 5 6 4 5 15 41 100 98 94 7 100 100 100 100 100 100 100 100 100 100 100 100 100 100 100
100 100 100 100 100 100 100 100 100 100 100 100 100 99 96 99 96 100 74 8 5 4 17 81 93 90 19 38 49 100 100 100 100 100 100 100 100 100 100 100 100 100 100 100
100 100 100 100 100 100 100 100 100 100 100 100 96 100 100 100 85 75 85 80 56 5 56 100 100 100 100 54 89 100 100 100 100 100 100 100 100 100 100 100 100 100 100 100
100 100 100 100 100 100 100 100 100 100 100 98 66 94 74 77 100 99 89 100 81 96 100 100 100 100 100 75 79 100 100 100 100 100 100 100 100 100 100 100 100 100 100 100
100 100 100 100 100 100 100 100 100 98 97 100 83 88 91 78 80 69 87 92 71 98 100 100 100 100 100 93 96 100 100 100 100 100 100 100 100 100 100 100 100 100 100 100
71 63 100 100 100 100 100 100 100 99 100 94 17 63 74 100 100 100 97 100 100 97 100 100 100 100 100 60 57 100 100 100 100 100 100 100 100 100 100 100 100 100 100 100
100 100 99 100 100 100 100 100 100 100 82 92 100 100 100 100 100 100 100 100 100 100 100 98 100 100 100 100 100 100 100 100 100 100 100 100 100 100 100 100 100 100 100 100
100 100 100 100 100 100 100 100 100 100 100 100 100 100 100 100 100 100 100 100 100 99 98 100 100 100 100 100 100 100 100 100 100 100 100 100 100 100 97 100 100 100 100 100
100 100 100 100 100 100 100 100 100 100 100 100 100 100 100 100 100 100 100 100 100 84 94 94 100 100 100 100 100 100 100 100 100 100 100 100 100 100 100 100 100 100 100 100
100 100 95 100 100 100 100 100 100 100 100 100 100 100 100 100 100 100 100 100 100 100 100 100 100 100 100 100 100 100 100 100 100 100 100 100 100 100 100 100 100 100 100 100
94 89 100 95 97 100 100 100 100 100 100 100 100 100 100 100 100 100 100 100 100 100 100 100 100 100 100 100 100 100 100 100 100 100 100 100 100 100 100 100 100 100 100 100

GFSNW_prec_cloud_084.txt.gz
Cloud_Cover
4 0 1 5 60 97 54 100 100 100 63 96 98 100 96 0 0 1 3 0 0 0 76 100 100 99 49 100 99 7 0 1 1 4 95 44 37 23 43 40 11 100 100 100
1 5 42 66 97 81 98 100 100 100 100 100 100 100 100 100 91 6 5 5 0 0 50 24 61 38 100 91 93 14 28 8 6 22 93 51 66 80 93 70 82 100 100 100
13 79 100 100 100 100 100 100 100 100 100 32 79 100 100 100 100 86 78 4 1 4 5 11 90 99 97 100 67 37 100 27 3 85 97 86 100 100 100 100 89 94 100 100
100 100 100 100 100 100 100 100 100 93 98 100 93 43 97 100 100 91 54 6 4 3 26 1 39 100 97 100 100 89 100 70 5 100 100 100 100 100 100 91 89 100 100 100
100 100 100 100 100 100 100 100 100 100 10 91 100 100 100 86 100 71 5 5 5 4 2 1 68 100 100 100 100 100 92 15 5 5 100 100 100 100 100 100 100 100 100 56
100 100 100 100 100 100 100 100 99 100 56 90 97 81 100 100 98 14 87 12 24 11 1 0 0 65 79 100 100 100 90 53 5 1 100 100 100 80 85 85 100 100 100 100
100 100 100 100 100 100 100 100 100 100 96 81 90 100 74 100 100 99 75 8 17 17 3 5 0 3 16 100 100 100 100 100 80 98 22 83 5 100 100 100 100 100 100 100
100 100 100 100 100 100 100 100 100 100 100 100 100 100 100 100 100 98 32 100 100 35 9 73 5 4 5 75 100 100 100 100 87 93 10 4 4 100 100 100 100 100 100 100
100 100 100 100 100 100 100 100 100 100 100 85 89 95 82 100 88 83 100 100 99 6 7 93 20 8 33 75 97 100 100 100 99 100 100 14 98 100 100 100 100 100 100 100
100 98 89 100 99 100 100 100 100 100 100 82 20 52 81 100 100 100 100 100 14 5 6 69 94 35 2 36 100 100 100 98 77 91 100 76 100 100 100 100 93 100 100 100
89 99 58 57 51 87 96 100 100 100 100 95 46 58 16 100 100 100 100 100 14 4 5 6 84 68 12 100 100 100 100 100 100 100 100 78 100 100 100 95 100 100 100 100
100 100 100 100 86 99 100 100 100 100 100 87 92 47 100 100 100 100 100 94 16 4 5 34 6 8 100 100 100 100 100 40 87 6 28 100 100 100 100 100 100 100 100 100
100 100 100 100 100 100 96 100 100 100 100 22 78 92 100 100 100 100 100 87 90 100 6 29 69 6 71 100 100 100 98 99 68 2 22 100 100 100 100 100 100 100 100 100
100 100 100 100 100 100 100 100 100 100 100 98 61 88 100 83 100 100 100 100 100 54 90 29 48 68 3 100 100 100 100 98 98 82 100 100 100 100 100 100 100 100 100 100
100 100 100 100 100 100 100 100 100 100 40 20 75 73 100 100 95 99 100 100 100 58 89 91 54 5 13 85 100 100 96 22 80 100 100 100 100 100 100 100 100 100 100 100
100 100 100 100 100 100 100 100 100 60 99 100 90 95 100 100 100 100 100 100 100 39 100 85 49 84 52 100 37 100 92 100 100 100 100 100 100 100 100 100 100 100 100 100
100 100 100 23 100 100 100 100 100 77 73 100 100 100 100 100 100 100 100 100 100 87 89 9 20 84 100 100 97 78 15 11 79 98 100 100 100 100 100 100 100 100 100 100
55 93 100 100 100 100 100 100 100 100 100 100 100 100 100 100 100 100 96 45 35 38 27 22 5 72 100 22 2 24 8 23 7 39 100 100 100 100 100 100 100 100 100 100
100 100 100 100 100 100 100 100 100 97 100 100 100 100 100 95 70 40 83 14 66 5 70 14 5 26 24 2 99 58 95 4 5 92 100 100 100 100 100 100 100 100 100 100
100 100 100 100 100 100 100 100 100 100 100 100 99 92 100 100 100 100 100 54 10 61 60 28 22 5 0 27 100 33 5 5 5 100 100 100 100 100 100 100 100 100 100 100
75 100 100 100 100 100 100 100 100 100 100 55 86 100 100 41 100 100 32 87 96 100 13 49 100 90 32 7 74 91 98 9 12 100 100 100 100 100 100 100 100 100 100 100
100 81 100 100 100 100 100 88 100 55 28 24 46 89 97 94 71 15 99 100 99 81 14 28 99 100 100 100 99 100 100 99 100 100 100 100 100 100 100 99 100 100 100 100
100 100 99 100 92 99 97 100 99 100 100 100 100 100 100 100 100 100 96 100 100 90 96 33 98 100 100 100 100 100 100 95 100 100 100 100 100 100 100 100 100 100 100 100
100 100 100 100 100 100 100 100 100 100 100 100 100 100 100 100 100 100 100 57 98 100 100 100 100 100 100 100 100 100 94 100 100 100 100 100 100 100 100 100 100 100 100 100
100 100 100 100 100 100 100 100 100 100 100 100 100 100 100 100 100 100 100 100 100 100 53 99 100 100 100 100 100 100 100 100 100 100 100 100 100 100 100 100 100 100 100 100
100 100 100 100 100 100 100 100 100 100 100 100 100 100 100 100 100 100 100 100 100 100 98 100 100 100 100 100 100 100 100 100 100 100 100 100 100 100 100 100 100 100 100 100
100 100 100 99 98 100 100 78 100 100 100 100 100 100 100 100 100 100 100 100 99 97 99 94 100 100 100 100 100 100 100 100 100 100 100 100 100 100 100 100 100 100 100 100

GFSNW_prec_cloud_087.txt.gz
Cloud_Cover
82 6 5 5 1 0 5 100 100 19 5 100 84 100 85 3 0 0 5 6 5 24 5 0 0 2 99 100 100 100 90 99 100 100 100 100 100 80 99 27 5 95 25 5
36 3 5 0 1 2 55 100 100 97 100 99 100 97 62 77 19 0 3 5 4 3 2 2 4 4 52 100 100 100 100 77 6 94 80 5 5 98 100 100 97 21 40 69
5 5 4 0 5 84 72 100 100 100 100 59 99 74 94 82 55 24 12 5 13 5 0 2 2 0 0 98 43 100 98 100 65 16 82 49 99 100 100 100 26 31 8 50
5 5 0 5 46 100 100 100 100 62 91 100 98 93 57 95 99 98 100 96 20 8 48 5 4 0 0 5 62 100 82 100 13 5 1 5 91 100 100 32 5 5 12 61
100 100 95 59 100 100 100 100 100 100 60 74 100 100 100 100 100 100 93 100 97 70 100 34 1 0 41 42 74 100 100 100 65 5 5 25 100 99 95 78 27 5 5 12
100 100 100 100 100 100 100 100 100 100 100 100 97 97 100 100 100 100 100 100 84 76 4 13 23 6 2 55 68 100 100 100 100 34 11 100 98 0 21 74 89 51 12 82
100 100 100 100 100 100 100 100 100 100 100 100 98 100 100 100 100 100 100 86 100 76 100 100 96 77 0 39 5 100 100 100 100 100 93 73 1 54 99 87 91 100 98 100
100 100 100 100 100 100 100 100 100 100 100 100 100 100 100 100 100 100 100 100 100 100 100 99 97 5 1 24 95 84 100 100 100 100 100 2 0 86 100 99 100 100 100 99
100 100 100 100 100 100 100 100 100 100 100 100 100 100 100 100 100 100 100 100 98 98 96 94 100 49 34 74 7 57 100 100 100 100 100 16 72 94 100 100 100 100 100 100
100 100 100 100 100 100 100 100 100 100 100 100 100 100 100 100 100 100 100 100 39 7 86 100 100 76 8 46 46 100 100 100 100 100 100 83 58 55 67 58 48 100 100 100
100 100 100 100 100 100 100 100 100 100 100 100 100 100 100 100 98 87 100 100 80 86 88 91 42 99 9 11 99 100 100 100 100 100 100 95 100 42 7 27 100 100 100 100
100 100 100 99 100 100 100 100 100 100 100 100 93 93 100 90 100 100 100 100 98 98 41 32 5 49 16 4 60 46 100 100 100 100 100 59 83 49 98 96 92 100 100 100
100 97 98 69 99 70 47 100 100 100 100 100 100 79 56 83 100 100 98 43 95 100 84 96 74 19 5 2 3 36 100 100 100 100 100 100 86 98 94 100 100 100 100 100
100 100 100 100 100 100 100 100 100 100 100 100 82 70 80 99 100 100 100 100 100 100 100 94 96 78 17 9 0 68 100 100 100 96 100 100 100 100 90 100 100 100 100 100
100 100 100 100 100 100 100 100 100 99 56 34 34 95 100 100 100 100 99 100 100 100 100 100 89 63 5 2 23 85 100 100 100 100 100 91 100 100 100 100 100 100 100 100
100 100 100 100 100 100 100 100 100 100 100 97 73 6 0 40 100 100 100 100 100 100 71 79 94 6 88 87 11 59 100 100 99 100 100 55 64 100 100 100 100 100 100 100
100 100 100 100 100 100 100 91 99 100 100 100 100 99 19 100 100 96 100 100 100 100 100 100 77 19 67 78 87 17 100 94 96 8 5 42 64 100 100 100 100 100 100 100
100 100 100 100 100 100 100 100 100 100 100 100 98 100 100 98 100 100 100 100 100 100 100 100 57 6 5 13 92 100 100 93 9 0 2 7 98 100 100 100 100 100 100 100
100 100 100 100 100 100 100 100 100 100 100 96 100 100 100 100 100 100 100 100 100 100 99 40 15 99 59 0 72 100 100 99 6 5 56 4 99 100 100 100 100 100 100 100
100 100 100 100 100 100 100 100 100 100 100 100 100 100 100 100 100 100 100 92 100 100 74 14 100 10 4 0 1 99 100 100 100 67 86 100 100 100 100 100 100 100 100 100
100 100 100 100 100 100 100 100 100 100 100 100 100 100 100 100 100 100 99 98 99 71 89 98 79 93 19 13 20 74 100 100 60 100 42 100 100 100 100 100 100 100 100 100
100 100 100 100 100 100 100 100 100 84 60 96 100 100 100 100 100 81 97 100 99 81 65 93 100 43 87 100 100 100 100 99 34 11 14 95 100 100 100 100 100 100 100 100
100 83 67 100 100 100 100 100 100 78 39 97 100 100 100 100 100 90 100 100 71 87 100 70 78 100 100 100 100 100 100 100 97 97 100 98 100 100 100 100 100 100 100 100
100 100 100 100 100 100 100 100 100 100 100 97 93 100 100 100 100 100 100 100 99 100 100 75 100 100 100 100 100 100 100 98 100 100 100 100 100 100 100 100 100 100 100 100
100 100 100 100 100 100 100 100 100 100 100 100 100 100 97 100 98 100 95 100 100 99 76 100 100 100 100 100 100 100 100 100 100 100 100 100 100 100 100 100 100 100 100 100
100 100 100 100 100 100 100 100 100 100 100 100 100 100 100 100 100 100 100 100 100 100 99 100 100 100 100 100 100 100 100 100 100 100 100 100 100 100 100 100 100 100 100 100
100 100 100 100 100 100 100 100 100 100 100 100 100 100 100 100 100 100 100 100 100 94 96 100 100 100 100 100 100 100 100 100 100 100 100 100 100 100 100 100 100 100 100 100

GFSNW_prec_cloud_090.txt.gz
Cloud_Cover
100 100 100 98 99 57 56 32 100 92 5 100 100 100 40 0 0 0 0 0 0 0 0 1 5 84 100 100 100 100 100 100 100 100 100 100 100 100 99 93 5 29 54 100
5 5 35 90 32 5 22 99 95 96 87 100 99 100 88 5 5 0 0 0 4 2 1 2 1 5 88 42 11 43 95 100 80 100 100 100 100 100 100 89 52 44 77 100
24 5 7 5 8 5 28 90 100 99 100 100 35 78 62 52 4 5 1 3 2 5 5 18 16 5 73 47 81 30 8 12 99 100 100 100 100 100 100 100 98 100 52 100
5 5 5 10 14 4 47 100 81 20 94 98 100 82 99 84 98 5 20 27 5 33 58 20 5 3 14 5 0 5 64 5 56 99 100 100 100 100 100 87 69 4 82 77
5 4 11 25 5 1 95 98 100 38 5 54 61 100 100 88 16 36 74 66 100 100 98 82 5 5 5 4 1 7 91 82 29 94 86 100 6 5 8 5 5 0 2 7
5 6 6 74 16 6 69 99 100 100 74 79 37 78 65 30 34 97 100 100 100 100 100 100 80 100 28 87 5 11 92 100 66 51 70 100 97 5 5 3 5 5 5 33
46 100 95 57 74 98 73 100 100 100 100 99 89 86 100 100 100 100 100 100 100 100 100 99 69 84 82 16 2 0 5 99 100 97 100 91 9 1 0 0 0 5 5 43
100 100 100 100 100 100 79 100 100 100 100 100 100 100 100 100 100 100 100 100 100 100 100 100 100 92 22 3 0 0 0 41 100 95 100 72 100 53 0 0 0 4 4 36
100 100 100 100 100 100 100 100 100 100 100 100 100 100 100 100 100 100 100 100 100 100 100 100 100 99 53 30 5 17 0 49 100 100 100 96 100 100 95 5 0 100 98 78
100 100 100 100 100 100 100 100 100 100 100 100 100 100 100 100 100 100 100 100 100 100 100 100 100 93 95 48 5 78 96 99 100 100 100 86 100 96 96 12 6 100 90 100
100 100 100 100 100 100 100 100 100 100 100 100 100 100 100 100 100 100 100 100 96 100 100 97 48 56 13 41 2 0 29 100 100 100 100 100 100 100 100 90 78 77 27 100
100 100 100 100 100 100 100 100 100 100 100 100 100 100 100 100 100 100 100 38 99 100 100 83 63 69 17 14 32 0 19 100 100 100 100 100 100 100 100 100 100 88 42 100
100 100 100 100 100 100 100 100 100 100 100 100 100 100 100 100 100 100 100 94 93 100 100 100 79 58 60 41 5 5 2 100 100 100 100 100 100 100 88 77 16 52 99 99
100 100 100 100 100 100 100 100 100 100 100 100 100 100 100 100 100 100 100 100 100 100 100 100 100 100 91 5 12 4 8 96 100 100 100 100 100 48 8 32 34 98 92 100
100 100 100 100 100 100 100 100 100 100 100 100 92 73 100 100 100 100 100 100 100 100 100 100 100 100 74 5 5 2 0 2 99 100 100 100 100 99 100 23 74 100 87 75
100 100 100 100 100 100 100 100 100 100 100 100 97 79 90 100 100 100 94 86 100 100 100 100 90 6 77 95 20 33 1 2 45 100 100 100 50 5 17 18 80 81 93 94
84 100 100 100 100 100 100 90 73 100 100 100 100 45 16 43 76 94 100 99 20 100 100 89 25 16 86 32 8 98 3 0 69 100 100 100 100 5 62 63 100 100 90 100
73 56 100 100 100 100 100 100 100 100 100 100 100 52 95 45 10 8 96 100 100 100 100 100 100 81 89 99 38 100 1 0 0 89 100 100 82 19 97 100 97 100 100 100
68 89 100 100 100 100 100 100 100 100 100 100 100 100 99 99 20 71 100 100 100 100 100 100 100 91 94 79 100 23 0 0 17 6 94 100 100 96 100 100 100 100 100 100
100 100 100 100 100 100 100 100 100 100 100 93 100 100 100 100 100 100 100 100 100 100 100 100 100 34 8 93 100 26 5 3 100 99 100 100 100 100 100 100 100 100 100 100
100 100 100 100 100 100 100 100 94 95 100 100 100 100 100 100 100 100 100 100 98 100 100 77 92 77 13 74 65 28 6 5 100 100 100 100 100 98 100 100 100 100 100 100
100 100 100 100 100 100 100 100 100 100 100 100 100 100 99 100 100 100 100 100 100 92 91 94 100 23 93 100 100 100 94 21 68 100 100 100 100 91 100 100 100 100 100 100
100 100 100 100 100 95 84 99 100 100 100 100 100 100 100 100 100 100 100 100 70 88 100 100 100 100 100 100 100 100 100 100 100 100 100 100 100 99 84 100 100 100 100 100
100 96 17 88 62 96 100 99 100 100 100 100 95 100 100 100 100 100 100 99 98 100 100 95 100 100 100 100 100 100 100 100 100 100 100 100 100 100 100 100 100 100 100 100
100 94 91 58 96 100 100 97 100 100 100 100 100 100 100 100 100 100 100 100 99 100 92 99 89 100 100 100 100 100 100 100 100 100 100 100 100 100 100 100 100 100 100 100
100 100 100 100 99 100 100 100 100 100 100 100 100 100 100 100 100 100 100 99 100 100 99 100 96 100 100 100 100 100 100 100 100 100 100 100 100 100 100 100 100 100 100 100
100 100 100 100 100 100 100 100 100 100 100 100 100 100 100 100 100 100 100 100 100 100 100 91 90 100 100 100 100 100 100 100 100 100 100 100 100 100 100 100 100 100 100 100

GFSNW_prec_cloud_093.txt.gz
Cloud_Cover
85 100 100 100 97 99 94 98 95 70 5 100 99 100 5 0 0 0 0 0 0 0 0 0 0 6 100 100 100 100 100 100 100 100 100 100 100 100 84 2 2 6 82 100
100 100 100 100 100 100 81 100 67 100 100 96 100 72 18 5 4 1 0 0 0 0 0 0 0 0 1 8 77 100 100 100 100 100 100 100 100 100 51 61 17 65 58 97
100 100 96 5 19 88 90 100 93 71 100 49 92 78 95 57 5 5 5 2 1 72 69 5 4 5 0 2 69 5 14 5 89 100 100 100 100 100 100 76 30 100 100 100
100 98 100 50 5 62 98 100 60 27 93 100 100 98 41 25 91 31 24 28 5 2 5 7 21 5 0 0 0 5 6 23 17 100 100 100 100 100 100 100 66 5 99 100
100 100 100 50 3 78 100 98 79 71 6 65 29 91 78 54 96 75 5 5 5 74 84 100 100 100 97 5 16 5 100 95 99 47 99 100 100 100 100 100 100 100 100 100
100 98 99 20 1 81 100 70 6 97 24 64 64 94 16 26 76 70 5 77 100 100 100 100 100 86 44 35 18 19 8 73 99 96 19 32 49 86 6 20 88 88 7 98
96 99 5 36 45 18 100 88 100 100 100 94 98 100 100 100 90 34 66 100 100 100 100 100 89 37 90 93 5 5 5 76 68 78 94 75 4 20 27 5 5 12 5 10
11 81 17 5 92 100 100 100 100 100 100 100 100 100 92 100 100 99 100 100 100 100 100 100 100 86 27 7 5 0 3 22 28 21 81 2 1 93 24 22 15 5 5 7
75 21 5 98 100 100 100 100 100 100 100 100 100 98 100 100 100 100 100 100 100 100 100 100 100 32 5 5 4 12 62 18 26 29 97 4 0 10 59 68 7 5 5 3
77 70 97 100 100 100 100 100 100 100 100 97 100 100 100 100 100 100 100 100 100 100 100 100 96 100 100 61 5 75 96 99 95 49 100 18 98 100 100 100 74 9 22 5
100 100 100 100 100 100 100 100 100 100 100 100 100 100 100 100 100 100 100 100 98 100 100 100 100 100 30 31 5 5 25 95 100 89 100 99 100 98 100 100 100 100 92 32
100 100 100 100 100 100 100 100 100 100 100 100 100 100 100 100 100 100 100 85 100 100 100 100 100 100 62 86 79 5 0 5 100 100 100 100 100 100 100 100 100 100 99 63
100 100 100 100 100 100 100 100 100 100 100 100 100 100 100 100 100 100 99 77 100 100 100 100 100 99 100 99 60 5 2 2 100 100 100 100 100 100 99 100 100 100 100 88
100 100 100 100 100 100 100 100 100 100 100 100 100 100 100 100 100 100 100 100 100 88 100 100 100 100 100 82 80 5 3 4 100 100 100 100 100 100 100 100 100 100 98 90
100 100 100 100 100 100 100 100 100 100 100 100 100 100 100 100 100 100 100 100 100 100 100 100 100 81 93 89 94 98 18 1 97 100 100 100 100 100 100 99 100 99 83 16
100 100 100 100 100 100 100 100 100 100 100 100 100 100 100 100 100 100 100 100 100 100 100 100 51 54 62 55 51 84 4 0 1 100 100 100 100 99 50 100 61 90 89 99
100 100 100 100 100 100 100 100 100 100 100 100 100 100 100 100 100 100 100 100 100 100 100 100 92 82 93 100 94 100 5 3 5 74 100 100 100 100 100 99 100 97 97 99
100 100 100 100 100 100 100 100 100 100 100 100 100 56 86 24 28 26 95 100 100 100 100 100 100 97 100 100 100 100 37 1 0 0 99 100 100 100 100 100 90 98 60 100
100 98 100 100 100 100 100 100 100 100 99 100 95 49 84 100 100 85 85 8 97 90 100 86 81 90 96 100 100 100 93 1 0 0 0 36 100 100 100 100 100 100 100 100
100 100 100 100 100 100 100 100 100 100 100 99 76 61 87 100 99 55 100 93 100 100 90 100 100 27 4 15 100 100 85 5 0 0 0 0 0 91 100 100 100 100 100 100
100 100 100 100 100 100 100 100 100 97 99 100 76 68 100 100 100 100 100 100 99 100 66 89 62 31 6 46 12 100 68 4 0 0 0 2 13 100 100 100 100 100 100 100
100 100 100 100 100 100 100 95 100 100 61 99 100 100 100 100 100 100 100 75 100 100 63 98 54 14 84 77 96 100 100 78 5 5 5 24 99 100 100 100 100 100 100 100
100 100 100 100 100 86 78 100 99 96 97 100 100 100 100 100 100 98 100 100 95 100 100 83 34 100 100 99 100 100 100 100 100 82 22 35 100 100 100 100 100 100 100 100
100 100 70 100 100 97 94 100 89 96 100 100 100 100 100 100 100 100 100 100 99 100 100 86 100 100 100 100 100 100 100 100 100 100 100 98 100 100 100 100 100 100 100 100
100 100 100 100 100 100 95 99 96 100 100 100 100 100 100 100 100 100 100 100 100 100 100 100 100 100 100 100 100 100 100 100 100 100 100 100 100 100 100 100 100 100 100 100
98 44 100 91 99 99 100 100 100 100 100 100 100 100 100 100 100 100 100 100 100 100 100 100 100 100 100 100 100 100 100 100 100 100 100 100 100 100 100 100 100 100 100 100
97 80 96 98 98 96 100 100 100 100 100 100 100 100 100 100 100 100 100 100 100 100 100 100 91 96 100 100 100 100 100 100 100 100 100 100 100 100 100 100 100 100 100 100

GFSNW_prec_cloud_099.txt.gz
Cloud_Cover
0 5 46 8 92 69 100 100 100 47 100 88 97 50 5 0 3 0 0 0 0 0 0 5 2 0 0 0 0 2 43 78 61 90 100 100 100 100 100 100 100 100 100 100
5 6 8 10 98 100 100 100 66 69 100 98 100 92 100 95 19 1 0 0 0 0 0 0 0 0 0 0 1 3 97 35 9 11 100 100 100 100 100 100 100 100 100 100
5 5 4 6 100 100 100 100 100 98 100 64 94 100 100 100 67 33 17 5 4 2 0 4 4 5 24 13 51 54 5 0 20 72 100 100 100 100 100 100 100 100 100 100
5 5 5 5 100 100 100 100 41 99 100 90 84 95 98 100 100 100 98 57 13 32 74 53 100 99 98 100 92 10 83 11 4 32 100 100 100 100 100 100 100 100 100 100
8 6 5 34 64 91 100 100 76 100 100 100 100 88 86 100 100 100 100 100 100 100 98 99 100 100 96 93 100 100 84 86 96 78 98 43 100 100 100 100 100 100 100 84
47 52 87 70 70 100 100 95 87 78 89 100 100 97 90 100 100 100 100 100 100 99 99 100 35 25 56 78 63 100 46 46 94 79 75 98 6 100 100 100 100 100 100 100
70 5 5 5 48 84 100 21 67 94 46 100 100 75 100 100 100 100 100 98 98 95 37 31 96 14 17 72 54 75 84 57 57 5 96 54 96 39 79 100 100 100 100 7
40 5 5 5 8 5 94 90 87 89 94 100 98 100 81 100 99 94 100 100 100 41 84 99 91 84 100 38 42 85 96 98 96 62 8 21 90 89 98 98 99 100 100 74
60 5 53 5 84 37 72 50 98 97 100 96 100 100 100 100 100 100 100 88 99 100 100 100 100 100 100 100 98 92 100 100 100 95 100 92 44 72 35 99 100 70 100 98
57 25 8 5 57 89 14 91 98 100 100 93 100 100 100 100 100 100 100 96 100 100 100 100 100 100 100 100 92 100 99 98 85 98 100 87 5 47 43 100 56 85 87 98
99 39 9 5 5 8 7 92 100 100 100 100 100 95 100 100 92 100 100 100 100 100 100 100 100 100 100 100 100 100 96 99 96 100 100 99 88 69 19 50 43 60 95 98
100 22 5 5 5 18 95 100 100 100 98 100 96 97 40 99 100 100 100 100 100 100 100 100 100 100 100 100 100 100 100 100 100 82 71 71 88 57 96 5 5 52 69 89
100 67 5 15 100 100 100 100 100 100 100 100 96 100 100 100 100 100 100 100 100 100 100 100 100 100 100 100 100 97 100 100 98 75 70 100 100 74 24 100 100 96 100 22
100 100 100 100 100 100 100 100 100 100 100 100 100 100 100 100 100 100 100 100 100 100 100 100 100 100 100 100 100 100 100 78 67 100 100 100 95 100 100 100 100 100 97 100
100 100 100 100 100 100 100 100 100 100 100 100 100 100 100 100 100 100 100 100 100 100 100 100 100 100 100 100 100 100 96 97 100 100 100 100 100 100 100 100 100 100 100 100
100 100 100 100 100 100 100 100 100 100 100 100 100 100 100 100 100 100 100 100 100 100 100 100 100 100 100 100 100 100 100 100 100 100 100 100 100 100 100 100 100 100 100 100
100 100 100 100 100 100 100 100 100 100 100 100 100 100 98 100 100 100 100 100 100 100 100 100 100 100 100 100 100 100 100 100 61 97 100 100 100 100 100 100 100 100 100 100
100 100 100 100 100 100 100 100 100 100 100 100 100 100 100 100 100 100 84 100 100 100 100 100 100 100 100 100 100 100 90 97 92 69 100 100 100 100 100 100 99 100 100 100
100 100 100 100 100 100 100 100 100 100 100 100 100 100 100 100 100 100 100 100 99 76 100 100 100 100 100 100 100 100 46 85 100 54 100 74 97 100 100 100 13 76 74 100
100 100 100 100 100 100 100 100 100 100 100 100 100 100 100 100 100 100 96 97 99 98 96 82 100 67 98 100 100 100 49 44 66 11 24 5 75 98 11 78 100 49 76 100
100 100 100 100 100 100 100 100 100 100 100 100 100 100 100 100 100 100 45 87 75 76 68 95 96 93 76 74 100 100 100 97 14 36 27 46 32 5 18 0 5 100 77 100
100 100 100 100 100 100 100 100 88 100 100 100 97 47 100 100 100 100 100 100 100 100 100 93 69 95 100 100 88 100 96 27 8 5 23 60 44 18 45 23 65 96 100 100
100 100 100 100 100 96 65 100 100 100 100 92 38 68 100 94 91 89 100 100 83 73 95 59 90 100 100 100 100 100 77 86 61 79 100 100 100 74 96 100 100 100 100 100
100 100 100 100 100 100 100 100 100 100 100 100 100 100 100 79 83 69 100 35 72 100 99 61 100 100 100 100 100 87 80 82 100 100 100 100 100 100 100 100 100 100 100 100
100 100 100 100 100 100 100 100 99 100 100 96 100 79 73 77 91 71 47 100 100 98 100 100 100 100 100 99 100 100 100 97 100 100 100 100 100 100 100 100 100 100 100 100
100 93 100 100 100 100 100 100 100 100 100 100 100 100 97 100 100 99 81 99 100 100 100 100 100 100 100 100 100 100 99 100 100 100 100 100 100 100 100 100 100 100 100 100
100 100 100 100 98 100 100 100 100 100 100 100 100 100 100 94 100 100 100 100 100 100 100 100 100 100 100 100 100 100 100 100 100 100 100 100 100 100 100 100 100 100 100 100

GFSNW_prec_cloud_102.txt.gz
Cloud_Cover
5 5 0 3 5 5 67 100 100 6 46 100 98 65 69 22 8 87 2 0 0 0 0 0 0 0 5 36 18 4 0 0 5 0 22 100 24 81 100 100 80 100 100 100
5 12 81 7 14 13 53 100 49 5 90 100 100 94 91 94 100 66 60 33 1 0 0 0 0 2 4 0 0 0 23 2 12 0 0 59 58 100 100 100 100 83 100 97
6 58 68 69 21 11 90 100 98 26 97 100 100 100 76 91 100 99 76 57 49 5 2 2 2 5 5 4 3 0 1 4 61 88 22 18 12 100 100 100 100 100 49 100
57 5 6 8 92 11 100 100 62 59 100 100 100 100 100 100 100 60 6 72 10 86 77 6 11 5 5 5 5 2 1 86 48 3 3 89 100 90 100 100 100 100 100 100
45 8 5 5 42 22 100 100 100 100 100 100 100 77 5 86 100 100 100 97 15 100 91 92 100 90 100 100 100 100 100 60 6 30 0 2 100 100 100 100 100 100 100 54
100 100 6 7 65 64 100 99 100 100 100 100 100 99 100 66 44 93 70 98 79 87 94 49 5 5 5 5 22 4 5 80 100 13 11 1 2 8 100 100 100 100 100 100
100 99 2 70 59 70 100 100 100 100 78 100 100 98 100 100 90 99 99 70 51 91 60 5 12 6 0 0 9 38 10 100 100 72 10 87 0 0 77 100 100 100 100 100
100 83 45 5 66 91 98 100 100 97 57 99 100 100 100 100 99 58 100 76 30 6 45 4 4 4 8 4 3 5 7 86 100 100 91 12 57 86 98 64 100 98 100 100
100 90 96 96 5 5 72 99 90 61 87 99 100 100 69 75 100 99 100 60 40 57 83 64 19 99 100 100 79 6 89 19 91 100 47 4 3 74 70 5 100 100 100 82
100 88 100 92 55 24 7 10 80 100 88 94 100 100 97 92 99 100 74 85 72 35 97 75 100 100 100 93 100 100 59 45 29 37 100 22 70 100 58 5 39 100 100 100
87 40 80 100 100 5 6 20 29 82 88 96 100 99 87 99 92 100 100 100 99 100 100 100 100 100 98 100 100 100 100 94 98 96 100 70 2 0 13 13 26 100 100 100
5 7 12 88 100 97 5 40 74 66 94 99 100 100 7 64 62 97 100 100 100 100 100 100 100 100 100 98 100 100 100 82 99 53 26 92 69 89 57 32 7 66 59 6
100 98 70 74 8 22 43 17 56 89 100 100 100 100 95 25 71 100 99 100 100 100 100 100 100 100 100 100 75 100 100 100 100 100 100 100 100 77 9 4 5 40 20 75
100 93 98 31 5 73 72 100 63 100 100 100 100 98 100 100 100 100 100 100 100 100 100 100 100 100 100 100 100 100 100 100 100 100 55 98 82 61 87 54 87 94 97 82
100 100 98 86 53 84 93 100 100 100 100 100 100 100 100 100 100 100 100 100 100 100 100 100 100 100 100 100 100 100 100 100 100 100 100 100 80 100 100 100 100 100 100 100
100 100 100 100 92 7 97 100 91 99 100 100 100 100 100 100 100 100 100 100 100 100 100 100 100 100 100 100 100 100 100 72 89 80 100 100 100 100 100 100 100 100 99 100
100 100 100 100 100 98 100 100 100 100 100 100 100 100 100 100 100 100 100 100 100 100 100 100 100 100 100 100 100 100 100 100 99 81 100 100 100 100 100 100 100 93 100 100
100 100 100 100 100 100 100 100 100 100 100 100 100 100 100 100 100 100 100 100 100 100 100 100 100 100 100 100 100 100 100 100 100 100 98 100 100 100 100 100 100 50 100 100
100 100 100 100 100 100 100 100 100 100 100 100 100 100 100 100 100 100 100 100 100 100 100 100 100 100 100 100 100 98 73 100 93 90 96 70 100 100 100 100 100 100 100 100
100 100 100 100 100 100 100 100 100 100 100 100 100 96 98 99 100 100 100 100 100 100 100 100 100 100 100 100 100 100 33 84 100 100 95 28 38 74 100 100 100 92 92 100
100 100 100 100 100 100 100 100 100 100 100 100 100 100 100 100 100 97 88 99 99 100 90 79 98 100 100 100 100 100 94 27 42 41 28 15 12 21 5 61 95 100 100 98
100 100 100 100 100 100 100 100 94 81 100 100 100 100 100 100 100 100 86 46 79 77 46 97 98 100 100 100 100 100 100 47 45 84 5 13 30 20 41 45 24 42 91 100
100 100 100 100 100 100 100 100 100 100 100 100 100 100 100 100 100 100 100 100 100 76 17 76 99 100 100 100 99 90 93 90 88 84 83 89 99 100 100 100 99 100 100 100
100 100 100 100 100 100 100 100 100 100 100 100 100 100 100 100 100 94 100 98 91 100 97 84 100 99 100 100 100 100 100 100 100 100 94 100 100 100 100 100 100 100 100 100
100 100 100 100 100 100 100 100 100 100 100 100 100 94 56 67 99 47 36 100 85 97 100 100 100 92 99 100 100 100 100 100 100 100 96 100 100 100 100 100 100 100 100 100
100 100 100 100 100 100 100 100 100 100 100 94 59 100 100 76 59 79 70 64 98 100 100 100 100 100 100 100 100 100 94 100 100 100 99 100 100 96 100 100 100 100 100 100
100 100 100 100 100 100 100 100 100 100 98 95 91 99 72 99 91 99 100 100 100 100 100 100 100 100 100 100 100 100 100 100 100 100 100 100 100 100 99 100 100 100 100 100

GFSNW_prec_cloud_105.txt.gz
Cloud_Cover
5 5 5 12 0 0 5 83 96 3 26 98 100 100 8 2 0 0 12 95 6 0 15 0 0 0 38 100 100 100 3 4 0 10 100 96 89 100 60 97 1 0 98 100
6 5 20 7 94 5 30 100 100 1 4 100 86 97 8 4 0 0 98 100 2 0 0 0 0 0 3 100 83 98 13 0 2 0 11 100 6 86 100 32 17 0 28 100
5 5 5 26 93 94 35 99 82 5 13 43 82 100 72 66 42 4 73 7 57 3 0 0 0 0 0 1 5 17 0 0 0 16 0 8 3 74 100 100 100 76 87 100
5 63 7 5 57 32 80 100 59 25 38 58 43 100 65 100 100 80 89 11 5 0 2 73 12 0 0 0 0 0 0 1 0 0 0 0 5 100 100 100 100 100 100 100
5 24 100 42 57 36 100 100 97 9 5 5 92 100 100 100 100 100 100 6 23 97 74 44 12 1 5 4 1 24 91 5 3 0 0 0 4 98 100 91 72 100 100 100
5 6 99 86 97 17 100 100 39 100 99 100 100 100 100 100 100 100 98 100 98 99 98 64 77 49 4 2 0 10 5 35 41 4 1 0 0 43 11 18 97 100 100 100
46 100 100 100 100 65 56 81 100 100 100 100 100 100 100 71 82 9 2 4 40 76 93 78 4 0 0 0 0 0 0 4 6 3 92 60 0 0 0 5 98 100 100 94
100 100 100 100 100 26 54 25 100 100 86 100 100 100 100 79 57 78 25 28 32 14 6 5 1 1 0 0 0 0 0 47 27 100 98 16 0 100 16 43 53 100 100 100
100 100 100 100 100 100 94 29 85 100 100 100 48 31 93 81 62 5 6 96 89 8 7 6 12 6 98 92 100 100 5 3 72 99 98 5 99 100 100 92 98 100 97 100
100 100 100 100 100 100 23 5 41 98 100 46 5 5 31 84 66 100 99 94 100 100 98 73 74 100 78 100 100 100 100 22 24 94 100 6 100 59 100 100 30 100 100 100
100 100 99 70 75 100 44 10 7 96 80 48 28 62 72 82 56 79 98 99 100 100 97 100 100 100 100 100 100 100 100 76 72 88 100 99 32 4 43 49 10 21 100 100
100 96 96 5 5 22 82 32 5 51 100 100 100 100 100 98 22 22 75 100 100 100 100 100 100 100 100 100 100 100 100 72 43 6 99 69 100 92 98 62 5 0 71 100
100 99 19 99 24 5 23 14 95 100 100 100 99 94 46 12 8 10 34 89 100 33 40 100 100 100 100 100 100 100 100 100 100 97 74 49 100 88 98 21 5 4 99 100
100 100 100 27 100 29 29 94 86 99 100 98 90 80 70 5 77 61 51 94 54 66 53 59 100 100 98 44 81 100 100 100 100 100 100 100 100 100 98 51 16 24 99 21
100 100 100 82 61 13 56 83 74 85 100 90 51 85 100 100 100 100 100 100 100 100 100 100 100 100 66 67 51 100 100 100 100 100 100 100 100 79 87 99 90 100 78 100
100 100 100 100 100 57 100 100 100 99 100 100 100 100 100 100 100 100 100 100 100 100 100 100 100 100 100 100 100 100 100 100 100 100 100 80 100 100 84 100 100 99 99 100
100 100 100 100 100 100 100 97 98 95 95 100 100 100 100 100 100 100 100 100 100 100 100 100 100 100 100 100 100 100 100 100 100 100 100 89 100 100 100 100 100 100 100 100
100 100 100 100 100 99 90 91 99 100 100 100 100 100 100 100 100 100 100 100 100 100 100 100 100 100 100 100 100 100 100 100 100 100 100 100 100 100 100 100 100 100 100 98
100 100 100 100 100 100 100 98 100 100 100 100 100 100 100 100 100 100 100 100 100 100 100 100 100 100 100 100 89 100 98 99 100 100 100 100 100 100 100 100 100 97 100 100
100 100 100 100 100 93 100 100 100 100 100 100 100 85 99 99 100 100 100 100 100 100 100 100 100 100 100 100 100 6 44 98 100 100 100 100 100 100 100 100 100 100 100 48
100 100 100 100 100 100 100 100 100 100 100 100 93 60 91 83 100 100 93 100 100 100 100 100 100 100 100 100 100 100 48 5 43 92 100 92 97 100 99 100 100 100 100 100
100 100 100 100 100 100 100 100 94 99 50 88 100 98 100 96 98 100 100 85 100 99 83 100 100 100 100 100 100 100 100 100 81 78 88 62 49 40 25 82 82 96 100 100
100 100 100 100 100 100 89 100 100 100 100 100 100 100 100 100 98 100 96 100 91 68 95 100 100 100 100 100 82 98 100 100 100 100 98 75 77 100 100 100 100 100 100 100
100 100 100 100 100 100 100 100 100 100 100 100 100 100 100 100 100 100 85 59 66 98 94 95 100 95 99 99 100 100 100 100 100 100 99 91 100 100 100 100 100 100 100 100
100 100 100 100 100 100 100 100 100 100 100 100 100 100 100 100 100 97 36 100 100 99 100 100 88 66 35 100 99 82 86 95 93 83 80 85 87 99 100 100 100 100 100 100
100 100 100 100 100 100 100 100 100 100 100 100 100 100 100 96 78 95 100 92 100 99 100 83 69 100 94 99 100 100 95 20 67 61 58 59 69 87 99 100 100 100 100 100
100 100 100 100 100 100 100 100 100 99 100 99 92 100 86 55 92 100 100 100 86 94 99 96 100 99 95 100 99 100 100 86 37 59 60 86 95 83 85 100 100 100 100 100

GFSNW_prec_cloud_111.txt.gz
Cloud_Cover
46 5 5 5 0 42 14 36 18 88 89 76 98 75 5 5 13 5 49 5 0 0 0 2 81 100 100 100 100 100 100 90 69 100 100 100 99 100 60 98 100 48 94 12
5 5 5 3 5 24 5 43 5 61 87 53 74 5 49 99 100 81 46 5 1 3 43 92 4 56 100 100 100 100 100 100 100 100 100 100 84 58 13 5 32 74 100 18
24 5 5 2 5 59 41 50 38 22 70 61 81 69 10 49 65 24 17 5 3 5 7 100 33 3 100 100 100 100 100 100 17 5 46 100 99 1 8 56 6 60 100 1
5 5 5 5 15 94 36 81 48 37 69 82 76 97 5 5 74 47 61 32 98 88 79 100 32 5 2 82 100 100 100 54 65 5 4 6 6 5 1 26 5 95 90 19
5 0 0 5 76 85 89 88 73 77 6 10 5 5 27 5 69 100 99 11 47 89 100 91 14 2 0 0 3 100 100 92 7 100 15 3 0 0 0 0 0 67 35 2
5 4 6 1 11 82 88 74 96 97 74 5 24 14 5 99 100 90 100 100 100 100 94 96 96 69 28 3 0 2 61 49 62 22 0 5 2 0 0 0 0 2 43 2
5 5 29 11 49 13 5 76 90 99 90 69 96 72 98 100 100 85 100 99 100 89 100 89 23 98 20 2 0 0 1 3 3 4 0 2 0 0 0 0 0 0 3 0
5 5 96 98 2 56 94 100 98 99 84 11 94 100 100 100 100 100 100 100 100 44 39 51 4 1 0 0 0 1 2 2 8 5 3 0 0 3 4 25 18 5 4 15
5 21 89 20 32 100 96 100 64 97 93 47 99 100 100 100 100 100 100 91 100 87 72 5 29 6 1 2 0 16 100 100 70 78 14 3 0 4 86 82 82 38 3 62
5 5 20 41 100 100 100 100 57 92 100 100 100 100 100 100 100 100 24 98 100 26 58 77 84 7 3 78 100 100 97 100 98 100 32 2 46 93 42 70 100 100 98 100
51 5 54 96 100 100 100 100 82 82 77 44 77 89 90 75 42 85 8 43 68 95 100 99 84 100 100 100 100 100 100 100 100 100 90 45 12 8 82 99 100 100 100 100
5 5 87 99 100 100 100 100 95 99 100 38 14 34 11 5 6 56 78 70 70 100 100 100 100 100 100 100 100 100 100 100 100 100 100 100 99 98 100 100 65 100 100 100
5 5 75 78 100 100 100 60 100 100 100 32 58 39 35 3 5 4 100 100 99 65 100 100 100 100 100 100 100 100 100 100 100 83 87 100 98 100 100 100 100 100 100 100
15 87 100 85 98 100 100 75 100 98 94 98 15 88 81 73 11 20 100 96 84 84 100 100 100 100 100 100 100 100 100 100 100 100 100 100 98 100 100 97 100 90 76 72
3 5 17 75 100 100 100 91 100 100 90 100 91 30 14 6 5 78 80 51 99 98 100 100 100 100 100 100 100 100 100 100 100 100 100 100 100 100 100 100 100 98 91 96
5 23 100 100 100 100 100 100 89 100 99 100 69 3 4 5 5 23 51 99 67 5 100 100 100 78 100 100 100 100 100 100 100 100 100 100 100 100 100 97 84 100 99 98
5 92 100 100 100 99 100 67 25 56 92 100 100 16 80 97 100 100 100 100 100 100 100 100 100 98 100 100 96 65 100 87 98 100 100 94 100 100 100 100 100 86 100 100
58 100 100 100 100 100 100 99 100 100 100 100 99 64 97 100 100 100 100 100 100 100 100 100 100 100 100 99 100 100 96 98 96 96 94 100 95 95 94 100 100 92 100 100
100 100 100 100 100 100 100 100 100 89 73 95 100 100 100 100 100 100 100 100 100 100 100 100 100 100 100 100 100 100 99 100 100 100 100 100 100 100 100 100 100 100 77 100
100 100 100 100 100 100 100 100 100 100 100 100 100 100 100 100 100 100 100 100 100 100 100 100 100 100 100 100 100 100 100 100 100 100 100 99 100 100 100 100 100 100 100 100
100 100 100 100 100 100 100 100 100 99 100 100 100 100 100 100 100 100 100 100 100 100 100 100 100 100 100 100 100 100 98 100 100 100 100 100 100 100 100 100 59 100 100 100
100 100 100 100 100 100 96 77 76 100 100 100 100 100 100 100 100 100 100 100 100 100 100 100 100 100 100 100 100 100 100 100 99 88 98 100 100 100 100 100 100 100 100 100
100 100 100 100 100 100 96 86 100 100 100 100 100 100 92 99 100 100 100 100 100 100 100 100 100 97 97 72 88 58 76 73 91 75 47 96 100 90 93 100 100 100 100 100
100 100 100 98 94 100 100 100 100 100 100 100 100 100 100 100 100 100 100 100 80 93 100 85 98 95 79 74 65 63 55 23 26 34 56 93 99 90 82 88 82 86 97 100
100 99 100 100 100 100 100 100 100 100 99 100 100 100 100 100 100 100 99 100 100 100 90 99 99 92 72 77 80 77 73 50 51 74 88 91 74 70 81 91 76 84 86 94
98 61 100 100 100 100 100 100 100 100 100 100 100 100 100 100 99 100 98 100 76 77 94 82 76 74 86 93 82 79 66 55 76 99 96 90 92 90 95 73 71 80 95 86
82 92 100 100 100 100 100 100 100 100 100 100 96 88 19 86 97 100 87 79 99 99 87 84 90 68 100 95 82 100 61 59 80 81 70 88 78 81 73 69 97 85 91 97

GFSNW_prec_cloud_114.txt.gz
Cloud_Cover
81 7 6 6 5 1 3 1 5 22 6 44 57 42 5 5 5 1 25 5 5 5 5 66 5 0 0 5 90 100 96 100 100 100 100 100 100 100 100 100 100 100 100 99
97 5 5 5 5 2 5 71 19 4 72 24 53 6 5 4 4 5 12 5 15 5 1 51 5 25 16 48 100 100 100 100 98 100 100 100 100 100 100 100 59 5 19 2
42 64 5 4 7 4 5 16 5 5 12 5 59 98 5 5 5 5 3 3 5 5 5 5 8 29 88 46 59 100 100 100 100 100 100 95 100 100 100 100 46 5 2 0
100 18 5 5 4 5 5 64 38 66 83 17 52 96 5 5 5 4 38 13 6 98 86 11 50 62 66 2 0 15 100 100 100 100 100 100 98 100 100 98 26 4 2 0
18 5 5 5 5 9 56 87 64 62 13 5 5 5 5 2 92 84 76 96 93 99 97 76 100 100 99 100 37 0 3 100 100 100 100 100 100 100 100 100 3 0 0 0
40 5 5 5 5 7 65 24 14 76 13 7 30 38 90 37 100 78 100 100 100 100 100 100 100 96 95 82 78 81 0 0 90 95 100 100 7 24 20 0 0 0 0 0
5 5 5 24 5 5 5 10 28 92 82 37 32 43 96 100 100 100 100 100 100 100 55 89 96 83 100 100 100 100 4 5 4 5 6 16 2 0 0 0 0 0 0 0
9 5 5 11 46 4 5 6 80 74 91 5 76 67 99 100 100 100 100 98 100 88 66 100 33 29 5 13 5 9 4 5 15 5 4 0 0 0 0 4 2 0 5 3
6 5 5 5 5 5 5 47 77 94 93 12 34 42 100 100 100 100 97 98 100 100 100 37 44 10 1 1 0 6 8 84 100 100 68 60 1 0 4 5 11 10 95 14
5 5 4 5 42 10 5 23 85 98 97 5 11 100 88 100 100 100 100 100 100 72 52 73 95 40 43 100 100 100 100 100 100 100 100 82 0 0 89 100 100 100 99 98
6 5 5 5 10 76 51 82 92 82 100 33 1 12 38 98 96 100 80 9 53 56 88 83 98 100 100 100 100 100 100 100 100 100 100 68 9 24 33 84 100 100 100 100
20 5 5 14 90 52 96 100 99 90 100 14 5 5 5 4 15 80 100 8 87 89 70 98 100 100 100 100 100 100 100 100 100 100 83 8 12 90 98 75 100 100 100 100
98 12 5 29 87 82 99 100 100 100 100 100 94 10 4 0 3 4 5 5 23 97 100 100 100 100 100 100 100 100 100 100 100 100 100 100 93 87 100 100 100 100 96 100
27 5 5 5 97 100 98 100 100 100 100 94 42 42 64 5 3 0 0 3 22 100 100 100 100 100 100 100 100 100 100 100 100 100 100 92 96 100 100 96 94 100 100 90
88 82 5 99 95 97 98 100 100 100 97 96 31 58 71 5 5 5 4 5 99 100 100 100 100 100 100 100 100 100 100 100 100 100 100 100 100 100 100 100 100 100 100 100
100 58 5 6 71 100 99 100 91 11 99 100 71 38 66 34 5 4 21 56 78 100 100 100 100 100 100 100 100 100 100 100 100 100 100 100 100 100 100 100 100 100 100 100
100 100 81 60 99 86 100 100 92 77 97 100 93 12 46 32 68 10 50 98 94 99 100 100 100 100 100 100 100 100 100 99 100 100 100 100 100 100 100 100 100 100 100 100
100 11 11 100 100 99 100 100 100 100 100 100 99 73 82 99 100 100 100 100 100 100 100 100 100 100 100 99 100 100 74 37 89 100 100 100 100 100 100 100 100 95 98 100
77 80 100 100 100 100 100 100 100 99 85 83 100 95 96 100 100 100 100 100 100 100 100 100 100 97 100 100 100 100 100 100 100 100 100 100 100 100 100 100 100 99 100 100
100 100 100 100 100 100 100 100 100 100 100 100 100 57 98 100 100 100 100 100 100 100 100 100 100 100 100 100 100 99 100 100 100 100 100 100 91 100 100 100 100 100 100 100
100 100 100 100 100 100 100 100 100 99 100 100 79 68 100 100 100 100 100 100 100 100 100 100 100 100 100 100 100 100 100 100 100 100 100 100 100 100 100 100 100 100 100 100
100 100 100 100 100 100 100 98 100 100 70 98 100 100 100 100 100 100 100 100 100 100 100 100 100 100 100 100 100 100 100 100 100 100 100 100 100 100 100 100 100 99 100 100
100 100 100 100 100 100 100 100 100 100 100 100 100 100 100 100 100 100 100 100 100 100 100 100 100 100 100 100 100 100 99 91 46 13 26 73 98 97 98 99 100 100 100 100
100 100 100 100 100 100 100 100 77 45 100 100 100 100 100 100 100 100 100 100 100 100 97 85 100 100 100 100 100 100 100 88 21 42 65 81 96 85 82 92 92 92 93 91
100 100 100 100 100 100 100 100 42 73 100 100 100 100 100 100 100 100 100 100 100 100 65 99 100 96 66 72 81 28 5 28 18 68 95 96 78 72 79 95 88 89 87 86
98 100 100 100 100 100 100 100 100 99 100 100 100 100 100 100 100 100 100 100 100 98 98 99 99 72 91 93 78 79 61 56 70 100 98 91 89 93 96 77 76 89 85 74
100 100 100 100 100 100 100 100 100 100 100 100 100 100 100 100 100 100 100 99 100 100 98 84 92 58 100 99 86 99 61 52 77 58 59 79 63 84 72 74 98 81 83 74

GFSNW_prec_cloud_117.txt.gz
Cloud_Cover
98 100 100 100 100 74 5 5 5 5 0 11 23 24 5 5 0 0 1 5 6 22 10 39 11 1 0 0 0 0 42 93 100 100 100 100 100 100 100 100 100 99 10 36
100 100 100 100 40 5 2 56 6 1 0 5 5 5 5 4 13 5 5 5 5 5 30 87 5 4 3 5 4 96 5 59 46 100 100 100 100 100 100 100 100 100 99 100
100 100 100 99 6 5 5 12 8 4 5 5 43 70 5 5 1 0 0 5 5 25 59 49 46 5 0 5 5 4 4 15 100 100 100 100 100 100 98 100 91 75 10 32
100 100 67 6 5 5 25 53 12 34 61 6 5 5 5 5 5 1 26 24 98 100 99 42 86 22 5 0 60 5 1 2 38 100 100 100 100 92 48 24 14 29 5 1
100 94 67 90 25 67 5 35 9 15 5 5 5 5 5 5 14 98 25 98 100 100 100 100 100 100 28 5 62 17 57 2 0 18 100 100 100 100 100 88 100 3 0 0
99 6 5 41 87 5 24 55 8 5 5 5 9 6 5 14 99 22 50 100 100 100 89 61 73 100 61 5 5 5 6 6 4 1 79 100 52 100 91 45 25 59 2 0
64 77 100 98 5 5 5 5 15 5 11 6 5 5 5 42 100 97 86 99 100 100 95 20 19 5 5 4 17 5 5 6 5 5 7 42 0 10 92 88 33 81 0 0
98 11 5 18 61 5 5 13 14 9 77 5 5 5 5 19 52 100 100 100 100 100 46 94 39 5 5 0 0 0 5 39 79 71 14 2 0 0 0 0 0 0 0 3
100 6 5 5 97 45 5 5 5 29 5 4 58 22 5 65 79 100 100 74 17 98 100 98 65 17 1 6 47 100 100 100 100 100 95 96 100 51 0 0 2 3 98 96
99 6 7 72 100 66 8 5 5 44 85 5 5 5 51 8 44 94 100 96 37 100 85 18 96 77 94 100 100 100 100 100 100 100 100 97 100 53 11 17 99 100 100 100
100 100 100 18 53 86 6 8 5 22 84 33 4 2 4 5 5 72 19 49 39 37 32 87 92 100 100 100 100 100 100 100 100 100 100 97 24 78 62 100 100 100 100 100
100 85 5 16 13 96 6 62 78 62 97 5 5 5 3 5 2 5 6 67 92 8 57 99 100 100 100 100 100 100 100 100 100 100 100 14 16 15 100 100 100 100 100 100
95 32 93 86 5 87 41 33 100 100 100 95 77 5 1 7 3 3 59 5 18 6 85 100 100 100 100 100 100 100 100 100 100 100 100 100 100 100 100 100 100 100 100 99
79 86 60 75 90 99 99 100 100 100 100 98 11 0 6 28 0 2 4 4 5 45 100 100 100 100 100 100 100 100 100 100 100 100 100 100 100 100 100 100 100 100 100 98
21 100 99 99 67 100 86 85 100 84 74 82 22 4 24 6 5 2 0 0 11 36 100 100 100 100 100 100 100 100 100 100 100 100 100 100 100 100 100 100 100 100 98 95
100 59 98 48 94 94 86 100 95 45 85 100 75 5 44 2 5 5 5 28 39 51 100 100 100 100 100 100 100 100 100 100 100 100 100 100 100 100 100 100 100 100 100 100
99 100 100 98 91 58 78 41 79 85 85 100 94 66 28 35 28 27 7 33 17 83 100 100 100 100 100 100 100 100 100 100 100 100 100 100 100 100 100 98 100 100 100 96
100 100 51 10 80 93 71 84 96 100 100 100 100 32 5 13 64 90 82 73 99 100 100 91 98 98 100 98 100 100 92 41 81 85 100 100 100 100 100 100 100 100 100 100
100 100 97 100 100 100 100 88 83 100 97 82 100 69 86 97 100 100 100 100 100 94 100 98 100 95 99 100 100 100 100 99 100 100 100 100 100 100 100 100 100 100 100 100
100 100 99 100 100 98 68 97 100 100 100 100 100 6 86 94 90 100 100 100 100 100 98 100 100 99 100 100 100 100 100 100 99 93 97 87 100 100 100 100 100 100 100 100
100 100 100 100 92 100 100 100 100 100 97 100 100 52 87 70 99 100 100 100 100 100 100 100 100 100 100 100 100 100 100 100 100 100 100 100 100 100 100 92 100 100 100 100
100 100 100 100 100 100 92 100 100 100 7 100 100 98 100 100 100 100 100 100 100 100 100 100 100 100 100 100 100 100 100 100 100 100 100 100 100 100 100 100 100 100 100 100
100 100 100 100 98 100 100 100 100 100 45 96 95 84 100 100 100 100 100 99 99 74 97 99 100 100 100 100 100 100 100 98 94 72 73 76 94 99 100 98 100 99 91 100
100 100 100 93 100 100 100 100 100 87 83 96 100 100 97 100 100 100 100 100 100 99 100 100 100 100 100 100 100 100 86 20 21 15 10 59 80 90 90 95 100 79 84 85
100 93 80 100 100 100 100 100 99 94 100 59 100 97 99 100 100 100 100 97 100 100 100 98 97 84 64 77 77 93 92 98 24 73 84 84 68 68 68 94 98 93 76 76
100 100 100 100 100 100 100 100 100 100 83 94 97 100 100 100 100 100 100 99 100 98 99 93 79 84 78 91 82 77 38 5 11 62 66 62 69 90 96 84 86 76 87 81
100 100 100 100 100 100 100 100 100 88 100 100 100 100 100 100 100 96 99 100 95 99 100 100 99 81 68 99 69 57 62 7 54 45 40 28 41 5 7 72 100 99 99 99

GFSNW_prec_cloud_120.txt.gz
Cloud_Cover
100 100 100 100 100 100 100 100 67 20 100 97 5 3 1 0 0 2 3 4 76 99 100 100 54 5 5 4 4 5 42 60 32 77 100 100 100 100 100 100 100 100 100 100
100 100 100 100 100 100 100 24 80 100 51 5 4 3 5 5 40 5 22 14 35 74 89 99 61 5 4 5 5 95 68 66 38 92 36 94 100 100 100 100 100 100 100 100
100 100 100 100 100 100 85 97 100 98 26 11 14 8 4 2 2 0 4 12 74 97 100 97 50 57 100 59 5 100 6 85 100 100 100 100 100 100 100 97 100 100 100 100
100 100 100 100 100 63 100 88 87 40 57 70 5 4 2 73 83 29 69 90 100 100 95 98 100 100 96 99 2 5 69 83 100 100 14 100 99 100 100 100 100 57 60 44
100 100 100 100 92 92 98 96 50 42 5 5 5 3 43 100 100 94 63 100 100 97 100 100 100 73 98 86 57 100 69 7 100 84 5 55 100 98 100 100 100 99 91 11
100 100 100 100 100 100 69 80 33 26 3 5 5 9 11 10 86 77 87 77 91 99 72 11 10 78 86 71 79 74 52 58 100 100 100 96 33 3 100 100 54 47 8 1
100 100 100 100 100 100 100 6 5 42 16 5 3 5 5 72 96 98 69 92 85 47 19 77 51 7 5 11 29 57 61 53 100 98 98 92 5 5 47 100 100 96 3 0
100 100 100 100 94 100 47 5 5 18 10 4 3 5 7 8 69 42 5 6 12 36 20 56 5 91 23 41 77 100 100 100 100 100 100 99 79 17 1 7 37 15 0 4
100 100 100 80 100 46 5 5 5 9 74 10 5 5 5 13 6 5 5 5 12 5 90 100 100 100 100 100 100 100 100 100 100 100 100 100 100 96 98 12 2 9 17 66
100 100 97 100 53 6 27 13 5 62 70 6 5 25 76 76 70 15 10 5 9 5 72 99 100 100 100 100 100 100 100 100 100 100 100 100 100 84 34 98 57 44 83 100
100 100 100 100 87 42 11 38 5 89 95 38 5 5 7 55 38 58 51 15 70 63 58 99 100 100 100 100 100 100 100 100 100 100 100 100 68 76 100 100 100 100 100 100
100 100 100 100 99 60 15 94 36 71 89 70 19 5 5 5 6 38 62 68 98 87 71 100 100 100 100 100 100 100 100 100 100 100 100 100 100 100 100 100 100 100 100 100
100 100 100 100 25 40 80 98 79 99 100 26 57 4 3 3 5 5 31 17 10 68 77 81 100 100 100 100 100 100 100 100 100 100 94 100 100 100 100 100 100 100 100 100
100 100 100 100 99 100 94 83 50 77 79 91 10 1 2 0 5 0 4 2 34 23 76 99 99 100 100 100 100 100 100 100 100 100 100 100 100 100 100 100 100 100 100 99
100 100 100 100 100 91 54 45 98 99 96 100 25 5 2 0 5 3 5 14 17 95 100 100 100 100 100 100 100 100 100 100 100 100 100 100 100 100 100 100 100 100 99 93
100 100 100 100 52 91 100 100 94 96 99 97 94 5 1 3 3 5 5 11 70 96 100 100 98 100 100 100 100 100 100 100 100 100 95 100 100 100 100 100 100 100 100 100
100 100 97 94 92 44 48 56 84 100 95 98 82 39 5 5 5 17 16 58 100 100 100 97 100 100 100 100 100 100 100 100 100 100 100 100 100 100 100 100 100 99 100 100
100 100 100 100 98 90 72 59 100 100 100 97 100 28 10 5 79 90 64 87 100 100 68 98 96 100 100 100 100 100 100 100 100 100 100 100 100 99 100 100 82 94 100 100
100 100 100 94 78 97 53 51 100 100 99 91 100 60 13 5 95 97 93 99 100 94 92 99 100 100 99 100 100 99 90 88 100 89 82 90 84 94 93 100 100 100 100 100
100 100 100 100 100 8 41 99 100 100 100 100 90 23 5 5 29 98 99 100 100 99 55 97 96 100 100 100 100 100 100 87 77 55 90 91 83 100 100 99 100 100 100 100
100 100 100 100 100 100 100 100 100 100 98 83 66 33 85 51 59 100 100 99 97 100 100 95 100 100 100 100 100 98 83 100 100 48 72 98 96 100 99 100 100 100 100 100
75 100 100 100 100 100 89 92 99 97 72 67 100 75 77 90 100 100 100 100 98 100 97 100 100 100 100 100 100 99 100 100 100 100 100 100 100 100 100 100 100 100 100 100
100 100 100 100 100 100 98 98 100 98 80 82 70 88 100 59 46 100 96 99 100 93 93 100 100 100 99 98 100 100 100 100 100 100 100 100 73 86 100 100 100 100 100 98
100 100 100 96 96 34 35 100 99 94 99 63 38 98 100 85 96 100 100 100 81 100 100 98 100 100 100 100 100 100 100 95 67 30 5 5 6 66 96 100 100 100 100 100
100 100 98 85 99 100 100 100 100 100 80 45 97 94 93 85 89 100 100 100 100 98 100 100 100 100 98 87 48 12 24 31 59 74 65 80 85 95 100 100 100 100 100 100
100 100 99 100 100 100 100 100 100 94 92 76 85 97 100 100 99 99 98 99 96 98 100 100 90 80 10 68 74 83 78 66 74 81 87 92 76 98 100 100 100 100 100 100
100 100 100 100 100 100 100 100 100 100 100 69 72 100 100 99 100 100 97 100 100 100 100 100 86 98 90 98 96 75 89 100 100 87 98 94 83 74 100 100 100 100 100 100

GFSNW_prec_cloud_123.txt.gz
Cloud_Cover
100 100 100 100 100 100 100 100 100 100 100 100 100 54 100 83 5 0 3 2 6 81 99 100 100 100 100 100 100 100 100 97 100 100 100 51 100 100 100 100 67 100 100 100
100 100 100 100 100 100 100 100 100 100 100 75 96 100 64 5 5 0 3 2 4 6 87 99 100 100 100 100 100 100 90 71 100 100 98 100 83 99 100 100 100 100 100 100
100 100 100 100 100 100 100 100 100 100 100 100 100 48 12 5 2 0 1 11 34 100 100 100 86 100 100 99 99 94 72 24 87 100 98 100 100 100 100 100 100 100 100 100
100 100 100 100 100 100 100 100 100 100 100 100 78 15 6 5 5 39 96 97 98 100 93 100 100 99 100 66 85 81 66 97 97 97 10 96 100 100 100 100 100 100 100 100
100 100 100 100 100 100 100 99 100 100 100 84 5 5 54 5 86 76 60 93 98 100 100 87 67 98 65 100 100 100 100 100 92 100 100 100 100 100 100 100 100 100 100 100
100 100 100 100 100 100 100 100 100 97 9 59 58 54 5 44 89 92 92 38 78 98 76 7 5 5 80 99 96 100 100 100 100 100 100 96 88 0 56 100 100 100 100 100
100 100 100 100 100 100 100 100 100 100 99 92 36 4 5 30 74 94 100 100 98 13 3 5 7 46 91 95 92 100 100 100 100 100 100 100 100 100 100 97 100 100 100 100
100 100 100 100 100 100 99 100 100 93 48 5 5 5 5 7 50 89 38 35 5 5 5 50 29 100 100 100 100 100 100 100 100 100 100 94 82 100 79 96 73 86 63 20
100 100 100 100 100 100 100 100 87 21 64 25 5 5 5 56 100 100 75 5 2 5 17 96 100 100 100 100 97 100 100 100 100 100 100 100 100 95 100 100 26 50 57 9
100 100 100 100 100 100 100 71 34 62 96 58 5 49 93 48 47 95 67 5 5 5 70 100 100 100 99 100 100 100 100 100 100 100 100 100 100 100 56 99 100 99 57 84
100 100 100 100 100 100 100 100 18 98 98 89 5 13 39 64 16 91 68 11 86 69 39 95 100 100 100 100 100 100 100 100 100 100 100 100 100 14 98 100 100 100 100 100
100 100 100 100 100 95 99 100 99 100 79 85 25 14 5 5 11 10 5 38 95 97 98 94 93 100 100 100 100 100 100 100 100 100 100 100 100 100 100 100 100 100 100 100
100 100 100 100 100 100 100 100 85 100 45 23 35 17 28 3 1 5 18 63 57 100 54 94 89 100 100 100 100 100 100 100 100 100 100 100 100 100 100 100 100 100 100 100
100 100 100 100 100 100 92 100 100 100 90 96 86 40 15 1 4 5 5 6 71 92 83 92 99 100 100 100 100 100 100 100 100 100 100 100 100 100 100 100 100 100 100 100
100 100 100 100 100 100 100 100 100 100 93 100 66 26 5 5 5 5 8 68 95 100 84 88 96 100 100 100 100 100 100 100 100 100 100 100 100 100 100 100 100 100 100 100
100 100 100 100 100 100 100 100 100 99 59 100 86 96 5 5 5 5 5 83 96 100 63 100 100 100 100 100 100 100 100 100 100 100 100 100 100 100 100 100 100 100 99 99
100 100 100 100 100 100 100 100 99 95 100 70 87 94 84 6 30 78 65 91 100 100 95 83 96 97 100 100 100 100 100 100 100 100 100 100 100 100 100 100 100 100 100 100
100 100 100 100 100 100 100 100 29 60 84 65 100 69 82 3 96 94 100 100 100 100 88 99 97 100 100 100 99 88 100 100 86 100 100 100 94 88 86 80 100 100 100 100
100 100 100 100 100 100 89 100 100 75 97 91 100 98 99 9 94 100 100 100 100 89 97 100 100 100 100 100 100 100 100 62 99 83 96 100 86 96 90 85 91 99 100 100
100 100 100 100 100 38 32 98 100 100 100 100 67 61 79 50 95 100 100 82 97 100 70 95 96 98 98 100 100 92 76 70 60 13 28 30 51 38 51 97 91 100 100 100
100 100 93 62 7 74 100 99 94 58 96 46 51 94 98 91 70 87 70 76 100 92 91 99 100 100 100 99 94 84 86 50 55 36 35 40 75 96 59 100 100 99 100 100
69 86 100 99 100 100 85 97 82 97 95 91 85 93 99 100 86 97 100 97 64 85 84 91 98 100 100 100 100 88 31 48 90 100 100 100 100 100 100 100 100 100 100 100
100 100 100 100 93 100 100 99 100 96 100 57 86 79 99 70 98 100 77 100 100 83 94 88 100 100 100 100 78 80 100 100 80 100 100 100 100 77 57 79 100 100 100 100
100 100 100 98 94 37 100 96 100 92 71 73 82 100 100 92 100 82 100 100 100 98 96 99 100 100 100 100 100 100 100 100 100 82 9 7 5 21 98 100 100 100 100 100
100 100 92 48 64 32 27 100 100 93 75 75 96 96 97 90 100 86 91 100 99 100 100 100 100 100 100 100 100 91 90 44 85 97 89 99 85 92 100 100 100 100 100 100
100 100 100 84 100 100 100 100 100 100 97 100 100 88 100 100 100 100 100 100 100 100 100 100 100 100 98 94 85 99 95 99 99 100 100 100 100 100 98 100 100 100 100 100
99 100 95 93 100 100 100 100 100 99 100 98 100 100 95 100 100 100 100 100 100 100 100 100 90 100 100 100 98 97 96 100 99 100 100 100 100 97 100 100 100 100 100 100

GFSNW_prec_cloud_126.txt.gz
Cloud_Cover
100 100 100 100 100 100 100 100 100 100 100 100 100 100 100 100 100 100 100 67 5 5 5 2 5 43 82 90 46 96 100 46 7 2 5 100 96 98 100 100 98 100 85 100
100 100 100 100 100 100 100 100 100 100 100 100 100 100 100 100 100 100 100 93 5 5 33 72 81 8 46 23 6 100 84 97 100 98 89 86 98 87 100 100 100 100 100 53
100 100 100 100 100 100 100 100 100 100 100 96 100 100 100 98 100 100 100 39 6 94 90 56 35 84 28 13 97 76 5 5 82 52 100 100 100 100 100 100 100 100 100 100
100 100 100 100 100 100 100 100 100 100 100 100 100 100 100 100 100 59 38 77 100 80 62 97 61 6 5 43 100 49 100 26 28 5 22 100 100 100 99 100 100 96 100 100
100 100 100 100 100 100 100 100 100 100 100 100 100 100 100 100 19 13 36 68 5 99 57 91 27 5 1 35 100 100 100 100 100 100 40 57 97 4 9 100 100 100 100 100
100 100 100 100 100 100 100 100 92 100 100 100 100 100 100 66 6 14 63 14 28 83 51 2 0 4 4 5 40 6 19 25 39 100 83 47 4 100 100 30 100 100 100 100
100 100 100 100 100 100 100 100 99 100 100 98 100 100 80 5 30 62 96 100 59 8 0 5 4 17 100 100 100 100 100 100 99 100 98 100 97 85 20 98 56 100 100 100
100 100 100 100 100 100 100 100 100 100 100 92 100 65 5 5 5 4 95 28 5 0 5 10 27 90 100 97 100 69 64 85 91 88 97 100 18 91 90 26 47 100 100 100
100 100 100 100 100 99 98 100 100 100 93 100 98 5 5 71 100 98 80 5 2 5 7 11 100 100 97 88 64 100 100 100 100 90 100 100 100 100 94 95 68 100 100 100
100 100 100 100 100 100 100 100 100 100 100 100 53 10 85 48 20 46 66 5 5 5 5 42 95 93 99 100 100 100 100 100 100 100 100 100 100 74 28 87 100 100 100 100
100 100 100 100 100 100 100 100 100 100 100 98 40 6 34 12 6 84 64 7 45 5 32 84 94 94 70 98 100 100 100 96 100 100 100 100 100 68 100 100 100 100 100 100
100 100 100 100 100 100 100 100 100 100 100 79 10 5 5 14 97 8 5 48 77 10 42 41 65 96 71 60 100 100 100 100 100 100 100 100 100 100 100 100 100 100 100 100
100 100 100 100 100 100 100 100 100 98 76 69 42 10 38 38 5 5 8 100 53 26 77 54 84 69 96 96 100 100 100 100 100 100 100 100 100 100 100 100 100 100 100 100
100 100 100 100 100 100 100 100 98 87 81 97 90 59 82 29 5 5 1 27 43 8 44 90 82 94 77 90 100 100 100 100 100 100 100 100 100 100 100 100 100 100 100 100
100 100 100 100 100 100 100 100 91 80 73 96 99 100 97 41 5 5 5 5 62 55 75 41 76 73 68 61 83 100 100 100 100 100 100 100 100 100 100 100 100 100 100 95
100 100 100 100 100 100 100 100 100 100 72 92 97 100 87 43 5 5 59 85 100 56 99 55 98 60 100 100 100 100 100 100 100 100 100 100 100 100 100 100 100 100 99 100
100 100 100 100 100 100 100 100 100 95 59 85 100 100 92 5 88 71 88 91 96 67 91 82 73 40 100 100 100 100 100 100 100 100 100 100 100 100 100 100 100 100 100 100
100 100 100 100 100 100 100 100 99 63 78 100 100 100 67 4 27 54 97 84 61 91 88 28 96 95 100 100 100 100 95 100 100 100 100 100 100 100 96 92 88 95 100 100
100 100 100 100 100 100 100 100 56 97 100 100 100 100 75 41 45 100 100 85 91 71 74 73 95 87 100 100 95 95 100 100 64 100 100 100 46 100 43 96 100 98 93 100
100 100 100 100 100 100 100 81 82 100 100 100 100 66 56 63 52 98 76 67 76 100 43 86 93 98 100 100 100 100 100 100 98 47 62 46 18 26 17 75 98 93 96 100
100 100 100 100 100 100 100 100 100 100 100 100 47 25 22 45 46 82 77 53 58 99 70 100 91 100 100 100 99 94 28 41 67 71 45 17 21 9 57 41 86 99 99 100
100 100 100 100 100 100 100 100 100 100 100 92 38 75 44 85 72 12 50 36 50 87 85 99 100 100 100 100 98 97 71 24 10 32 54 100 100 100 100 100 100 100 100 100
100 100 100 100 100 100 100 100 100 99 95 78 48 33 78 26 66 28 32 99 100 70 80 88 97 99 97 99 100 30 56 76 97 98 100 100 100 100 100 99 100 100 100 100
100 100 100 100 100 100 99 70 44 32 23 25 56 17 6 7 30 70 100 100 100 92 90 76 96 100 100 98 59 34 100 100 100 100 100 100 100 89 80 63 88 89 100 98
100 100 100 70 96 53 51 87 98 90 22 94 93 70 79 100 78 95 81 86 100 100 100 100 100 98 97 100 100 100 100 100 100 100 86 99 13 5 49 38 90 5 99 22
100 85 88 65 74 100 90 98 86 76 100 100 99 98 100 86 70 90 70 100 100 100 100 100 98 100 100 100 100 100 100 99 88 98 97 100 88 5 44 98 95 60 91 6
32 75 100 100 99 99 99 82 92 96 100 100 100 100 100 98 95 100 99 100 100 100 100 100 100 100 100 100 100 98 99 100 100 93 18 61 98 99 100 74 100 26 100 90

GFSNW_prec_cloud_129.txt.gz
Cloud_Cover
100 100 100 100 100 100 96 100 100 100 100 100 100 100 100 75 100 100 100 97 100 98 100 100 100 100 77 5 0 0 2 4 0 0 0 91 100 100 100 100 100 100 100 90
100 100 100 100 100 100 100 100 100 100 100 100 100 100 100 100 100 100 98 94 100 100 100 100 72 13 3 0 0 0 0 34 39 100 85 100 98 100 100 100 100 100 96 62
100 100 100 100 100 100 100 100 96 100 100 100 100 100 100 100 96 100 100 100 100 100 94 7 5 5 2 1 0 3 2 82 69 88 100 100 100 100 100 100 100 100 100 87
100 100 100 100 100 100 100 100 100 100 100 100 100 100 100 100 100 100 100 100 100 100 5 4 1 0 0 0 2 39 55 51 98 41 100 100 100 40 97 100 45 78 100 100
100 100 100 100 100 100 100 100 100 100 100 100 100 100 100 100 100 100 100 100 97 7 24 37 5 0 0 2 0 5 86 13 16 23 16 100 98 20 8 84 73 88 100 100
100 100 100 100 100 100 100 100 100 100 100 100 100 100 100 100 100 100 100 51 5 4 3 0 0 1 8 16 88 100 100 96 67 48 2 0 18 10 91 98 96 100 100 100
100 100 100 100 100 100 100 100 100 82 100 100 98 100 100 100 100 100 64 32 5 0 0 0 0 5 24 100 100 100 100 23 25 6 61 96 100 99 72 54 89 87 100 100
100 100 100 100 100 100 100 100 100 100 100 100 100 100 100 100 100 100 5 10 0 0 0 0 1 99 60 99 37 96 92 19 63 83 63 100 100 100 100 97 100 100 99 100
100 100 100 100 100 100 100 100 100 100 100 96 100 100 100 100 100 100 100 6 0 1 3 4 5 59 51 26 93 90 94 51 100 100 100 100 100 100 100 58 98 100 100 100
100 100 100 100 100 100 100 89 98 99 100 100 100 100 100 100 11 53 76 6 3 0 5 5 5 7 16 89 84 92 37 34 100 98 100 100 100 100 99 100 100 100 100 100
100 100 100 100 100 100 74 98 99 94 83 100 100 100 100 100 60 8 5 11 15 4 5 5 5 5 35 31 33 95 88 100 82 89 18 89 100 100 87 100 100 100 100 100
100 100 100 100 100 100 100 100 100 100 97 100 100 100 100 61 5 5 5 3 72 5 5 5 5 5 5 5 78 78 100 100 98 100 100 100 100 100 100 100 100 100 100 100
100 100 100 100 100 100 96 100 100 100 100 100 100 100 100 57 8 5 5 8 5 10 4 4 5 5 5 6 11 83 100 100 100 100 100 100 100 100 100 100 100 100 100 100
100 100 100 100 100 100 99 92 100 100 100 100 100 100 77 9 6 5 5 5 5 5 2 5 5 5 5 28 82 100 100 100 100 100 100 100 100 100 100 100 100 100 100 100
100 100 100 100 100 100 100 100 100 100 100 100 100 100 26 6 14 5 5 4 1 0 2 5 5 5 7 13 100 98 100 100 100 100 100 100 100 100 100 100 100 100 100 100
100 100 100 100 100 100 100 100 100 100 100 100 100 43 12 44 28 5 5 0 5 5 5 5 5 4 82 70 100 100 100 100 100 100 100 100 100 100 100 100 100 100 100 98
100 100 100 100 100 100 100 100 100 100 100 100 82 79 48 12 84 9 22 5 62 8 46 43 5 8 81 100 100 100 100 100 100 100 95 99 100 100 100 98 57 34 43 82
100 100 100 100 100 100 100 100 100 100 100 96 83 72 36 18 8 62 62 33 6 5 5 5 5 69 91 100 100 100 100 100 100 100 100 100 100 100 100 41 5 27 48 100
100 100 100 100 100 100 100 100 100 100 100 100 72 50 92 85 10 98 88 37 64 38 13 11 64 80 80 100 100 96 100 100 100 100 100 100 96 9 17 100 20 44 68 86
100 100 100 100 100 100 100 100 100 100 100 100 97 75 44 78 67 99 59 100 100 94 48 71 82 87 97 100 100 70 99 100 100 85 100 96 89 56 65 20 13 26 61 92
100 100 100 100 100 100 100 100 100 100 100 100 100 42 9 87 16 5 56 62 60 78 78 95 83 99 100 100 100 84 72 100 100 50 78 86 69 66 60 49 77 46 100 100
100 100 100 100 100 100 100 100 100 100 100 100 43 20 27 72 18 5 39 72 39 62 43 100 100 100 100 100 100 34 93 42 35 36 60 61 100 94 100 100 100 99 100 70
100 100 100 100 74 98 100 100 100 100 100 100 98 67 79 5 5 66 37 83 70 93 94 96 100 69 100 100 100 63 22 44 8 31 84 99 100 95 65 50 100 100 99 31
100 100 100 100 100 100 100 100 100 100 100 100 100 96 58 5 4 6 52 38 9 87 100 100 100 96 100 86 99 47 24 50 100 100 100 99 100 100 100 99 40 11 64 5
100 100 100 100 100 100 100 100 100 100 100 100 100 77 5 16 28 18 78 97 98 98 100 100 100 96 89 96 44 9 62 100 100 98 100 100 100 54 26 59 90 59 42 6
100 100 100 100 100 100 100 100 100 100 100 97 98 53 63 50 92 99 84 74 98 100 100 100 100 100 100 97 88 88 100 99 100 100 100 88 5 34 99 66 84 8 39 13
100 100 100 100 100 100 100 100 100 92 98 100 100 100 99 65 34 72 100 100 100 100 100 100 100 100 100 100 100 100 100 100 100 100 55 100 100 34 5 23 6 78 85 44

GFSNW_prec_cloud_132.txt.gz
Cloud_Cover
100 100 100 100 100 100 100 100 100 100 100 100 100 100 100 100 93 100 100 100 100 100 100 100 100 100 100 99 6 4 1 0 2 0 23 21 100 79 100 89 98 100 100 74
100 100 100 100 100 100 100 100 100 100 100 100 100 97 94 100 100 100 100 93 100 100 100 100 100 100 52 6 1 0 5 3 18 0 46 15 86 100 100 100 100 100 100 100
100 100 100 100 100 100 100 94 98 96 96 100 100 100 79 100 100 100 94 100 100 100 100 100 100 51 4 0 0 0 14 5 6 23 82 90 66 100 100 100 100 100 100 65
100 100 100 100 100 100 100 100 100 100 100 100 100 100 100 100 100 100 100 100 100 100 100 100 20 1 0 0 0 3 6 13 4 7 31 99 99 100 60 97 100 21 100 41
100 100 100 100 100 100 100 100 100 100 100 100 100 100 100 100 100 100 100 100 100 100 100 92 5 0 3 4 5 5 8 59 50 5 2 100 100 85 5 30 99 54 94 29
100 100 100 100 100 100 100 100 100 100 100 100 100 100 100 100 100 100 100 100 100 98 24 3 0 1 5 5 5 7 45 38 10 52 1 0 82 98 82 91 100 99 84 100
100 100 100 100 100 100 100 100 100 100 100 100 100 100 100 100 100 100 100 100 55 5 0 0 5 3 5 5 4 5 14 5 40 40 58 52 100 100 99 98 99 96 98 100
100 100 100 100 100 100 100 100 100 100 100 100 100 100 100 100 70 99 100 87 4 0 0 3 5 4 5 5 28 88 10 70 98 94 100 100 99 100 94 100 100 100 100 100
100 100 100 100 100 100 100 100 100 100 100 100 100 100 100 86 99 100 100 34 5 0 5 4 5 6 5 2 25 7 6 98 83 100 100 100 100 100 100 90 100 78 100 100
100 100 100 100 100 100 100 100 100 100 100 100 93 100 63 46 100 100 67 5 5 40 5 5 5 6 5 5 5 47 24 21 73 76 80 100 98 100 78 100 99 100 100 100
100 100 100 100 100 100 100 100 100 99 97 94 100 89 32 100 92 100 90 9 19 18 19 5 5 5 5 18 5 64 86 96 94 46 30 77 100 100 100 100 100 100 100 100
100 100 100 100 100 100 100 100 100 94 81 88 80 76 74 100 100 100 5 66 29 5 5 10 33 6 5 2 5 29 98 98 96 100 100 98 100 100 100 100 100 100 100 100
100 100 100 100 100 100 100 100 100 96 100 89 39 100 100 100 100 59 5 5 5 1 3 4 5 5 5 5 5 67 48 100 100 100 100 100 100 100 100 100 100 100 100 100
100 100 100 100 100 100 100 100 99 100 100 98 100 100 100 100 73 5 5 5 5 1 5 5 5 5 0 5 10 10 62 100 100 100 100 100 100 100 100 100 100 100 100 100
100 100 100 100 100 100 100 100 100 100 98 100 100 99 100 100 100 24 5 5 5 5 5 5 5 5 4 4 4 65 80 100 100 100 100 100 100 100 100 100 100 100 100 100
100 100 100 100 100 100 100 100 100 100 100 100 100 100 98 100 21 5 5 5 5 5 5 5 5 1 4 60 57 5 96 100 100 100 100 100 100 100 100 100 100 100 97 100
100 100 100 100 100 100 100 100 100 100 97 100 100 97 65 86 5 5 5 5 8 70 54 11 5 2 90 49 19 56 83 100 100 100 100 80 69 94 70 67 84 85 28 11
100 100 100 100 100 100 100 100 100 100 100 100 100 100 43 5 10 40 5 5 24 63 22 5 5 5 7 74 35 97 100 97 100 100 92 47 50 29 47 50 100 100 29 7
100 100 100 100 100 100 100 100 100 100 100 100 100 100 58 13 56 82 87 59 92 75 26 5 5 6 70 21 54 100 100 100 100 100 100 100 100 56 17 8 5 18 57 92
100 100 100 100 100 100 100 100 100 100 100 100 100 100 93 46 24 96 84 63 99 100 43 27 19 40 67 79 76 100 100 100 100 100 100 100 100 33 59 5 5 5 91 98
100 100 100 100 100 100 100 100 100 100 100 100 97 22 57 29 37 21 34 96 98 92 42 98 92 97 95 99 96 100 100 60 73 95 100 100 13 18 39 53 55 100 91 96
100 100 100 100 100 100 100 100 100 100 100 86 8 6 34 54 28 5 44 7 62 72 92 100 100 100 100 100 96 100 100 37 40 65 67 54 96 77 78 94 62 5 27 5
100 100 100 99 100 100 100 100 100 100 97 13 8 61 70 14 30 66 9 13 75 58 99 67 84 100 90 95 81 88 100 100 92 84 66 80 55 100 82 26 8 48 51 41
100 100 100 100 100 100 100 100 100 100 100 99 49 79 44 19 6 37 7 6 8 94 86 49 44 70 86 77 34 100 100 98 55 16 62 100 100 85 9 6 47 64 8 50
100 100 100 100 100 100 100 100 100 100 100 100 100 85 96 36 37 51 8 78 100 84 31 86 98 93 91 100 79 72 90 76 52 56 100 100 100 61 36 29 74 5 22 75
100 100 100 100 100 100 100 100 100 100 100 100 99 100 89 57 68 97 88 99 47 75 92 100 100 100 100 100 100 100 100 88 82 97 100 100 66 22 62 26 80 85 95 100
100 100 100 100 100 100 100 100 100 100 100 100 100 100 91 32 78 84 93 77 98 100 100 100 100 100 100 100 100 100 100 100 98 100 100 99 69 31 5 5 5 58 37 93